[[{"header":{"parameterUnit":"m.s-1","parameterCategory":1,"la1":31.0,"la2":29.5877,"lo1":-88.7671,"lo2":-86.6584,"dy":0.0162,"dx":0.0185,"nx":115,"ny":88,"refTime":"2023-07-15T06:00:00:Z","depth":0,"parameterNumber":2,"parameterNumberName":"U-component_of_WINDS"},"data":[0.0,0.0,0.0,0.0,0.0,0.0,0.0,0.0,0.0,0.0,0.0,0.0,0.0,0.0,0.0,0.0,0.0,0.0,0.0,0.0,0.0,0.0,0.0,0.0,0.0,0.0,0.0,0.0,0.0,0.0,0.0,0.0,0.0,0.0,0.0,0.0,0.0,0.0,0.0,0.0,0.0,0.0,0.0,0.0,0.0,0.0,0.0,0.0,0.0,0.0,0.0,0.0,0.0,0.0,0.0,0.0,0.0,0.0,0.0,0.0,0.0,0.0,0.0,0.0,0.0,0.0,0.0,0.0,0.0,0.0,0.0,0.0,0.0,0.0,0.0,0.0,0.0,0.0,0.0,0.0,0.0,0.0,0.0,0.0,0.0,0.0,0.0,0.0,0.0,0.0,0.0,0.0,0.0,0.0,0.0,0.0,0.0,0.0,0.0,0.0,0.0,0.0,0.0,0.0,0.0,0.0,0.0,0.0,0.0,0.0,0.0,0.0,0.0,0.0,0.0,0.0,0.0,0.0,0.0,0.0,0.0,0.0,0.0,0.0,0.0,0.0,0.0,0.0,0.0,0.0,0.0,0.0,0.0,0.0,0.0,0.0,0.0,0.0,0.0,0.0,0.0,0.0,0.0,0.0,0.0,0.0,0.0,0.0,0.0,0.0,0.0,0.0,0.0,0.0,0.0,0.0,0.0,0.0,0.0,0.0,0.0,0.0,0.0,0.0,0.0,0.0,0.0,0.0,0.0,0.0,0.0,0.0,0.0,0.0,0.0,0.0,0.0,0.0,0.0,0.0,0.0,0.0,0.0,0.0,0.0,0.0,0.0,0.0,0.0,0.0,0.0,0.0,0.0,0.0,0.0,0.0,0.0,0.0,0.0,0.0,0.0,0.0,0.0,0.0,0.0,0.0,0.0,0.0,0.0,0.0,0.0,0.0,0.0,0.0,0.0,0.0,0.0,0.0,0.0,0.0,0.0,0.0,0.0,0.0,0.0,0.0,0.0,0.0,0.0,0.0,0.0,0.0,0.0,0.0,0.0,0.0,0.0,0.0,0.0,0.0,0.0,0.0,0.0,0.0,0.0,0.0,0.0,0.0,0.0,0.0,0.0,0.0,0.0,0.0,0.0,0.0,0.0,0.0,0.0,0.0,0.0,0.0,0.0,0.0,0.0,0.0,0.0,0.0,0.0,0.0,0.0,0.0,0.0,0.0,0.0,0.0,0.0,0.0,0.0,0.0,0.0,0.0,0.0,0.0,0.0,0.0,0.0,0.0,0.0,0.0,0.0,0.0,0.0,0.0,0.0,0.0,0.0,0.0,0.0,0.0,0.0,0.0,0.0,0.0,0.0,0.0,0.0,0.0,0.0,0.0,0.0,0.0,0.0,0.0,0.0,0.0,0.0,0.0,0.0,0.0,0.0,0.0,0.0,0.0,0.0,0.0,0.0,0.0,0.0,0.0,0.0,0.0,0.0,0.0,0.0,0.0,0.0,0.0,0.0,0.0,0.0,0.0,0.0,0.0,0.0,0.0,0.0,0.0,0.0,0.0,0.0,0.0,0.0,0.0,0.0,0.0,0.0,0.0,0.0,0.0,0.0,0.0,0.0,0.0,0.0,0.0,0.0,0.0,0.0,0.0,0.0,0.0,0.0,0.0,0.0,0.0,0.0,0.0,0.0,0.0,0.0,0.0,0.0,0.0,0.0,0.0,0.0,0.0,0.0,0.0,0.0,0.0,0.0,0.0,0.0,0.0,0.0,0.0,0.0,0.0,0.0,0.0,0.0,0.0,0.0,0.0,0.0,0.0,0.0,0.0,0.0,0.0,0.0,0.0,0.0,0.0,0.0,0.0,0.0,0.0,0.0,0.0,0.0,0.0,0.0,0.0,0.0,0.0,0.0,0.0,0.0,0.0,0.0,0.0,0.0,0.0,0.0,0.0,0.0,0.0,0.0,0.0,0.0,0.0,0.0,0.0,0.0,0.0,0.0,0.0,0.0,0.0,0.0,0.0,0.0,0.0,0.0,0.0,0.0,0.0,0.0,0.0,0.0,0.0,0.0,0.0,0.0,0.0,0.0,0.0,0.0,0.0,0.0,0.0,0.0,0.0,0.0,0.0,0.0,0.0,0.0,0.0,0.0,0.0,0.0,0.0,0.0,0.0,0.0,0.0,0.0,0.0,0.0,0.0,0.0,0.0,0.0,0.0,0.0,0.0,0.0,0.0,0.0,0.0,0.0,0.0,0.0,0.0,0.0,0.0,0.0,0.0,0.0,0.0,0.0,0.0,0.0,0.0,0.0,0.0,0.0,0.0,0.0,0.0,0.0,0.0,0.0,0.0,0.0,0.0,0.0,0.0,0.0,0.0,0.0,0.0,0.0,0.0,0.0,0.0,0.0,0.0,0.0,0.0,0.0,0.0,0.0,0.0,0.0,0.0,0.0,0.0,0.0,0.0,0.0,0.0,0.0,0.0,0.0,0.0,0.0,0.0,0.0,0.0,0.0,0.0,0.0,0.0,0.0,0.0,0.0,0.0,0.0,0.0,0.0,0.0,0.0,0.0,0.0,0.0,0.0,0.0,0.0,0.0,0.0,0.0,0.0,0.0,0.0,0.0,0.0,0.0,0.0,0.0,0.0,0.0,0.0,0.0,0.0,0.0,0.0,0.0,0.0,0.0,0.0,0.0,0.0,0.0,0.0,0.0,0.0,0.0,0.0,0.0,0.0,0.0,0.0,0.0,0.0,0.0,0.0,0.0,0.0,0.0,0.0,0.0,0.0,0.0,0.0,0.0,0.0,0.0,0.0,0.0,0.0,0.0,0.0,0.0,0.0,0.0,0.0,0.0,0.0,0.0,0.0,0.0,0.0,0.0,0.0,0.0,0.0,0.0,0.0,0.0,0.0,0.0,0.0,0.0,0.0,0.0,0.0,0.0,0.0,0.0,0.0,0.0,0.0,0.0,0.0,0.0,0.0,0.0,0.0,0.0,0.0,0.0,0.0,0.0,0.0,0.0,0.0,0.0,0.0,0.0,0.0,0.0,0.0,0.0,0.0,0.0,0.0,0.0,0.0,0.0,0.0,0.0,0.0,0.0,0.0,0.0,0.0,0.0,0.0,0.0,0.0,0.0,0.0,0.0,0.0,0.0,0.0,0.0,0.0,0.0,0.0,0.0,0.0,0.0,0.0,0.0,0.0,0.0,0.0,0.0,0.0,0.0,0.0,0.0,0.0,0.0,0.0,0.0,0.0,0.0,0.0,0.0,0.0,0.0,0.0,0.0,0.0,0.0,0.0,0.0,0.0,0.0,0.0,0.0,0.0,0.0,0.0,0.0,0.0,0.0,0.0,0.0,0.0,0.0,0.0,0.0,0.0,0.0,0.0,0.0,0.0,0.0,0.0,0.0,0.0,0.0,0.0,0.0,0.0,0.0,0.0,0.0,0.0,0.0,0.0,0.0,0.0,0.0,0.0,0.0,0.0,0.0,0.0,0.0,0.0,0.0,0.0,0.0,0.0,0.0,0.0,0.0,0.0,0.0,0.0,0.0,0.0,0.0,0.0,0.0,0.0,0.0,0.0,0.0,0.0,0.0,0.0,0.0,0.0,0.0,0.0,0.0,0.0,0.0,0.0,0.0,0.0,0.0,0.0,0.0,0.0,0.0,0.0,0.0,0.0,0.0,0.0,0.0,0.0,0.0,0.0,0.0,0.0,0.0,0.0,0.0,0.0,0.0,0.0,0.0,0.0,0.0,0.0,0.0,0.0,0.0,0.0,0.0,0.0,0.0,0.0,0.0,0.0,0.0,0.0,0.0,0.0,0.0,0.0,0.0,0.0,0.0,0.0,0.0,0.0,0.0,0.0,0.0,0.0,0.0,0.0,0.0,0.0,0.0,0.0,0.0,0.0,0.0,0.0,0.0,0.0,0.0,0.0,0.0,0.0,0.0,0.0,0.0,0.0,0.0,0.0,0.0,0.0,0.0,0.0,0.0,0.0,0.0,0.0,0.0,0.0,0.0,0.0,0.0,0.0,0.0,0.0,0.0,0.0,0.0,0.0,0.0,0.0,0.0,0.0,0.0,0.0,0.0,0.0,0.0,0.0,0.0,0.0,0.0,0.0,0.0,0.0,0.0,0.0,0.0,0.0,0.0,0.0,0.0,0.0,0.0,0.0,0.0,0.0,0.0,0.0,0.0,0.0,0.0,0.0,0.0,0.0,0.0,0.0,0.0,0.0,0.0,0.0,0.0,0.0,0.0,0.0,0.0,0.0,0.0,0.0,0.0,-0.3619,0.0,0.0,0.0,0.0,0.0,0.0,0.0,0.0,0.0,0.0,0.0,0.0,0.0,0.0,0.0,0.0,0.0,0.0,0.0,0.0,0.0,0.0,0.0,0.0,0.0,0.0,0.0,0.0,0.0,0.0,0.0,0.0,0.0,0.0,0.0,0.0,0.0,0.0,0.0,0.0,0.0,0.0,0.0,0.0,0.0,0.0,0.0,0.0,0.0,0.0,0.0,0.0,0.0,0.0,0.0,0.0,0.0,0.0,0.0,0.0,0.0,0.0,0.0,0.0,0.0,0.0,0.0,0.0,0.0,0.0,0.0,0.0,0.0,0.0,0.0,0.0,0.0,0.0,0.0,0.0,0.0,0.0,0.0,0.0,0.0,0.0,0.0,0.0,0.0,0.0,0.0,0.0,0.0,0.0,0.0,0.0,0.0,0.0,0.0,0.0,0.0,0.0,0.0,0.0,0.0,0.0,0.0,0.0,0.0,0.0,-0.3578,-0.3578,-0.3578,-0.3578,-0.3629,0.0,0.0,0.0,0.0,0.0,0.0,0.0,0.0,0.0,0.0,0.0,0.0,0.0,0.0,0.0,0.0,0.0,0.0,0.0,0.0,0.0,0.0,0.0,0.0,0.0,0.0,0.0,0.0,0.0,0.0,0.0,0.0,0.0,0.0,0.0,0.0,0.0,0.0,0.0,0.0,0.0,0.0,0.0,0.0,0.0,0.0,0.0,0.0,0.0,0.0,0.0,0.0,0.0,0.0,0.0,0.0,0.0,0.0,0.0,0.0,0.0,0.0,0.0,0.0,0.0,0.0,0.0,0.0,0.0,0.0,0.0,0.0,0.0,0.0,0.0,0.0,0.0,0.0,0.0,0.0,0.0,0.0,0.0,0.0,0.0,0.0,0.0,0.0,0.0,0.0,0.0,0.0,0.0,0.0,0.0,0.0,0.0,0.0,0.0,0.0,0.0,0.0,0.0,0.0,0.0,0.0,0.0,0.0,0.0,0.0,0.0,0.0,-0.3587,-0.3624,-0.3691,0.0,0.0,0.0,0.0,0.0,0.0,0.0,0.0,0.0,0.0,0.0,0.0,0.0,0.0,0.0,0.0,0.0,0.0,0.0,0.0,0.0,0.0,0.0,0.0,0.0,0.0,0.0,0.0,0.0,0.0,0.0,0.0,0.0,0.0,0.0,0.0,0.0,0.0,0.0,0.0,0.0,0.0,0.0,0.0,0.0,0.0,0.0,0.0,0.0,0.0,0.0,0.0,0.0,0.0,0.0,0.0,0.0,0.0,0.0,0.0,0.0,0.0,0.0,0.0,0.0,0.0,0.0,0.0,0.0,0.0,0.0,0.0,0.0,0.0,0.0,0.0,0.0,0.0,0.0,0.0,0.0,0.0,0.0,0.0,0.0,0.0,0.0,0.0,0.0,0.0,0.0,0.0,0.0,0.0,0.0,0.0,0.0,0.0,0.0,0.0,0.0,0.0,0.0,0.0,0.0,0.0,0.0,0.0,0.0,0.0,-0.3614,-0.3604,-0.356,0.0,-0.3968,0.0,0.0,0.0,0.0,0.0,0.0,0.0,0.0,0.0,0.0,0.0,0.0,0.0,0.0,0.0,0.0,0.0,0.0,0.0,0.0,0.0,0.0,0.0,0.0,0.0,0.0,0.0,0.0,0.0,0.0,0.0,0.0,0.0,0.0,0.0,0.0,0.0,0.0,0.0,0.0,0.0,0.0,0.0,0.0,0.0,0.0,0.0,0.0,0.0,0.0,0.0,0.0,0.0,0.0,0.0,0.0,0.0,0.0,0.0,0.0,0.0,0.0,0.0,0.0,0.0,0.0,0.0,0.0,0.0,0.0,0.0,0.0,0.0,0.0,0.0,0.0,0.0,0.0,0.0,0.0,0.0,0.0,0.0,0.0,0.0,0.0,0.0,0.0,0.0,0.0,0.0,0.0,0.0,0.0,0.0,0.0,0.0,0.0,0.0,0.0,0.0,0.0,0.0,0.0,0.0,0.0,0.0,0.0,0.0,0.0,-0.1459,-0.1473,-0.1472,-0.1509,0.0,0.0,0.0,0.0,0.0,0.0,0.0,0.0,0.0,0.0,0.0,0.0,0.0,0.0,0.0,0.0,0.0,0.0,0.0,0.0,0.0,0.0,0.0,0.0,0.0,0.0,0.0,0.0,0.0,0.0,0.0,0.0,0.0,0.0,0.0,0.0,0.0,0.0,0.0,0.0,0.0,0.0,0.0,0.0,0.0,0.0,0.0,0.0,0.0,0.0,0.0,0.0,0.0,0.0,0.0,0.0,0.0,0.0,0.0,0.0,0.0,0.0,0.0,0.0,0.0,0.0,0.0,0.0,0.0,0.0,0.0,0.0,0.0,0.0,0.0,0.0,0.0,0.0,0.0,0.0,0.0,0.0,0.0,0.0,0.0,0.0,0.0,0.0,0.0,0.0,0.0,0.0,0.0,0.0,0.0,0.0,0.0,0.0,0.0,0.0,0.0,0.0,0.0,0.0,0.0,0.0,0.0,0.0,0.0,0.0,-0.0,-0.0,-0.0,-0.0,-0.0,-0.0,0.0,0.0,0.0,0.0,0.0,0.0,0.0,0.0,0.0,0.0,0.0,0.0,0.0,0.0,0.0,0.0,0.0,0.0,0.0,0.0,0.0,0.0,0.0,0.0,0.0,0.0,0.0,0.0,0.0,0.0,0.0,0.0,0.0,0.0,0.0,0.0,0.0,0.0,0.0,0.0,0.0,0.0,0.0,0.0,0.0,0.0,0.0,0.0,0.0,0.0,0.0,0.0,0.0,0.0,0.0,0.0,0.0,0.0,0.0,0.0,0.0,0.0,0.0,0.0,0.0,0.0,0.0,0.0,0.0,0.0,0.0,0.0,0.0,0.0,0.0,0.0,0.0,0.0,0.0,0.0,0.0,0.0,0.0,0.0,0.0,0.0,0.0,0.0,0.0,0.0,0.0,0.0,0.0,0.0,0.0,0.0,0.0,0.0,0.0,0.0,0.0,0.0,0.0,0.0,0.0,0.0,0.0,0.0,-0.0,-0.0,-0.0,-0.0,-0.0,-0.0,0.0,0.0,0.0,0.0,0.0,0.0,0.0,0.0,0.0,0.0,0.0,0.0,0.0,0.0,0.0,0.0,0.0,0.0,0.0,0.0,0.0,0.0,0.0,0.0,0.0,0.0,0.0,0.0,0.0,0.0,0.0,0.0,0.0,0.0,0.0,0.0,0.0,0.0,0.0,0.0,0.0,0.0,0.0,0.0,0.0,0.0,0.0,0.0,0.0,0.0,0.0,0.0,0.0,0.0,0.0,0.0,0.0,0.0,0.0,0.0,0.0,0.0,0.0,0.0,0.0,0.0,0.0,0.0,0.0,0.0,0.0,0.0,0.0,0.0,0.0,0.0,0.0,0.0,0.0,0.0,0.0,0.0,0.0,0.0,0.0,0.0,0.0,0.0,0.0,0.0,0.0,0.0,0.0,0.0,0.0,0.0,0.0,0.0,0.0,0.0,0.0,0.0,0.0,0.0,0.0,0.0,0.0,0.0,0.0,-0.0,-0.0,-0.0,-0.0,-0.0,-0.0,0.0,0.0,0.0,0.0,0.0,0.0,0.0,0.0,0.0,0.0,0.0,0.0,0.0,0.0,0.0,0.0,0.0,0.0,0.0,0.0,0.0,0.0,0.0,0.0,0.0,0.0,0.0,0.0,0.0,0.0,0.0,0.0,0.0,0.0,0.0,0.0,0.0,0.0,0.0,0.0,0.0,0.0,0.0,0.0,0.0,0.0,0.0,0.0,0.0,0.0,0.0,0.0,0.0,0.0,0.0,0.0,0.0,0.0,0.0,0.0,0.0,0.0,0.0,0.0,0.0,0.0,0.0,0.0,0.0,0.0,0.0,0.0,0.0,0.0,0.0,0.0,0.0,0.0,0.0,0.0,0.0,0.0,0.0,0.0,0.0,0.0,0.0,0.0,0.0,0.0,0.0,0.0,0.0,0.0,0.0,0.0,0.0,0.0,0.0,0.0,0.0,0.0,0.0,0.0,0.0,0.0,0.0,0.0,0.0,-0.0,0.0,-0.0,-0.0,-0.0,-0.0,0.0,0.0,0.0,0.0,0.0,0.0,0.0,0.0,0.0,0.0,0.0,0.0,0.0,0.0,0.0,0.0,0.0,0.0,0.0,0.0,0.0,0.0,0.0,0.0,0.0,0.0,0.0,0.0,0.0,0.0,0.0,0.0,0.0,0.0,0.0,0.0,0.0,0.0,0.0,0.0,0.0,0.0,0.0,0.0,0.0,0.0,0.0,0.0,0.0,0.0,0.0,0.0,0.0,0.0,0.0,0.0,0.0,0.0,0.0,0.0,0.0,0.0,0.0,0.0,0.0,0.0,0.0,0.0,0.0,0.0,0.0,0.0,0.0,0.0,0.0,0.0,0.0,0.0,0.0,0.0,0.0,0.0,0.0,0.0,0.0,0.0,0.0,0.0,0.0,0.0,0.0,0.0,0.0,0.0,0.0,0.0,0.0,0.0,0.0,0.0,0.0,0.0,0.0,0.0,0.0,0.0,0.0,0.0,-0.0,-0.0,-0.0,-0.0,-0.0,-0.0,-0.0,0.0,0.0,0.0,0.0,0.0,0.0,0.0,0.0,0.0,0.0,0.0,0.0,0.0,0.0,0.0,0.0,0.0,0.0,0.0,0.0,0.0,0.0,0.0,0.0,0.0,0.0,0.0,0.0,0.0,0.0,0.0,0.0,0.0,0.0,0.0,0.0,0.0,0.0,0.0,0.0,0.0,0.0,0.0,0.0,0.0,0.0,0.0,0.0,0.0,0.0,0.0,0.0,0.0,0.0,0.0,0.0,0.0,0.0,0.0,0.0,0.0,0.0,0.0,0.0,0.0,0.0,0.0,0.0,0.0,0.0,0.0,0.0,0.0,0.0,0.0,0.0,0.0,0.0,0.0,0.0,0.0,0.0,0.0,0.0,0.0,0.0,0.0,0.0,0.0,0.0,0.0,0.0,0.0,0.0,0.0,0.0,0.0,0.0,0.0,0.0,0.0,0.0,0.0,0.0,0.0,0.0,0.0,0.0,0.0,-0.0,-0.0,-0.0,-0.0,-0.0,-0.0,0.0,0.0,0.0,0.0,0.0,0.0,0.0,0.0,0.0,0.0,0.0,0.0,0.0,0.0,0.0,0.0,0.0,0.0,0.0,0.0,0.0,0.0,0.0,0.0,0.0,0.0,0.0,0.0,0.0,0.0,0.0,0.0,0.0,0.0,0.0,0.0,0.0,0.0,0.0,0.0,0.0,0.0,0.0,0.0,0.0,0.0,0.0,0.0,0.0,0.0,0.0,0.0,0.0,0.0,0.0,0.0,0.0,0.0,0.0,0.0,0.0,0.0,0.0,0.0,0.0,0.0,0.0,0.0,0.0,0.0,0.0,0.0,0.0,0.0,0.0,0.0,0.0,0.0,0.0,0.0,0.0,0.0,0.0,0.0,0.0,0.0,0.0,0.0,0.0,0.0,0.0,0.0,0.0,0.0,0.0,0.0,0.0,0.0,0.0,0.0,0.0,0.0,0.0,0.0,0.0,0.0,0.0,0.0,0.0,-0.0,-0.0,-0.0,-0.0,-0.0,-0.0,-0.0,0.0,0.0,0.0,0.0,0.0,0.0,0.0,0.0,0.0,0.0,0.0,0.0,0.0,0.0,0.0,0.0,0.0,0.0,0.0,0.0,0.0,0.0,0.0,0.0,0.0,0.0,0.0,0.0,0.0,0.0,0.0,0.0,0.0,0.0,0.0,0.0,0.0,0.0,0.0,0.0,0.0,0.0,0.0,0.0,0.0,0.0,0.0,0.0,0.0,0.0,0.0,0.0,0.0,0.0,0.0,0.0,0.0,0.0,0.0,0.0,0.0,0.0,0.0,0.0,0.0,0.0,0.0,0.0,0.0,0.0,0.0,0.0,0.0,0.0,0.0,0.0,0.0,0.0,0.0,0.0,0.0,0.0,0.0,0.0,0.0,0.0,0.0,0.0,0.0,0.0,0.0,0.0,0.0,0.0,0.0,0.0,0.0,0.0,0.0,0.0,0.0,0.0,0.0,0.0,0.0,0.0,0.0,0.0,-0.0,-0.0,-0.0,-0.0,-0.0,-0.0,0.0,0.0,0.0,0.0,0.0,0.0,0.0,0.0,0.0,0.0,0.0,0.0,0.0,0.0,0.0,0.0,0.0,0.0,0.0,0.0,0.0,0.0,0.0,0.0,0.0,0.0,0.0,0.0,0.0,0.0,0.0,0.0,0.0,0.0,0.0,0.0,0.0,0.0,0.0,0.0,0.0,0.0,0.0,0.0,0.0,0.0,0.0,0.0,0.0,0.0,0.0,0.0,0.0,0.0,0.0,0.0,0.0,0.0,0.0,0.0,0.0,0.0,0.0,0.0,0.0,0.0,0.0,0.0,0.0,0.0,0.0,0.0,0.0,0.0,0.0,0.0,0.0,0.0,0.0,0.0,0.0,0.0,0.0,0.0,0.0,0.0,0.0,0.0,0.0,0.0,0.0,0.0,0.0,0.0,0.0,0.0,0.0,0.0,0.0,0.0,0.0,0.0,0.0,0.0,0.0,0.0,0.0,0.0,0.0,-0.0,-0.0,-0.0,-0.0,-0.0,-0.0,0.0,0.0,0.0,0.0,0.0,0.0,0.0,0.0,0.0,0.0,0.0,0.0,0.0,0.0,0.0,0.0,0.0,0.0,0.0,0.0,0.0,0.0,0.0,0.0,0.0,0.0,0.0,0.0,0.0,0.0,0.0,0.0,0.0,0.0,0.0,0.0,0.0,0.0,0.0,0.0,0.0,0.0,0.0,0.0,0.0,0.0,0.0,0.0,0.0,0.0,0.0,0.0,0.0,0.0,0.0,0.0,0.0,0.0,0.0,0.0,0.0,0.0,0.0,0.0,0.0,0.0,0.0,0.0,0.0,0.0,0.0,0.0,0.0,0.0,0.0,0.0,0.0,0.0,0.0,0.0,0.0,0.0,0.0,0.0,0.0,0.0,0.0,0.0,0.0,0.0,0.0,0.0,0.0,0.0,0.0,0.0,0.0,0.0,0.0,0.0,0.0,0.0,0.0,0.0,0.0,0.0,0.0,0.0,-0.0,-0.0,-0.0,-0.0,-0.0,-0.0,-0.0,0.0,0.0,0.0,0.0,0.0,0.0,0.0,0.0,0.0,0.0,0.0,0.0,0.0,0.0,0.0,0.0,0.0,0.0,0.0,0.0,0.0,0.0,0.0,0.0,0.0,0.0,0.0,0.0,0.0,0.0,0.0,0.0,0.0,0.0,0.0,0.0,0.0,0.0,0.0,0.0,0.0,0.0,0.0,0.0,0.0,0.0,0.0,0.0,0.0,0.0,0.0,0.0,0.0,0.0,0.0,0.0,0.0,0.0,0.0,0.0,0.0,0.0,0.0,0.0,0.0,0.0,0.0,0.0,0.0,0.0,0.0,0.0,0.0,0.0,0.0,0.0,0.0,0.0,0.0,0.0,0.0,0.0,0.0,0.0,0.0,0.0,0.0,0.0,0.0,0.0,0.0,0.0,0.0,0.0,0.0,0.0,0.0,0.0,0.0,0.0,0.0,0.0,0.0,0.0,0.0,0.0,0.0,0.0,-0.0,-0.0,-0.0,-0.0,-0.0,-0.0,-0.0,0.0,0.0,0.0,0.0,0.0,0.0,0.0,0.0,0.0,0.0,0.0,0.0,0.0,0.0,0.0,0.0,0.0,0.0,0.0,0.0,0.0,0.0,0.0,0.0,0.0,0.0,0.0,0.0,0.0,0.0,0.0,0.0,0.0,0.0,0.0,0.0,0.0,0.0,0.0,0.0,0.0,0.0,0.0,0.0,0.0,0.0,0.0,0.0,0.0,0.0,0.0,0.0,0.0,0.0,0.0,0.0,0.0,0.0,0.0,0.0,0.0,0.0,0.0,0.0,0.0,0.0,0.0,0.0,0.0,0.0,0.0,0.0,0.0,0.0,0.0,0.0,0.0,0.0,0.0,0.0,0.0,0.0,0.0,0.0,0.0,0.0,0.0,0.0,0.0,0.0,0.0,0.0,0.0,0.0,0.0,0.0,0.0,0.0,0.0,0.0,0.0,0.0,0.0,0.0,0.0,0.0,0.0,0.0,-0.0,-0.0,-0.0,-0.0,-0.0,-0.0,-0.0,0.0,0.0,0.0,0.0,0.0,0.0,0.0,0.0,0.0,0.0,0.0,0.0,0.0,0.0,0.0,0.0,0.0,0.0,0.0,0.0,0.0,0.0,0.0,0.0,0.0,0.0,0.0,0.0,0.0,0.0,0.0,0.0,0.0,0.0,0.0,0.0,0.0,0.0,0.0,0.0,0.0,0.0,0.0,0.0,0.0,0.0,0.0,0.0,0.4463,0.0,0.0,0.0,0.0,0.0,0.0,0.0,0.0,0.0,0.0,0.0,0.0,0.0,0.0,0.0,0.0,0.0,0.0,0.0,0.0,0.0,0.0,0.0,0.0,0.0,0.0,0.0,0.0,0.0,0.0,0.0,0.0,0.0,0.0,0.0,0.0,0.0,0.0,0.0,0.0,0.0,0.0,0.0,0.0,0.0,0.0,0.0,0.0,0.0,0.0,0.0,0.0,0.0,0.0,0.0,0.0,0.0,0.0,0.0,-0.0,-0.0,-0.0,-0.0,-0.0,-0.0,-0.0,0.0,0.0,0.0,0.0,0.0,0.0,0.0,0.0,0.0,0.0,0.0,0.0,0.0,0.0,0.0,0.0,0.0,0.0,0.0,0.0,0.0,0.0,0.0,0.0,0.0,0.0,0.0,0.0,0.0,0.0,0.0,0.0,0.0,0.0,0.0,0.0,0.0,0.0,0.0,0.0,0.0,0.0,0.0,0.0,0.0,0.0,0.0,0.0,0.0,0.0,0.0,0.0,0.0,0.0,0.0,0.0,0.0,0.0,0.0,0.0,0.0,0.0,0.0,0.0,0.0,0.0,0.0,0.0,0.0,0.0,0.0,0.0,0.0,0.0,0.0,0.0,0.0,0.0,0.0,0.0,0.0,0.0,0.0,0.0,0.0,0.0,0.0,0.0,0.0,0.0,0.0,0.0,0.0,0.0,0.0,0.0,0.0,0.0,0.0,0.0,0.0,0.0,0.0,0.0,0.0,0.0,0.0,-0.0,-0.0,-0.0,-0.0,-0.0,-0.0,-0.0,-0.0,-0.0,0.0,0.0,0.0,0.0,0.0,0.0,0.0,0.0,0.0,0.0,0.0,0.0,0.0,0.0,0.0,0.0,0.0,0.0,0.0,0.0,0.0,0.0,0.0,0.0,0.0,0.0,0.0,0.0,0.0,0.0,0.0,0.0,0.0,0.0,0.0,0.0,0.0,0.0,0.2108,0.3366,0.0,0.0,0.0,0.0,0.0,0.0,0.0,0.0,0.457,0.0,0.0,0.0,0.0,0.0,0.0,0.0,0.0,0.0,0.0,0.0,0.0,0.0,0.0,0.0,0.0,0.0,0.0,0.0,0.0,0.0,0.0,0.0,0.0,0.0,0.0,0.0,0.0,0.0,0.0,0.0,0.0,0.0,0.0,0.0,0.0,0.0,0.0,0.0,0.0,0.0,0.0,0.0,0.0,0.0,0.0,0.0,0.0,0.0,0.0,0.0,0.0,0.0,0.0,0.0,0.0,-0.0,-0.0,-0.0,-0.0,-0.0,-0.0,-0.0,-0.0,-0.0,-0.0,0.0,0.0,0.0,0.0,0.0,0.0,0.0,0.0,0.0,0.0,0.0,0.0,0.0,0.0,0.0,0.0,0.0,0.0,0.0,0.0,0.0,0.0,0.0,0.0,0.0,0.0,0.0,0.0,0.0,0.0,0.0,0.0,0.0,0.0,0.0,0.0,0.0,0.0,0.0,0.41,0.4471,0.0,0.0,0.0,0.0,0.0,0.0,0.0,0.0,0.5378,0.0,0.0,0.0,0.0,0.0,0.0,0.0,0.0,0.0,0.0,0.0,0.0,0.0,0.0,0.0,0.0,0.0,0.0,0.0,0.0,0.0,0.0,0.0,0.0,0.0,0.0,0.0,0.0,0.0,0.0,0.0,0.0,0.0,0.0,0.0,0.0,0.0,0.0,0.0,0.0,0.0,0.0,0.0,0.0,0.0,0.0,0.0,0.0,0.0,0.0,0.0,0.0,0.0,0.0,0.0,-0.0,-0.0,-0.0,-0.0,-0.0,-0.0,-0.0,-0.0,-0.0,0.0,0.0,0.0,0.0,0.0,0.0,0.0,0.0,0.0,0.0,0.0,0.0,0.0,0.0,0.0,0.0,0.0,0.0,0.0,0.0,0.0,0.0,0.0,0.0,0.0,0.0,0.0,0.0,0.0,0.0,0.0,0.0,0.0,0.0,0.0,0.0,0.0,0.0,0.0,0.0,0.4264,0.4357,0.4505,0.0,0.0,0.0,0.0,0.0,0.0,0.4787,0.5218,0.0,0.0,0.0,0.0,0.0,0.0,0.0,0.0,0.0,0.0,0.0,0.0,0.0,0.0,0.0,0.0,0.0,0.0,0.0,0.0,0.0,0.0,0.0,0.0,0.0,0.0,0.0,0.0,0.0,0.0,0.0,0.0,0.0,0.0,0.0,0.0,0.0,0.0,0.0,0.0,0.0,0.0,0.0,0.0,0.0,0.0,0.0,0.0,0.0,0.0,0.0,0.0,0.0,0.0,0.0,-0.0,-0.0,-0.0,-0.0,-0.0,-0.0,-0.0,-0.0,-0.0,0.0,0.0,0.0,0.0,0.0,0.0,0.0,0.0,0.0,0.0,0.0,0.0,0.0,0.0,0.0,0.0,0.0,0.0,0.0,0.0,0.0,0.0,0.0,0.0,0.0,0.0,0.0,0.0,0.0,0.0,0.0,0.0,0.0,0.0,0.0,0.0,0.0,0.0,0.0,0.0,0.0,0.4334,0.4498,0.4463,0.0,0.0,0.0,0.0,0.4849,0.4791,0.0,0.0,0.0,0.0,0.0,0.0,0.0,0.0,0.0,0.0,0.0,0.0,0.0,0.0,0.0,0.0,0.0,0.0,0.0,0.0,0.0,0.0,0.0,0.0,0.0,0.0,0.0,0.0,0.0,0.0,0.0,0.0,0.0,0.0,0.0,0.0,0.0,0.0,0.0,0.0,0.0,0.0,0.0,0.0,0.0,0.0,0.0,0.0,0.0,0.0,0.0,0.0,0.0,0.0,0.0,0.0,-0.0,-0.0,-0.0,-0.0,-0.0,-0.0,-0.0,-0.0,-0.0,0.0,0.0,0.0,0.0,0.0,0.0,0.0,0.0,0.0,0.0,0.0,0.0,0.0,0.0,0.0,0.0,0.0,0.0,0.0,0.0,0.0,0.0,0.0,0.0,0.0,0.0,0.0,0.0,0.0,0.0,0.0,0.0,0.0,0.0,0.0,0.0,0.0,0.0,0.0,0.0,0.0,0.4501,0.446,0.4463,0.4463,0.0,0.0,0.4959,0.6132,0.5832,0.0,0.0,0.0,0.0,0.0,0.0,0.0,0.0,0.0,0.0,0.0,0.0,0.0,0.0,0.0,0.0,0.0,0.0,0.0,0.0,0.0,0.0,0.0,0.0,0.0,0.0,0.0,0.0,0.0,0.0,0.0,0.0,0.0,0.0,0.0,0.0,0.0,0.0,0.0,0.0,0.0,0.0,0.0,0.0,0.0,0.0,0.0,0.0,0.0,0.0,0.0,0.0,0.0,0.0,0.0,-0.0,-0.0,-0.0,-0.0,-0.0,-0.0,-0.0,-0.0,-0.0,-0.0,0.0,0.0,0.0,0.0,0.0,0.0,0.0,0.0,0.0,0.0,0.0,0.0,0.0,0.0,0.0,0.0,0.0,0.0,0.0,0.0,0.0,0.0,0.0,0.0,0.0,0.0,0.0,0.0,0.0,0.0,0.0,0.0,0.0,0.0,0.0,0.0,0.0,0.0,0.0,0.0,0.0,0.0,0.4463,0.4463,0.0,0.0,0.0,0.4684,0.5297,0.0,0.0,0.0,0.0,0.0,0.0,0.0,0.0,0.0,0.0,0.0,0.0,0.0,0.0,0.0,0.0,0.0,0.0,0.0,0.0,0.0,0.0,0.0,0.0,0.0,0.0,0.0,0.0,0.0,0.0,0.0,0.0,0.0,0.0,0.0,0.0,0.0,0.0,0.0,0.0,0.0,0.0,0.0,0.0,0.0,0.0,0.0,0.0,0.0,0.0,0.0,0.0,0.0,0.0,0.0,0.0,0.0,-0.0,-0.0,-0.0,-0.0,-0.0,-0.0,-0.0,-0.0,0.0,0.0,0.0,0.0,0.0,0.0,0.0,0.0,0.0,0.0,0.0,0.0,0.0,0.0,0.0,0.0,0.0,0.0,0.0,0.0,0.0,0.0,0.0,0.0,0.0,0.0,0.0,0.4463,0.0,0.0,0.0,0.0,0.0,0.0,0.0,0.0,0.0,0.0,0.0,0.0,0.0,0.0,0.4463,0.4463,0.4463,0.4463,0.0,0.0,0.446,0.4505,0.4673,0.5058,0.0,0.0,0.0,0.0,0.0,0.0,0.0,0.0,0.0,0.0,0.0,0.0,0.0,0.0,0.0,0.0,0.0,0.0,0.0,0.0,0.0,0.0,0.0,0.0,0.0,0.0,0.0,0.0,0.0,0.0,0.0,0.0,0.0,0.0,0.0,0.0,0.0,0.0,0.0,0.0,0.0,0.0,0.0,0.0,0.0,0.0,0.0,0.0,0.0,0.0,0.0,0.0,0.0,0.0,0.0,-0.0,-0.0,-0.0,-0.0,-0.0,-0.0,-0.0,-0.0,-0.0,0.0,0.0,0.0,0.0,0.0,0.0,0.0,0.0,0.0,0.0,0.0,0.0,0.0,0.0,0.0,0.0,0.0,0.0,0.0,0.0,0.0,0.0,0.0,0.0,0.0,0.0,0.0,0.0,0.0,0.0,0.0,0.0,0.0,0.0,0.0,0.0,0.0,0.0,0.0,0.0,0.0,0.4463,0.4463,0.4463,0.4463,0.0,0.0,0.4505,0.447,0.5031,0.5919,0.7289,0.0,0.0,0.0,0.0,0.0,0.0,0.0,0.0,0.0,0.0,0.0,0.0,0.0,0.0,0.0,0.0,0.0,0.0,0.0,0.0,0.0,0.0,0.0,0.0,0.0,0.0,0.0,0.0,0.0,0.0,0.0,0.0,0.0,0.0,0.0,0.0,0.0,0.0,0.0,0.0,0.0,0.0,0.0,0.0,0.0,0.0,0.0,0.0,0.0,0.0,0.0,0.0,0.0,-0.0,-0.0,-0.0,-0.0,-0.0,-0.0,-0.0,-0.0,-0.0,-0.0,0.0,0.0,0.0,0.0,0.0,0.0,0.0,0.0,0.0,0.0,0.0,0.0,0.0,0.0,0.0,0.0,0.0,0.0,0.0,0.0,0.0,0.0,0.0,0.0,0.0,0.0,0.0,0.0,0.4463,0.4463,0.4463,0.0,0.0,0.0,0.0,0.0,0.0,0.0,0.0,0.0,0.0,0.4463,0.4463,0.4463,0.0,0.0,0.4463,0.4791,0.5664,0.5601,0.5873,0.6858,0.7402,0.0,0.0,0.0,0.0,0.0,0.0,0.0,0.0,0.0,0.0,0.0,0.0,0.0,0.0,0.0,0.0,0.0,0.0,0.0,0.0,0.0,0.0,0.0,0.0,0.0,0.0,0.0,0.0,0.0,0.0,0.0,0.0,0.0,0.0,0.0,0.0,0.0,0.0,0.0,0.0,0.0,0.0,0.0,0.0,0.0,0.0,0.0,0.0,0.0,0.0,0.0,0.0,-0.0,-0.0,-0.0,-0.0,-0.0,-0.0,-0.0,-0.0,-0.0,-0.0,0.0,0.0,0.0,0.0,0.0,0.0,0.0,0.0,0.0,0.0,0.0,0.0,0.0,0.0,0.0,0.0,0.0,0.0,0.0,0.0,0.0,0.0,0.0,0.0,0.0,0.0,0.0,0.0,0.4463,0.4463,0.4463,0.0,0.0,0.0,0.0,0.0,0.0,0.0,0.0,0.0,0.0,0.4463,0.4519,0.4677,0.4728,0.4505,0.4838,0.5504,0.6455,0.5991,0.5764,0.6475,0.0,0.0,0.0,0.0,0.0,0.0,0.0,0.0,0.0,0.0,0.0,0.0,0.0,0.0,0.0,0.0,0.0,0.0,0.0,0.0,0.0,0.0,0.0,0.0,0.0,0.0,0.0,0.0,0.0,0.0,-0.0,0.0,0.0,0.0,0.0,0.0,0.0,0.0,0.0,0.0,0.0,0.0,0.0,0.0,0.0,0.0,0.0,0.0,0.0,0.0,0.0,0.0,0.0,-0.0,-0.0,-0.0,-0.0,-0.0,-0.0,-0.0,-0.0,-0.0,-0.0,-0.0,0.0,0.0,0.0,0.0,0.0,0.0,0.0,0.0,0.0,0.0,0.0,0.0,0.0,0.0,0.0,0.0,0.0,0.0,0.0,0.0,0.0,0.0,0.0,0.0,0.0,0.0,0.4463,0.4463,0.4463,0.0,0.0,0.0,0.0,0.0,0.0,0.0,0.0,0.0,0.0,0.4463,0.4463,0.4519,0.5058,0.5206,0.4692,0.5638,0.6534,0.6593,0.5982,0.576,0.0,0.0,0.0,0.0,0.0,0.0,0.0,0.0,0.0,0.0,0.0,0.0,0.0,0.0,0.0,0.0,0.0,0.0,0.0,0.0,0.0,0.0,0.0,0.0,0.0,0.0,0.0,-0.0,-0.0,0.0,0.0,0.0,0.0,0.0,0.0,0.0,0.0,0.0,0.0,0.0,-0.0,-0.0,0.0,0.0,0.0,0.0,0.0,0.0,0.0,0.0,0.0,0.0,0.0,0.0,-0.0,-0.0,-0.0,-0.0,-0.0,-0.0,-0.0,-0.0,-0.0,-0.0,-0.0,0.0,0.0,0.0,0.0,0.0,0.0,0.0,0.0,0.0,0.0,0.0,0.0,0.0,0.0,0.0,0.0,0.0,0.0,0.0,0.0,0.0,0.0,0.0,0.0,0.0,0.4463,0.0,0.0,0.0,0.0,0.0,0.0,0.0,0.0,0.0,0.0,0.0,0.4463,0.4463,0.4463,0.4463,0.4463,0.4677,0.5415,0.0,0.0,0.0,0.0,0.0,0.0,0.0,0.0,0.0,0.0,0.0,0.0,0.0,0.0,0.8804,0.8804,0.8804,0.8804,0.8804,0.0,0.0,0.0,0.0,0.0,0.0,0.0,0.0,0.0,0.0,0.0,0.0,0.0,0.0,-0.0,0.0,-0.0,0.0,0.0,0.0,0.0,0.0,0.0,0.0,0.0,-0.0,-0.0,-0.0,-0.0,-0.0,0.0,-0.0,-0.0,0.0,0.0,0.0,0.0,0.0,0.0,0.0,0.0,-0.0,-0.0,-0.0,-0.0,-0.0,-0.0,-0.0,-0.0,-0.0,-0.0,-0.0,-0.0,-0.0,0.0,0.0,0.0,0.0,0.0,0.0,0.0,0.0,0.0,0.0,0.0,0.0,0.0,0.0,0.0,0.0,0.0,0.0,0.0,0.0,0.0,0.0,0.0,0.4619,0.0,0.0,0.0,0.0,0.0,0.0,0.0,0.0,0.0,0.4529,0.4463,0.4463,0.4463,0.4463,0.448,0.4475,0.0,0.0,0.0,0.0,0.0,0.0,0.0,0.6814,0.6865,0.7032,0.7234,0.7373,0.7782,0.8209,0.8699,0.0,0.0,0.8752,0.8804,0.8804,0.8804,0.8804,0.8804,0.8804,0.8804,0.8804,0.0,0.0,0.0,0.0,0.0,0.0,0.0,0.0,-0.0,-0.0,0.0,-0.0,0.0,0.0,0.0,0.0,0.0,-0.0,0.0,0.0,-0.0,-0.0,-0.0,-0.0,-0.0,-0.0,-0.0,-0.0,-0.0,-0.0,0.0,0.0,0.0,0.0,0.0,0.0,-0.0,-0.0,-0.0,-0.0,-0.0,-0.0,-0.0,-0.0,-0.0,-0.0,-0.0,-0.0,-0.0,-0.0,-0.0,0.0,0.0,0.0,0.0,0.0,0.0,0.0,0.0,0.0,0.0,0.0,0.0,0.0,0.0,0.0,0.0,0.0,0.0,0.0,0.0,0.483,0.0,0.0,0.0,0.0,0.0,0.0,0.0,0.0,0.0,0.0,0.4524,0.4539,0.4532,0.448,0.0,0.0,0.0,0.0,0.5482,0.472,0.5955,0.6492,0.518,0.6223,0.722,0.7166,0.0,0.0,0.6768,0.6734,0.7139,0.848,0.8156,0.7943,0.8646,0.8824,0.8824,0.8804,0.8824,0.8824,0.8804,0.8804,0.8804,-0.0,0.0,0.0,0.0,0.0,-0.0,-0.0,-0.0,-0.0,-0.0,-0.0,-0.0,0.0,0.0,0.0,0.0,0.0,0.0,-0.0,-0.0,-0.0,-0.0,-0.0,-0.0,-0.0,-0.0,-0.0,-0.0,-0.0,-0.0,-0.0,-0.0,0.0,0.0,0.0,0.0,-0.0,-0.0,-0.0,-0.0,-0.0,-0.0,-0.0,-0.0,-0.0,-0.0,-0.0,-0.0,-0.0,-0.0,-0.0,0.0,0.0,0.0,0.0,0.0,0.0,0.0,0.0,0.0,0.0,0.0,0.0,0.0,0.0,0.0,0.0,0.0,0.0,0.0,0.4853,0.4894,0.4982,0.0,0.0,0.0,0.0,0.0,0.0,0.0,0.0,0.0,0.4799,0.4789,0.4789,0.0,0.0,0.4743,0.454,0.4843,0.5164,0.5147,0.5332,0.0,0.5264,0.5868,0.6229,0.5695,0.5812,0.6049,0.6089,0.6516,0.7102,0.7866,0.783,0.7943,0.8652,0.8931,0.8977,0.8878,0.8971,0.8984,0.8858,0.8804,0.8804,-0.0,-0.0,-0.0,-0.0,-0.0,-0.0,-0.0,-0.0,-0.0,-0.0,-0.0,-0.0,-0.0,-0.0,-0.0,0.0,0.0,0.0,-0.0,-0.0,-0.0,-0.0,-0.0,-0.0,-0.0,-0.0,-0.0,-0.0,-0.0,-0.0,-0.0,-0.0,0.0,0.0,-0.0,-0.0,-0.0,-0.0,-0.0,-0.0,-0.0,-0.0,-0.0,-0.0,-0.0,-0.0,-0.0,-0.0,-0.0,-0.0,-0.0,-0.0,0.0,0.0,0.0,0.0,0.0,0.0,0.0,0.0,0.0,0.0,0.0,0.4809,0.0,0.0,0.0,0.0,0.4969,0.5026,0.5087,0.5094,0.0,0.0,0.0,0.0,0.0,0.0,0.0,0.5224,0.5161,0.5094,0.5091,0.5094,0.505,0.4935,0.4918,0.4813,0.4677,0.0,0.5088,0.5342,0.5227,0.5157,0.5357,0.5903,0.6141,0.5712,0.6142,0.6549,0.6488,0.6914,0.7538,0.8075,0.823,0.8262,0.8699,0.9045,0.9097,0.8878,0.8945,0.8998,0.8831,0.8804,0.8804,-0.0,-0.0,-0.0,-0.0,-0.0,-0.0,-0.0,-0.0,-0.0,-0.0,-0.0,-0.0,-0.0,-0.0,-0.0,0.0,-0.0,-0.0,-0.0,-0.0,-0.0,-0.0,-0.0,-0.0,-0.0,-0.0,-0.0,-0.0,-0.0,-0.0,-0.0,-0.0,-0.0,-0.0,-0.0,-0.0,-0.0,-0.0,-0.0,-0.0,-0.0,-0.0,-0.0,-0.0,-0.0,-0.0,-0.0,-0.0,-0.0,-0.0,-0.0,-0.0,-0.0,0.0,0.0,0.0,0.0,0.0,0.0,0.0,0.0,0.0,0.0,0.0,0.0,0.0,0.0,0.0,0.5108,0.0,0.5382,0.5396,0.0,0.0,0.0,0.5463,0.5463,0.5463,0.5396,0.5396,0.0,0.0,0.5379,0.5435,0.5325,0.4992,0.4955,0.4941,0.4934,0.5021,0.5203,0.5394,0.5422,0.5425,0.5397,0.5982,0.6424,0.6424,0.7022,0.7149,0.7154,0.7333,0.7932,0.8596,0.8667,0.8533,0.8646,0.8856,0.9009,0.8798,0.8838,0.8858,0.8818,0.8804,0.8804,-0.0,-0.0,-0.0,-0.0,-0.0,-0.0,-0.0,-0.0,-0.0,-0.0,-0.0,-0.0,-0.0,-0.0,-0.0,-0.0,-0.0,-0.0,-0.0,-0.0,-0.0,-0.0,-0.0,-0.0,-0.0,-0.0,-0.0,-0.0,-0.0,-0.0,-0.0,-0.0,-0.0,-0.0,-0.0,-0.0,-0.0,-0.0,-0.0,-0.0,-0.0,-0.0,-0.0,-0.0,-0.0,-0.0,-0.0,-0.0,-0.0,-0.0,-0.0,-0.0,-0.0,-0.0,0.0,0.0,0.0,0.0,0.0,0.0,0.0,0.0,0.0,0.5312,0.5433,0.0,0.5428,0.0,0.5623,0.5584,0.5403,0.555,0.0,0.0,0.5553,0.5694,0.5624,0.5624,0.5624,0.5698,0.553,0.5463,0.5535,0.5437,0.5404,0.5267,0.5257,0.527,0.5301,0.5304,0.5318,0.5422,0.5435,0.5428,0.5432,0.5557,0.5756,0.5686,0.5847,0.5849,0.5717,0.5655,0.5821,0.6425,0.6447,0.6696,0.7783,0.7997,0.829,0.8679,0.8978,0.901,0.8858,0.8804,0.8804,-0.0,-0.0,-0.0,-0.0,-0.0,-0.0,-0.0,-0.0,-0.0,-0.0,-0.0,-0.0,-0.0,-0.0,-0.0,-0.0,-0.0,-0.0,-0.0,-0.0,-0.0,-0.0,-0.0,-0.0,-0.0,-0.0,-0.0,-0.0,-0.0,-0.0,-0.0,-0.0,-0.0,-0.0,-0.0,-0.0,-0.0,-0.0,-0.0,-0.0,-0.0,-0.0,-0.0,-0.0,-0.0,-0.0,-0.0,-0.0,-0.0,-0.0,-0.0,-0.0,-0.0,-0.0,-0.0,0.0,0.0,0.0,0.0,0.0,0.0,0.0,0.0,0.0,0.0,0.0,0.571,0.5789,0.58,0.5728,0.5581,0.5728,0.58,0.58,0.58,0.5875,0.595,0.5875,0.5728,0.58,0.5803,0.5755,0.5681,0.561,0.5559,0.5559,0.5555,0.5508,0.5456,0.5428,0.5452,0.5589,0.5531,0.5531,0.5531,0.5473,0.5428,0.5428,0.5428,0.546,0.5754,0.5609,0.5831,0.6854,0.6952,0.7109,0.8136,0.839,0.8473,0.8698,0.8931,0.8971,0.8838,0.8804,0.8804,-0.0,-0.0,-0.0,-0.0,-0.0,-0.0,-0.0,-0.0,-0.0,-0.0,-0.0,-0.0,-0.0,-0.0,-0.0,-0.0,-0.0,-0.0,-0.0,-0.0,-0.0,-0.0,-0.0,-0.0,-0.0,-0.0,-0.0,-0.0,-0.0,-0.0,-0.0,-0.0,-0.0,-0.0,-0.0,-0.0,-0.0,-0.0,-0.0,-0.0,-0.0,-0.0,-0.0,-0.0,-0.0,-0.0,-0.0,-0.0,-0.0,-0.0,-0.0,-0.0,-0.0,-0.0,-0.0,0.0,-0.0,0.0,0.0,0.0,0.0,0.0,0.0,0.0,0.0,0.5943,0.6013,0.5833,0.5847,0.5861,0.5861,0.5861,0.6009,0.6234,0.6009,0.6009,0.6237,0.6009,0.5861,0.5861,0.614,0.6129,0.583,0.5817,0.58,0.5783,0.5776,0.5694,0.5481,0.5437,0.5552,0.5745,0.5759,0.5682,0.5645,0.5545,0.5456,0.5502,0.5624,0.5881,0.6715,0.6621,0.6862,0.8137,0.8252,0.8387,0.8989,0.9036,0.8987,0.8878,0.8864,0.8831,0.8811,0.8804,0.8804,-0.0,-0.0,-0.0,-0.0,-0.0,-0.0,-0.0,-0.0,-0.0,-0.0,-0.0,-0.0,-0.0,-0.0,-0.0,-0.0,-0.0,-0.0,-0.0,-0.0,-0.0,-0.0,-0.0,-0.0,-0.0,-0.0,-0.0,-0.0,-0.0,-0.0,-0.0,-0.0,-0.0,-0.0,-0.0,0.0,0.0,0.0,-0.0,-0.0,-0.0,-0.0,-0.0,-0.0,-0.0,0.0,-0.0,-0.0,-0.0,-0.0,-0.0,0.0,0.0,0.0,0.0,0.0,0.0,0.0,0.0,0.0,0.0,0.0,0.5325,0.5105,0.5894,0.6112,0.6125,0.6003,0.6101,0.6173,0.6173,0.6176,0.6249,0.6252,0.6249,0.6252,0.6252,0.6246,0.6173,0.6173,0.6293,0.6215,0.5983,0.5881,0.581,0.582,0.5803,0.5779,0.5728,0.5711,0.5654,0.5755,0.5834,0.5867,0.5676,0.5566,0.5755,0.625,0.6461,0.6724,0.7428,0.7463,0.7374,0.7933,0.7749,0.7898,0.8539,0.8543,0.8559,0.8993,0.8911,0.8804,0.8804,0.8804,0.8804,-0.0,0.0,-0.0,-0.0,0.0,-0.0,-0.0,-0.0,-0.0,-0.0,-0.0,-0.0,-0.0,-0.0,-0.0,-0.0,-0.0,-0.0,-0.0,-0.0,-0.0,-0.0,-0.0,-0.0,-0.0,-0.0,-0.0,-0.0,-0.0,-0.0,-0.0,-0.0,-0.0,-0.0,-0.0,-0.0,-0.0,-0.0,-0.0,-0.0,-0.0,-0.0,-0.0,-0.0,-0.0,0.0,0.0,0.0,0.0,0.0,0.0,0.0,0.0,0.0,0.0,-0.0,-0.0,-0.0,-0.0,0.2017,0.3872,0.5323,0.5647,0.597,0.6307,0.6437,0.6413,0.6268,0.6318,0.6414,0.6345,0.6261,0.6261,0.6261,0.6261,0.6261,0.6261,0.6261,0.6261,0.6254,0.6273,0.6222,0.6142,0.6084,0.603,0.6027,0.6027,0.6023,0.601,0.5891,0.582,0.5974,0.5991,0.5967,0.5813,0.5667,0.5707,0.6082,0.6066,0.621,0.6662,0.6651,0.6706,0.7081,0.7124,0.7283,0.7891,0.7876,0.7908,0.8391,0.8396,0.844,0.8699,0.8804,0.8804,-0.0,-0.0,-0.0,-0.0,-0.0,-0.0,-0.0,-0.0,0.0,0.0,0.0,-0.0,-0.0,-0.0,-0.0,-0.0,-0.0,-0.0,-0.0,-0.0,-0.0,-0.0,-0.0,-0.0,-0.0,-0.0,-0.0,-0.0,-0.0,-0.0,-0.0,-0.0,-0.0,-0.0,-0.0,-0.0,-0.0,-0.0,-0.0,-0.0,-0.0,-0.0,-0.0,-0.0,-0.0,-0.0,-0.0,-0.0,-0.0,-0.0,-0.0,-0.0,-0.0,-0.0,-0.0,-0.0,-0.0,-0.0,-0.0,-0.0,0.1023,0.3502,0.5817,0.6986,0.6719,0.6709,0.6654,0.6532,0.6515,0.6464,0.6349,0.6339,0.6335,0.6335,0.6315,0.6298,0.6298,0.6271,0.6261,0.6261,0.6254,0.6257,0.6254,0.6247,0.6261,0.6257,0.6234,0.6261,0.623,0.6047,0.6022,0.62,0.6149,0.6064,0.6,0.5844,0.5727,0.5924,0.5812,0.5726,0.5826,0.5885,0.6141,0.6963,0.6915,0.7223,0.7714,0.7812,0.7752,0.8148,0.8074,0.8158,0.8599,0.8804,0.8804,-0.0,-0.0,-0.0,-0.0,-0.0,-0.0,-0.0,-0.0,-0.0,-0.0,-0.0,-0.0,-0.0,-0.0,-0.0,-0.0,-0.0,-0.0,-0.0,-0.0,-0.0,-0.0,-0.0,-0.0,-0.0,-0.0,-0.0,-0.0,-0.0,-0.0,-0.0,-0.0,-0.0,-0.0,-0.0,-0.0,-0.0,-0.0,-0.0,-0.0,-0.0,-0.0,-0.0,-0.0,-0.0,-0.0,-0.0,-0.0,-0.0,-0.0,-0.0,-0.0,-0.0,-0.0,-0.0,-0.0,-0.0,-0.0,-0.0,-0.0,0.0178,0.0799,0.463,0.6957,0.6773,0.6739,0.6805,0.6785,0.6678,0.6579,0.6384,0.6542,0.6535,0.6365,0.6431,0.6441,0.6361,0.6264,0.6278,0.6285,0.6261,0.6268,0.6274,0.6271,0.6271,0.6261,0.6261,0.6261,0.6254,0.6304,0.6283,0.63,0.6304,0.6169,0.6071,0.6006,0.6071,0.6644,0.6587,0.6634,0.7095,0.7195,0.7251,0.7702,0.7507,0.7877,0.8612,0.8805,0.8655,0.8995,0.8921,0.8899,0.8871,0.8871,0.8838,-0.0,-0.0,-0.0,-0.0,-0.0,-0.0,-0.0,-0.0,-0.0,-0.0,-0.0,-0.0,-0.0,-0.0,-0.0,-0.0,-0.0,-0.0,-0.0,-0.0,-0.0,-0.0,-0.0,-0.0,-0.0,-0.0,-0.0,-0.0,-0.0,-0.0,-0.0,-0.0,-0.0,-0.0,-0.0,-0.0,-0.0,-0.0,-0.0,-0.0,-0.0,-0.0,-0.0,-0.0,-0.0,-0.0,-0.0,-0.0,-0.0,-0.0,-0.0,-0.0,-0.0,-0.0,-0.0,-0.0,-0.0,-0.0,-0.0,-0.0,-0.0,-0.0,0.1974,0.3748,0.4906,0.5489,0.6061,0.6861,0.6834,0.6706,0.6542,0.6615,0.6698,0.6702,0.6634,0.6597,0.6508,0.6377,0.6334,0.6498,0.6498,0.6468,0.6383,0.6455,0.6339,0.6281,0.6261,0.6261,0.6261,0.6261,0.6261,0.6261,0.6257,0.6234,0.6162,0.6078,0.612,0.6403,0.6312,0.6321,0.6684,0.668,0.6609,0.6597,0.6601,0.6732,0.7181,0.7399,0.7727,0.8359,0.8792,0.8852,0.9138,0.9279,0.9172,-0.0,-0.0,-0.0,-0.0,-0.0,-0.0,-0.0,-0.0,-0.0,-0.0,-0.0,-0.0,-0.0,-0.0,-0.0,-0.0,-0.0,-0.0,-0.0,-0.0,-0.0,-0.0,-0.0,-0.0,-0.0,-0.0,-0.0,-0.0,-0.0,-0.0,-0.0,-0.0,-0.0,-0.0,-0.0,-0.0,-0.0,-0.0,-0.0,-0.0,-0.0,-0.0,-0.0,-0.0,-0.0,-0.0,-0.0,-0.0,-0.0,-0.0,-0.0,-0.0,-0.0,-0.0,-0.0,-0.0,-0.0,-0.0,-0.0,-0.0,-0.0,-0.0,-0.0,0.0809,0.2609,0.3849,0.5237,0.6757,0.699,0.6929,0.6834,0.6807,0.6884,0.7059,0.6937,0.6753,0.6749,0.6552,0.6443,0.6698,0.6785,0.6733,0.6634,0.6491,0.641,0.6291,0.6261,0.6261,0.6261,0.6261,0.6261,0.6261,0.6261,0.6257,0.6254,0.6166,0.6074,0.6044,0.585,0.5832,0.5741,0.5549,0.5466,0.5579,0.5491,0.555,0.5536,0.6298,0.7133,0.7928,0.8626,0.9153,0.953,0.9633,0.9552,-0.0,-0.0,-0.0,-0.0,-0.0,-0.0,-0.0,-0.0,-0.0,-0.0,-0.0,-0.0,-0.0,-0.0,-0.0,-0.0,-0.0,-0.0,-0.0,-0.0,-0.0,-0.0,-0.0,-0.0,-0.0,-0.0,-0.0,-0.0,-0.0,-0.0,-0.0,-0.0,-0.0,-0.0,-0.0,-0.0,-0.0,-0.0,-0.0,-0.0,-0.0,-0.0,-0.0,-0.0,-0.0,-0.0,-0.0,-0.0,-0.0,-0.0,-0.0,-0.0,-0.0,-0.0,-0.0,-0.0,-0.0,-0.0,-0.0,-0.0,-0.0,-0.0,-0.0,-0.0,-0.0,0.2508,0.4648,0.6532,0.7058,0.7099,0.7011,0.7085,0.7068,0.7054,0.6973,0.6909,0.6984,0.6783,0.6698,0.6698,0.6906,0.6954,0.6761,0.6573,0.643,0.6305,0.6288,0.6274,0.6261,0.6261,0.6261,0.6261,0.6261,0.6261,0.6257,0.6254,0.6176,0.6067,0.6013,0.5874,0.5701,0.5596,0.5535,0.5494,0.5428,0.5415,0.5723,0.6664,0.7845,0.809,0.8857,0.976,0.9721,0.9616,0.9447,-0.0,-0.0,-0.0,-0.0,-0.0,-0.0,-0.0,-0.0,-0.0,-0.0,-0.0,-0.0,-0.0,-0.0,-0.0,-0.0,-0.0,-0.0,-0.0,-0.0,-0.0,-0.0,-0.0,-0.0,-0.0,-0.0,-0.0,-0.0,-0.0,-0.0,-0.0,-0.0,-0.0,-0.0,-0.0,-0.0,-0.0,-0.0,-0.0,-0.0,-0.0,-0.0,-0.0,-0.0,-0.0,-0.0,-0.0,-0.0,-0.0,-0.0,-0.0,-0.0,-0.0,-0.0,-0.0,-0.0,-0.0,-0.0,-0.0,-0.0,-0.0,-0.0,-0.0,-0.0,-0.0,0.2319,0.4824,0.6872,0.7178,0.7139,0.7143,0.7139,0.7139,0.7132,0.7085,0.7054,0.7054,0.7,0.6963,0.6959,0.7049,0.7011,0.6837,0.6702,0.6552,0.6424,0.6386,0.6366,0.6285,0.6261,0.6261,0.6261,0.6261,0.6261,0.6261,0.6261,0.6227,0.6169,0.6084,0.5952,0.5874,0.5674,0.5562,0.5569,0.5504,0.5446,0.5411,0.6248,0.733,0.7805,0.826,0.8805,0.8708,0.8691,0.8697,-0.0,-0.0,-0.0,-0.0,-0.0,-0.0,-0.0,-0.0,-0.0,-0.0,-0.0,-0.0,-0.0,-0.0,-0.0,-0.0,-0.0,-0.0,-0.0,-0.0,-0.0,-0.0,-0.0,-0.0,-0.0,-0.0,-0.0,-0.0,-0.0,-0.0,-0.0,-0.0,-0.0,-0.0,-0.0,-0.0,-0.0,-0.0,-0.0,-0.0,-0.0,-0.0,-0.0,-0.0,-0.0,-0.0,-0.0,-0.0,-0.0,-0.0,-0.0,-0.0,-0.0,-0.0,-0.0,-0.0,-0.0,-0.0,-0.0,-0.0,-0.0,-0.0,-0.0,-0.0,-0.0,0.2471,0.5041,0.7335,0.7414,0.7265,0.7115,0.7074,0.7143,0.7139,0.7139,0.7139,0.7136,0.7139,0.7129,0.7139,0.7112,0.7088,0.6949,0.6827,0.6705,0.6573,0.6536,0.6481,0.6356,0.6322,0.6393,0.6349,0.6261,0.6261,0.6261,0.6261,0.6261,0.6244,0.6156,0.6091,0.6047,0.582,0.5597,0.559,0.5542,0.5535,0.5518,0.6089,0.6819,0.712,0.7497,0.7947,0.8158,0.8011,0.8011,-0.0,-0.0,-0.0,-0.0,-0.0,-0.0,-0.0,-0.0,-0.0,-0.0,-0.0,-0.0,-0.0,-0.0,-0.0,-0.0,-0.0,-0.0,-0.0,-0.0,-0.0,-0.0,-0.0,-0.0,-0.0,-0.0,-0.0,-0.0,-0.0,-0.0,-0.0,-0.0,-0.0,-0.0,-0.0,-0.0,-0.0,-0.0,-0.0,-0.0,-0.0,-0.0,-0.0,-0.0,-0.0,-0.0,-0.0,-0.0,-0.0,-0.0,-0.0,-0.0,-0.0,-0.0,-0.0,-0.0,-0.0,-0.0,-0.0,-0.0,-0.0,-0.0,-0.0,-0.0,-0.0,0.2486,0.507,0.7665,0.7712,0.7416,0.7197,0.7158,0.7156,0.7139,0.7139,0.7139,0.7139,0.7139,0.7139,0.7139,0.7139,0.7088,0.6959,0.6926,0.6848,0.6739,0.6692,0.6634,0.6425,0.6384,0.6413,0.6315,0.6274,0.6342,0.6261,0.6261,0.6261,0.6251,0.6224,0.6193,0.6098,0.5922,0.5759,0.561,0.5678,0.5674,0.5669,0.6075,0.6806,0.7206,0.7326,0.7632,0.7312,0.7767,0.7702,-0.0,-0.0,-0.0,-0.0,-0.0,-0.0,-0.0,-0.0,-0.0,-0.0,-0.0,-0.0,-0.0,-0.0,-0.0,-0.0,-0.0,-0.0,-0.0,-0.0,-0.0,-0.0,-0.0,-0.0,-0.0,-0.0,-0.0,-0.0,-0.0,-0.0,-0.0,-0.0,-0.0,-0.0,-0.0,-0.0,-0.0,-0.0,-0.0,-0.0,-0.0,-0.0,-0.0,-0.0,-0.0,-0.0,-0.0,-0.0,-0.0,-0.0,-0.0,-0.0,-0.0,-0.0,-0.0,-0.0,-0.0,-0.0,-0.0,-0.0,-0.0,-0.0,-0.0,-0.0,-0.0,0.2465,0.5127,0.7306,0.7804,0.7706,0.753,0.7434,0.7244,0.716,0.7143,0.7146,0.7139,0.7139,0.7139,0.7139,0.7139,0.7024,0.7075,0.7061,0.7007,0.6878,0.6844,0.6776,0.6579,0.6617,0.6563,0.6358,0.639,0.6366,0.6264,0.6261,0.6261,0.6261,0.6247,0.6237,0.6176,0.6078,0.5909,0.5959,0.5911,0.5888,0.5856,0.5779,0.6527,0.6402,0.6597,0.6728,0.6338,0.6859,0.6728,-0.0,-0.0,-0.0,-0.0,-0.0,-0.0,-0.0,-0.0,-0.0,-0.0,-0.0,-0.0,-0.0,-0.0,-0.0,-0.0,-0.0,-0.0,-0.0,-0.0,-0.0,-0.0,-0.0,-0.0,-0.0,-0.0,-0.0,-0.0,-0.0,-0.0,-0.0,-0.0,-0.0,-0.0,-0.0,-0.0,-0.0,-0.0,-0.0,-0.0,-0.0,-0.0,-0.0,-0.0,-0.0,-0.0,-0.0,-0.0,-0.0,-0.0,-0.0,-0.0,-0.0,-0.0,-0.0,-0.0,-0.0,-0.0,-0.0,-0.0,-0.0,-0.0,-0.0,-0.0,-0.0,0.2514,0.5131,0.7241,0.7878,0.7875,0.7787,0.7628,0.7451,0.7222,0.7158,0.7217,0.721,0.7173,0.7146,0.7139,0.7139,0.7139,0.7139,0.7139,0.7092,0.7007,0.6997,0.6936,0.6814,0.677,0.6719,0.6576,0.6495,0.6434,0.6349,0.6312,0.6271,0.6261,0.6261,0.6261,0.6244,0.6146,0.6098,0.6231,0.6172,0.6072,0.594,0.5717,0.5586,0.547,0.569,0.6013,0.5881,0.6009,0.6141,-0.0,-0.0,-0.0,-0.0,-0.0,-0.0,-0.0,-0.0,-0.0,-0.0,-0.0,-0.0,-0.0,-0.0,-0.0,-0.0,-0.0,-0.0,-0.0,-0.0,-0.0,-0.0,-0.0,-0.0,-0.0,-0.0,-0.0,-0.0,-0.0,-0.0,-0.0,-0.0,-0.0,-0.0,-0.0,-0.0,-0.0,-0.0,-0.0,-0.0,-0.0,-0.0,-0.0,-0.0,-0.0,-0.0,-0.0,-0.0,-0.0,-0.0,-0.0,-0.0,-0.0,-0.0,-0.0,-0.0,-0.0,-0.0,-0.0,-0.0,-0.0,-0.0,-0.0,-0.0,-0.0,0.2414,0.5129,0.7366,0.7945,0.7974,0.7855,0.7807,0.7723,0.7412,0.7352,0.7373,0.7346,0.7238,0.7146,0.7153,0.7153,0.7143,0.7139,0.7139,0.7126,0.7119,0.7112,0.7071,0.7042,0.6929,0.6949,0.6982,0.6795,0.6556,0.6458,0.6284,0.6308,0.6342,0.6261,0.6261,0.6261,0.62,0.6193,0.6259,0.6256,0.6153,0.5964,0.5742,0.5669,0.5494,0.5575,0.5603,0.5803,0.6007,0.6148,-0.0,-0.0,-0.0,-0.0,-0.0,-0.0,-0.0,-0.0,-0.0,-0.0,-0.0,-0.0,-0.0,-0.0,-0.0,-0.0,-0.0,-0.0,-0.0,-0.0,-0.0,-0.0,-0.0,-0.0,-0.0,-0.0,-0.0,-0.0,-0.0,-0.0,-0.0,-0.0,-0.0,-0.0,-0.0,-0.0,-0.0,-0.0,-0.0,-0.0,-0.0,-0.0,-0.0,-0.0,-0.0,-0.0,-0.0,-0.0,-0.0,-0.0,-0.0,-0.0,-0.0,-0.0,-0.0,-0.0,-0.0,-0.0,-0.0,-0.0,-0.0,-0.0,-0.0,-0.0,-0.0,0.2414,0.5029,0.7472,0.7959,0.8011,0.798,0.797,0.7764,0.753,0.7556,0.7522,0.7489,0.7383,0.7222,0.7101,0.7115,0.7149,0.7139,0.7139,0.7139,0.7139,0.7139,0.7109,0.7085,0.7058,0.7017,0.7055,0.6877,0.6685,0.6569,0.6458,0.6373,0.6386,0.6281,0.6261,0.6261,0.6261,0.6261,0.6251,0.6251,0.6169,0.5986,0.584,0.5698,0.5627,0.5665,0.5761,0.5852,0.6071,0.6277,-0.0,-0.0,-0.0,-0.0,-0.0,-0.0,-0.0,-0.0,-0.0,-0.0,-0.0,-0.0,-0.0,-0.0,-0.0,-0.0,-0.0,-0.0,-0.0,-0.0,-0.0,-0.0,-0.0,-0.0,-0.0,-0.0,-0.0,-0.0,-0.0,-0.0,-0.0,-0.0,-0.0,-0.0,-0.0,-0.0,-0.0,-0.0,-0.0,-0.0,-0.0,-0.0,-0.0,-0.0,-0.0,-0.0,-0.0,-0.0,-0.0,-0.0,-0.0,-0.0,-0.0,-0.0,-0.0,-0.0,-0.0,-0.0,-0.0,-0.0,-0.0,-0.0,-0.0,-0.0,-0.0,0.1811,0.3922,0.7275,0.7972,0.7952,0.7949,0.8041,0.795,0.779,0.7712,0.7631,0.7636,0.7431,0.7336,0.7182,0.7101,0.7149,0.7139,0.7139,0.7139,0.7139,0.7139,0.7139,0.7139,0.7136,0.7075,0.7094,0.6926,0.6807,0.6678,0.6559,0.6444,0.6369,0.6305,0.6278,0.6261,0.6261,0.6257,0.6304,0.6294,0.6218,0.5979,0.5908,0.5803,0.5776,0.582,0.598,0.6198,0.6283,0.6487,-0.0,-0.0,-0.0,-0.0,-0.0,-0.0,-0.0,-0.0,-0.0,-0.0,-0.0,-0.0,-0.0,-0.0,-0.0,-0.0,-0.0,-0.0,-0.0,-0.0,-0.0,-0.0,-0.0,-0.0,-0.0,-0.0,-0.0,-0.0,-0.0,-0.0,-0.0,-0.0,-0.0,-0.0,-0.0,-0.0,-0.0,-0.0,-0.0,-0.0,-0.0,-0.0,-0.0,-0.0,-0.0,-0.0,-0.0,-0.0,-0.0,-0.0,-0.0,-0.0,-0.0,-0.0,-0.0,-0.0,-0.0,-0.0,-0.0,-0.0,-0.0,-0.0,-0.0,-0.0,-0.0,-0.0,0.2113,0.6065,0.7166,0.7662,0.7862,0.7955,0.7928,0.8018,0.7896,0.7726,0.7663,0.7533,0.7404,0.7185,0.7187,0.7166,0.7187,0.7173,0.7163,0.7139,0.7139,0.7139,0.7139,0.7139,0.7139,0.7088,0.7021,0.6932,0.6803,0.6725,0.661,0.6512,0.6427,0.6363,0.6288,0.6264,0.6261,0.63,0.6266,0.6177,0.6125,0.6006,0.5962,0.5932,0.611,0.6338,0.6399,0.6367,0.6317,-0.0,-0.0,-0.0,-0.0,-0.0,-0.0,-0.0,-0.0,-0.0,-0.0,-0.0,-0.0,-0.0,-0.0,-0.0,-0.0,-0.0,-0.0,-0.0,-0.0,-0.0,-0.0,-0.0,-0.0,-0.0,-0.0,-0.0,-0.0,-0.0,-0.0,-0.0,-0.0,-0.0,-0.0,-0.0,-0.0,-0.0,-0.0,-0.0,-0.0,-0.0,-0.0,-0.0,-0.0,-0.0,-0.0,-0.0,-0.0,-0.0,-0.0,-0.0,-0.0,-0.0,-0.0,-0.0,-0.0,-0.0,-0.0,-0.0,-0.0,-0.0,-0.0,-0.0,-0.0,-0.0,-0.0,-0.0,-0.0,0.3718,0.5937,0.7459,0.7965,0.7955,0.8038,0.7987,0.7926,0.7834,0.776,0.7672,0.7537,0.7429,0.7421,0.7339,0.7292,0.7258,0.718,0.7146,0.7139,0.7139,0.7139,0.7139,0.7139,0.7088,0.7111,0.7032,0.6875,0.6783,0.6678,0.6583,0.6495,0.6383,0.6278,0.6268,0.6325,0.6311,0.6246,0.6263,0.6179,0.6139,0.6071,0.6105,0.6194,0.6148,0.6067,0.5994,-0.0,-0.0,-0.0,-0.0,-0.0,-0.0,-0.0,-0.0,-0.0,-0.0,-0.0,-0.0,-0.0,-0.0,-0.0,-0.0,-0.0,-0.0,-0.0,-0.0,-0.0,-0.0,-0.0,-0.0,-0.0,-0.0,-0.0,-0.0,-0.0,-0.0,-0.0,-0.0,-0.0,-0.0,-0.0,-0.0,-0.0,-0.0,-0.0,-0.0,-0.0,-0.0,-0.0,-0.0,-0.0,-0.0,-0.0,-0.0,-0.0,-0.0,-0.0,-0.0,-0.0,-0.0,-0.0,-0.0,-0.0,-0.0,-0.0,-0.0,-0.0,-0.0,-0.0,-0.0,-0.0,-0.0,-0.0,-0.0,-0.0,0.4526,0.6037,0.725,0.7952,0.8041,0.8038,0.8014,0.796,0.7848,0.7784,0.7726,0.7651,0.7577,0.7472,0.7417,0.7336,0.7251,0.7177,0.7156,0.7139,0.7139,0.7139,0.7139,0.7139,0.7082,0.7027,0.6959,0.6912,0.6814,0.6736,0.6644,0.6502,0.6359,0.6308,0.6298,0.6278,0.6261,0.6261,0.6261,0.623,0.6173,0.6146,0.6122,0.6078,0.6006,0.5867,-0.0,-0.0,-0.0,-0.0,-0.0,-0.0,-0.0,-0.0,-0.0,-0.0,-0.0,-0.0,-0.0,-0.0,-0.0,-0.0,-0.0,-0.0,-0.0,-0.0,-0.0,-0.0,-0.0,-0.0,-0.0,-0.0,-0.0,-0.0,-0.0,-0.0,-0.0,-0.0,-0.0,-0.0,-0.0,-0.0,-0.0,-0.0,-0.0,-0.0,-0.0,-0.0,-0.0,-0.0,-0.0,-0.0,-0.0,-0.0,-0.0,-0.0,-0.0,-0.0,-0.0,-0.0,-0.0,-0.0,-0.0,-0.0,-0.0,-0.0,-0.0,-0.0,-0.0,-0.0,-0.0,-0.0,-0.0,-0.0,-0.0,0.4131,0.5331,0.6833,0.7739,0.8038,0.8038,0.7974,0.7976,0.7931,0.788,0.7963,0.7756,0.7648,0.7587,0.7509,0.7407,0.7322,0.7248,0.7204,0.7166,0.7139,0.7139,0.7139,0.7139,0.7139,0.7088,0.7037,0.6997,0.6943,0.6875,0.6783,0.6641,0.6508,0.6407,0.6349,0.6308,0.6278,0.6261,0.6261,0.6261,0.6251,0.6207,0.6224,0.623,0.6139,0.602,-0.0,-0.0,-0.0,-0.0,-0.0,-0.0,-0.0,-0.0,-0.0,-0.0,-0.0,-0.0,-0.0,-0.0,-0.0,-0.0,-0.0,-0.0,-0.0,-0.0,-0.0,-0.0,-0.0,-0.0,-0.0,-0.0,-0.0,-0.0,-0.0,-0.0,-0.0,-0.0,-0.0,-0.0,-0.0,-0.0,-0.0,-0.0,-0.0,-0.0,-0.0,-0.0,-0.0,-0.0,-0.0,-0.0,-0.0,-0.0,-0.0,-0.0,-0.0,-0.0,-0.0,-0.0,-0.0,-0.0,-0.0,-0.0,-0.0,-0.0,-0.0,-0.0,-0.0,-0.0,-0.0,-0.0,-0.0,-0.0,0.2426,0.4444,0.6659,0.755,0.7942,0.8041,0.8038,0.8024,0.7994,0.7984,0.7957,0.7936,0.7919,0.7896,0.7784,0.7736,0.7604,0.7431,0.7329,0.7265,0.7214,0.7166,0.7153,0.716,0.7139,0.7139,0.7126,0.7085,0.7065,0.7041,0.699,0.6946,0.6803,0.6651,0.6549,0.6434,0.641,0.6386,0.6305,0.6261,0.6261,0.6261,0.6261,0.6261,0.6247,0.6196,0.6173,-0.0,-0.0,-0.0,-0.0,-0.0,-0.0,-0.0,-0.0,-0.0,-0.0,-0.0,-0.0,-0.0,-0.0,-0.0,-0.0,-0.0,-0.0,-0.0,-0.0,-0.0,-0.0,-0.0,-0.0,-0.0,-0.0,-0.0,-0.0,-0.0,-0.0,-0.0,-0.0,-0.0,-0.0,-0.0,-0.0,-0.0,-0.0,-0.0,-0.0,-0.0,-0.0,-0.0,-0.0,-0.0,-0.0,-0.0,-0.0,-0.0,-0.0,-0.0,-0.0,-0.0,-0.0,-0.0,-0.0,-0.0,-0.0,-0.0,-0.0,-0.0,-0.0,-0.0,-0.0,-0.0,-0.0,-0.0,-0.0,0.1515,0.3534,0.7378,0.7972,0.7955,0.8041,0.8038,0.8038,0.8038,0.8038,0.8038,0.8038,0.8021,0.7991,0.794,0.7875,0.7794,0.7611,0.7502,0.7431,0.7225,0.7178,0.72,0.7183,0.7153,0.7139,0.7139,0.7129,0.7126,0.7109,0.7088,0.7065,0.7,0.6841,0.6685,0.6576,0.6471,0.6396,0.6383,0.6325,0.6281,0.6264,0.6264,0.6261,0.6251,0.6227,0.6213,-0.0,-0.0,-0.0,-0.0,-0.0,-0.0,-0.0,-0.0,-0.0,-0.0,-0.0,-0.0,-0.0,-0.0,-0.0,-0.0,-0.0,-0.0,-0.0,-0.0,-0.0,-0.0,-0.0,-0.0,-0.0,-0.0,-0.0,-0.0,-0.0,-0.0,-0.0,-0.0,-0.0,-0.0,-0.0,-0.0,-0.0,-0.0,-0.0,-0.0,-0.0,-0.0,-0.0,-0.0,-0.0,-0.0,-0.0,-0.0,-0.0,-0.0,-0.0,-0.0,-0.0,-0.0,-0.0,-0.0,-0.0,-0.0,-0.0,-0.0,-0.0,-0.0,-0.0,-0.0,-0.0,-0.0,-0.0,-0.0,0.111,0.2619,0.625,0.7659,0.7852,0.8045,0.8038,0.8038,0.8038,0.8038,0.8038,0.8038,0.8038,0.8018,0.7991,0.794,0.7875,0.7801,0.7695,0.7584,0.7376,0.7289,0.7235,0.7261,0.7148,0.7166,0.7153,0.7139,0.7139,0.7139,0.7139,0.7132,0.7122,0.7017,0.6858,0.6736,0.6637,0.6556,0.6498,0.6471,0.6413,0.6404,0.6295,0.6322,0.6302,0.6268,0.6247,-0.0,-0.0,-0.0,-0.0,-0.0,-0.0,-0.0,-0.0,-0.0,-0.0,-0.0,-0.0,-0.0,-0.0,-0.0,-0.0,-0.0,-0.0,-0.0,-0.0,-0.0,-0.0,-0.0,-0.0,-0.0,-0.0,-0.0,-0.0,-0.0,-0.0,-0.0,-0.0,-0.0,-0.0,-0.0,-0.0,-0.0,-0.0,-0.0,-0.0,-0.0,-0.0,-0.0,-0.0,-0.0,-0.0,-0.0,-0.0,-0.0,-0.0,-0.0,-0.0,-0.0,-0.0,-0.0,-0.0,-0.0,-0.0,-0.0,-0.0,-0.0,-0.0,-0.0,-0.0,-0.0,-0.0,-0.0,-0.0,0.1611,0.2912,0.1503,0.5622,0.7739,0.8038,0.8038,0.8038,0.8038,0.8038,0.8038,0.8038,0.8038,0.8038,0.8011,0.7987,0.7943,0.7889,0.7824,0.7712,0.7597,0.7439,0.7393,0.7322,0.7252,0.7161,0.717,0.7149,0.7139,0.7139,0.7139,0.7139,0.7132,0.7044,0.7037,0.6902,0.6783,0.6688,0.6644,0.6614,0.6525,0.6424,0.6403,0.6393,0.6322,0.6261,0.6261,-0.0,-0.0,-0.0,-0.0,-0.0,-0.0,-0.0,-0.0,-0.0,-0.0,-0.0,-0.0,-0.0,-0.0,-0.0,-0.0,-0.0,-0.0,-0.0,-0.0,-0.0,-0.0,-0.0,-0.0,-0.0,-0.0,-0.0,-0.0,-0.0,-0.0,-0.0,-0.0,-0.0,-0.0,-0.0,-0.0,-0.0,-0.0,-0.0,-0.0,-0.0,-0.0,-0.0,-0.0,-0.0,-0.0,-0.0,-0.0,-0.0,-0.0,-0.0,-0.0,-0.0,-0.0,-0.0,-0.0,-0.0,-0.0,-0.0,-0.0,-0.0,-0.0,-0.0,-0.0,-0.0,-0.0,-0.0,-0.0,-0.0,0.2716,0.4321,0.6439,0.765,0.8041,0.8038,0.8038,0.8038,0.8038,0.8038,0.8038,0.8038,0.8038,0.8038,0.8014,0.7997,0.7967,0.7929,0.7841,0.7822,0.7689,0.7648,0.7461,0.7363,0.7161,0.717,0.7149,0.7139,0.7139,0.7139,0.7139,0.7139,0.7136,0.7034,0.7048,0.6939,0.6824,0.678,0.6742,0.663,0.6525,0.6485,0.643,0.6322,0.6261,0.6261,-0.0,-0.0,-0.0,-0.0,-0.0,-0.0,-0.0,-0.0,-0.0,-0.0,-0.0,-0.0,-0.0,-0.0,-0.0,-0.0,-0.0,-0.0,-0.0,-0.0,-0.0,-0.0,-0.0,-0.0,-0.0,-0.0,-0.0,-0.0,-0.0,-0.0,-0.0,-0.0,-0.0,-0.0,-0.0,-0.0,-0.0,-0.0,-0.0,-0.0,-0.0,-0.0,-0.0,-0.0,-0.0,-0.0,-0.0,-0.0,-0.0,-0.0,-0.0,-0.0,-0.0,-0.0,-0.0,-0.0,-0.0,-0.0,-0.0,-0.0,-0.0,-0.0,-0.0,-0.0,-0.0,-0.0,-0.0,-0.0,-0.0,-0.0,0.4321,0.7163,0.7865,0.7949,0.8038,0.8038,0.8038,0.8038,0.8038,0.8038,0.8038,0.8038,0.8038,0.8038,0.8014,0.8014,0.798,0.797,0.7872,0.7862,0.7773,0.7702,0.7531,0.7234,0.7078,0.7146,0.7139,0.7139,0.7139,0.7139,0.7139,0.7139,0.7122,0.7109,0.6974,0.6959,0.6919,0.6878,0.681,0.6715,0.6586,0.6478,0.6393,0.6302,0.6261,-0.0,-0.0,-0.0,-0.0,-0.0,-0.0,-0.0,-0.0,-0.0,-0.0,-0.0,-0.0,-0.0,-0.0,-0.0,-0.0,-0.0,-0.0,-0.0,-0.0,-0.0,-0.0,-0.0,-0.0,-0.0,-0.0,-0.0,-0.0,-0.0,-0.0,-0.0,-0.0,-0.0,-0.0,-0.0,-0.0,-0.0,-0.0,-0.0,-0.0,-0.0,-0.0,-0.0,-0.0,-0.0,-0.0,-0.0,-0.0,-0.0,-0.0,-0.0,-0.0,-0.0,-0.0,-0.0,-0.0,-0.0,-0.0,-0.0,-0.0,-0.0,-0.0,-0.0,-0.0,-0.0,-0.0,-0.0,-0.0,-0.0,-0.0,-0.0,0.5529,0.7247,0.7952,0.8038,0.8038,0.8038,0.8038,0.8038,0.8038,0.8038,0.8038,0.8038,0.8038,0.8038,0.8038,0.8035,0.8018,0.7987,0.7946,0.7892,0.7827,0.7643,0.7343,0.7295,0.7258,0.721,0.719,0.7177,0.7166,0.7139,0.7139,0.7139,0.7122,0.7092,0.7085,0.7048,0.701,0.6987,0.6885,0.6736,0.6603,0.6481,0.6393,0.6322,-0.0,-0.0,-0.0,-0.0,-0.0,-0.0,-0.0,-0.0,-0.0,-0.0,-0.0,-0.0,-0.0,-0.0,-0.0,-0.0,-0.0,-0.0,-0.0,-0.0,-0.0,-0.0,-0.0,-0.0,-0.0,-0.0,-0.0,-0.0,-0.0,-0.0,-0.0,-0.0,-0.0,-0.0,-0.0,-0.0,-0.0,-0.0,-0.0,-0.0,-0.0,-0.0,-0.0,-0.0,-0.0,-0.0,-0.0,-0.0,-0.0,-0.0,-0.0,-0.0,-0.0,-0.0,-0.0,-0.0,-0.0,-0.0,-0.0,-0.0,-0.0,-0.0,-0.0,-0.0,-0.0,-0.0,-0.0,-0.0,-0.0,-0.0,-0.0,-0.0,0.6942,0.7949,0.8038,0.8038,0.8038,0.8038,0.8038,0.8038,0.8038,0.8038,0.8038,0.8038,0.8038,0.8038,0.8038,0.8031,0.798,0.8014,0.7955,0.7859,0.7708,0.7492,0.7475,0.7448,0.737,0.7336,0.7299,0.7265,0.7163,0.7139,0.7156,0.7149,0.7122,0.7126,0.7139,0.7109,0.7054,0.6966,0.6875,0.6746,0.6627,0.659,0.6542,-0.0,-0.0,-0.0,-0.0,-0.0,-0.0,-0.0,-0.0,-0.0,-0.0,-0.0,-0.0,-0.0,-0.0,-0.0,-0.0,-0.0,-0.0,-0.0,-0.0,-0.0,-0.0,-0.0,-0.0,-0.0,-0.0,-0.0,-0.0,-0.0,-0.0,-0.0,-0.0,-0.0,-0.0,-0.0,-0.0,-0.0,-0.0,-0.0,-0.0,-0.0,-0.0,-0.0,-0.0,-0.0,-0.0,-0.0,-0.0,-0.0,-0.0,-0.0,-0.0,-0.0,-0.0,-0.0,-0.0,-0.0,-0.0,-0.0,-0.0,-0.0,-0.0,-0.0,-0.0,-0.0,-0.0,-0.0,-0.0,-0.0,-0.0,-0.0,-0.0,0.725,0.7952,0.8038,0.8038,0.8038,0.8038,0.8038,0.8038,0.8038,0.8038,0.8038,0.8038,0.8038,0.8038,0.8038,0.8038,0.7994,0.8024,0.7969,0.7914,0.7746,0.7624,0.7573,0.7556,0.7506,0.7482,0.7444,0.737,0.7275,0.7214,0.7207,0.719,0.7153,0.7139,0.7139,0.7129,0.7112,0.7037,0.6959,0.6875,0.6793,0.6756,0.6739,-0.0,-0.0,-0.0,-0.0,-0.0,-0.0,-0.0,-0.0,-0.0,-0.0,-0.0,-0.0,-0.0,-0.0,-0.0,-0.0,-0.0,-0.0,-0.0,-0.0,-0.0,-0.0,-0.0,-0.0,-0.0,-0.0,-0.0,-0.0,-0.0,-0.0,-0.0,-0.0,-0.0,-0.0,-0.0,-0.0,-0.0,-0.0,-0.0,-0.0,-0.0,-0.0,-0.0,-0.0,-0.0,-0.0,-0.0,-0.0,-0.0,-0.0,-0.0,-0.0,-0.0,-0.0,-0.0,-0.0,-0.0,-0.0,-0.0,-0.0,-0.0,-0.0,-0.0,-0.0,-0.0,-0.0,-0.0,-0.0,-0.0,-0.0,-0.0,0.4316,0.7459,0.7952,0.8038,0.8038,0.8038,0.8038,0.8038,0.8038,0.8038,0.8038,0.8038,0.8038,0.8038,0.8038,0.8038,0.8038,0.8038,0.7987,0.8031,0.7979,0.7841,0.7654,0.7641,0.7621,0.7651,0.7631,0.7587,0.7495,0.7394,0.7343,0.7272,0.7214,0.718,0.716,0.7139,0.7132,0.7122,0.7102,0.7048,0.6973,0.6915,0.6871,0.6875,-0.0,-0.0,-0.0,-0.0,-0.0,-0.0,-0.0,-0.0,-0.0,-0.0,-0.0,-0.0,-0.0,-0.0,-0.0,-0.0,-0.0,-0.0,-0.0,-0.0,-0.0,-0.0,-0.0,-0.0,-0.0,-0.0,-0.0,-0.0,-0.0,-0.0,-0.0,-0.0,-0.0,-0.0,-0.0,-0.0,-0.0,-0.0,-0.0,-0.0,-0.0,-0.0,-0.0,-0.0,-0.0,-0.0,-0.0,-0.0,-0.0,-0.0,-0.0,-0.0,-0.0,-0.0,-0.0,-0.0,-0.0,-0.0,-0.0,-0.0,-0.0,-0.0,-0.0,-0.0,-0.0,-0.0,-0.0,-0.0,-0.0,-0.0,-0.0,0.462,0.7975,0.7952,0.8038,0.8038,0.8038,0.8038,0.8038,0.8038,0.8038,0.8038,0.8038,0.8038,0.8038,0.8038,0.8038,0.8038,0.8038,0.8038,0.7984,0.7957,0.7923,0.7821,0.7821,0.7814,0.7821,0.7777,0.7729,0.7638,0.7533,0.7397,0.7326,0.7261,0.7221,0.721,0.719,0.7153,0.7132,0.7119,0.7109,0.6994,0.7031,0.6983,0.6993,-0.0,-0.0,-0.0,-0.0,-0.0,-0.0,-0.0,-0.0,-0.0,-0.0,-0.0,-0.0,-0.0,-0.0,-0.0,-0.0,-0.0,-0.0,-0.0,-0.0,-0.0,-0.0,-0.0,-0.0,-0.0,-0.0,-0.0,-0.0,-0.0,-0.0,-0.0,-0.0,-0.0,-0.0,-0.0,-0.0,-0.0,-0.0,-0.0,-0.0,-0.0,-0.0,-0.0,-0.0,-0.0,-0.0,-0.0,-0.0,-0.0,-0.0,-0.0,-0.0,-0.0,-0.0,-0.0,-0.0,-0.0,-0.0,-0.0,-0.0,-0.0,-0.0,-0.0,-0.0,-0.0,-0.0,-0.0,-0.0,-0.0,-0.0,-0.0,0.462,0.7666,0.7949,0.8038,0.8038,0.8038,0.8038,0.8038,0.8038,0.8038,0.8038,0.8038,0.8038,0.8038,0.8038,0.8038,0.8038,0.8038,0.8038,0.8031,0.8014,0.8007,0.8018,0.8024,0.797,0.7919,0.7916,0.7865,0.7794,0.7682,0.7543,0.7451,0.7428,0.7377,0.7299,0.7282,0.7295,0.7227,0.7143,0.7129,0.7027,0.7109,0.7065,0.7088,-0.0,-0.0,-0.0,-0.0,-0.0,-0.0,-0.0,-0.0,-0.0,-0.0,-0.0,-0.0,-0.0,-0.0,-0.0,-0.0,-0.0,-0.0,-0.0,-0.0,-0.0,-0.0,-0.0,-0.0,-0.0,-0.0,-0.0,-0.0,-0.0,-0.0,-0.0,-0.0,-0.0,-0.0,-0.0,-0.0,-0.0,-0.0,-0.0,-0.0,-0.0,-0.0,-0.0,-0.0,-0.0,-0.0,-0.0,-0.0,-0.0,-0.0,-0.0,-0.0,-0.0,-0.0,-0.0,-0.0,-0.0,-0.0,-0.0,-0.0,-0.0,-0.0,-0.0,-0.0,-0.0,-0.0,-0.0,-0.0,-0.0,-0.0,-0.0,0.452,0.6839,0.7949,0.8041,0.8038,0.8038,0.8038,0.8038,0.8038,0.8038,0.8038,0.8038,0.8038,0.8038,0.8038,0.8038,0.8038,0.8038,0.8038,0.8038,0.8038,0.8038,0.8038,0.8038,0.8038,0.8018,0.8024,0.7991,0.7909,0.7841,0.774,0.7665,0.7611,0.7529,0.7441,0.7448,0.7468,0.736,0.7248,0.716,0.7136,0.7139,0.7146,0.7156,-0.0,-0.0,-0.0,-0.0,-0.0,-0.0,-0.0,-0.0,-0.0,-0.0,-0.0,-0.0,-0.0,-0.0,-0.0,-0.0,-0.0,-0.0,-0.0,-0.0,-0.0,-0.0,-0.0,-0.0,-0.0,-0.0,-0.0,-0.0,-0.0,-0.0,-0.0,-0.0,-0.0,-0.0,-0.0,-0.0,-0.0,-0.0,-0.0,-0.0,-0.0,-0.0,-0.0,-0.0,-0.0,-0.0,-0.0,-0.0,-0.0,-0.0,-0.0,-0.0,-0.0,-0.0,-0.0,-0.0,-0.0,-0.0,-0.0,-0.0,-0.0,-0.0,-0.0,-0.0,-0.0,-0.0,-0.0,-0.0,-0.0,-0.0,-0.0,-0.0,0.7563,0.7945,0.8038,0.8038,0.8038,0.8038,0.8038,0.8038,0.8038,0.8038,0.8038,0.8038,0.8038,0.8038,0.8038,0.8038,0.8038,0.8038,0.8038,0.8038,0.8038,0.8038,0.8038,0.8038,0.8038,0.8031,0.8031,0.8004,0.7943,0.7882,0.7824,0.7743,0.7665,0.7594,0.7587,0.756,0.7458,0.736,0.7282,0.718,0.7139,0.7163,0.7193,-0.0,-0.0,-0.0,-0.0,-0.0,-0.0,-0.0,-0.0,-0.0,-0.0,-0.0,-0.0,-0.0,-0.0,-0.0,-0.0,-0.0,-0.0,-0.0,-0.0,-0.0,-0.0,-0.0,-0.0,-0.0,-0.0,-0.0,-0.0,-0.0,-0.0,-0.0,-0.0,-0.0,-0.0,-0.0,-0.0,-0.0,-0.0,-0.0,-0.0,-0.0,-0.0,-0.0,-0.0,-0.0,-0.0,-0.0,-0.0,-0.0,-0.0,-0.0,-0.0,-0.0,-0.0,-0.0,-0.0,-0.0,-0.0,-0.0,-0.0,-0.0,-0.0,-0.0,-0.0,-0.0,-0.0,-0.0,-0.0,-0.0,-0.0,-0.0,0.5434,0.7566,0.7949,0.8038,0.8038,0.8038,0.8038,0.8038,0.8038,0.8038,0.8038,0.8038,0.8038,0.8038,0.8038,0.8038,0.8038,0.8038,0.8038,0.8038,0.8038,0.8038,0.8038,0.8038,0.8038,0.8038,0.8038,0.8038,0.8038,0.8021,0.7957,0.7916,0.7885,0.7838,0.7784,0.7709,0.7645,0.7584,0.7506,0.7417,0.7305,0.7173,0.7187,0.7241,-0.0,-0.0,-0.0,-0.0,-0.0,-0.0,-0.0,-0.0,-0.0,-0.0,-0.0,-0.0,-0.0,-0.0,-0.0,-0.0,-0.0,-0.0,-0.0,-0.0,-0.0,-0.0,-0.0,-0.0,-0.0,-0.0,-0.0,-0.0,-0.0,-0.0,-0.0,-0.0,-0.0,-0.0,-0.0,-0.0,-0.0,-0.0,-0.0,-0.0,-0.0,-0.0,-0.0,-0.0,-0.0,-0.0,-0.0,-0.0,-0.0,-0.0,-0.0,-0.0,-0.0,-0.0,-0.0,-0.0,-0.0,-0.0,-0.0,-0.0,-0.0,-0.0,-0.0,-0.0,-0.0,-0.0,-0.0,-0.0,-0.0,-0.0,0.1504,0.4722,0.7872,0.7959,0.8041,0.8038,0.8038,0.8038,0.8038,0.8038,0.8038,0.8038,0.8038,0.8038,0.8038,0.8038,0.8038,0.8038,0.8038,0.8038,0.8038,0.8038,0.8038,0.8038,0.8038,0.8038,0.8038,0.8038,0.8038,0.8038,0.8028,0.8024,0.7991,0.7974,0.8011,0.797,0.7865,0.7797,0.7753,0.7665,0.757,0.7421,0.7288,0.7272,0.7309,-0.0,-0.0,-0.0,-0.0,-0.0,-0.0,-0.0,-0.0,-0.0,-0.0,-0.0,-0.0,-0.0,-0.0,-0.0,-0.0,-0.0,-0.0,-0.0,-0.0,-0.0,-0.0,-0.0,-0.0,-0.0,-0.0,-0.0,-0.0,-0.0,-0.0,-0.0,-0.0,-0.0,-0.0,-0.0,-0.0,-0.0,-0.0,-0.0,-0.0,-0.0,-0.0,-0.0,-0.0,-0.0,-0.0,-0.0,-0.0,-0.0,-0.0,-0.0,-0.0,-0.0,-0.0,-0.0,-0.0,-0.0,-0.0,-0.0,-0.0,-0.0,-0.0,-0.0,-0.0,-0.0,-0.0,-0.0,-0.0,-0.0,-0.0,0.3115,0.6345,0.7972,0.7952,0.8038,0.8038,0.8038,0.8038,0.8038,0.8038,0.8038,0.8038,0.8038,0.8038,0.8038,0.8038,0.8038,0.8038,0.8038,0.8038,0.8038,0.8038,0.8038,0.8038,0.8038,0.8038,0.8038,0.8038,0.8038,0.8038,0.8035,0.8035,0.8038,0.8038,0.8038,0.8028,0.7994,0.7933,0.7875,0.7818,0.7723,0.7556,0.7424,0.7407,0.7424,-0.0,-0.0,-0.0,-0.0,-0.0,-0.0,-0.0,-0.0,-0.0,-0.0,-0.0,-0.0,-0.0,-0.0,-0.0,-0.0,-0.0,-0.0,-0.0,-0.0,-0.0,-0.0,-0.0,-0.0,-0.0,-0.0,-0.0,-0.0,-0.0,-0.0,-0.0,-0.0,-0.0,-0.0,-0.0,-0.0,-0.0,-0.0,-0.0,-0.0,-0.0,-0.0,-0.0,-0.0,-0.0,-0.0,-0.0,-0.0,-0.0,-0.0,-0.0,-0.0,-0.0,-0.0,-0.0,-0.0,-0.0,-0.0,-0.0,-0.0,-0.0,-0.0,-0.0,-0.0,-0.0,-0.0,-0.0,-0.0,-0.0,0.1614,0.5044,0.7985,0.7965,0.8045,0.8041,0.8038,0.8038,0.8038,0.8038,0.8038,0.8038,0.8038,0.8038,0.8038,0.8038,0.8038,0.8038,0.8038,0.8038,0.8038,0.8038,0.8038,0.8038,0.8038,0.8038,0.8038,0.8038,0.8038,0.8038,0.8038,0.8038,0.8038,0.8038,0.8038,0.8038,0.8028,0.8021,0.8024,0.7984,0.7923,0.7872,0.7763,0.7634,0.755,0.7584,-0.0,-0.0,-0.0,-0.0,-0.0,-0.0,-0.0,-0.0,-0.0,-0.0,-0.0,-0.0,-0.0,-0.0,-0.0,-0.0,-0.0,-0.0,-0.0,-0.0,-0.0,-0.0,-0.0,-0.0,-0.0,-0.0,-0.0,-0.0,-0.0,-0.0,-0.0,-0.0,-0.0,-0.0,-0.0,-0.0,-0.0,-0.0,-0.0,-0.0,-0.0,-0.0,-0.0,-0.0,-0.0,-0.0,-0.0,-0.0,-0.0,-0.0,-0.0,-0.0,-0.0,-0.0,-0.0,-0.0,-0.0,-0.0,-0.0,-0.0,-0.0,-0.0,-0.0,-0.0,-0.0,-0.0,-0.0,-0.0,-0.0,-0.0,0.5037,0.7372,0.7972,0.7952,0.8038,0.8038,0.8038,0.8038,0.8038,0.8038,0.8038,0.8038,0.8038,0.8038,0.8038,0.8038,0.8038,0.8038,0.8038,0.8038,0.8038,0.8038,0.8038,0.8038,0.8038,0.8038,0.8038,0.8038,0.8038,0.8038,0.8038,0.8038,0.8038,0.8038,0.8038,0.8038,0.8035,0.8035,0.8035,0.8014,0.797,0.795,0.7862,0.7736,0.7702,-0.0,-0.0,-0.0,-0.0,-0.0,-0.0,-0.0,-0.0,-0.0,-0.0,-0.0,-0.0,-0.0,-0.0,-0.0,-0.0,-0.0,-0.0,-0.0,-0.0,-0.0,-0.0,-0.0,-0.0,-0.0,-0.0,-0.0,-0.0,-0.0,-0.0,-0.0,-0.0,-0.0,-0.0,-0.0,-0.0,-0.0,-0.0,-0.0,-0.0,-0.0,-0.0,-0.0,-0.0,-0.0,-0.0,-0.0,-0.0,-0.0,-0.0,-0.0,-0.0,-0.0,-0.0,-0.0,-0.0,-0.0,-0.0,-0.0,-0.0,-0.0,-0.0,-0.0,-0.0,-0.0,-0.0,-0.0,-0.0,-0.0,-0.0,0.4429,0.6453,0.7979,0.7959,0.8038,0.8038,0.8038,0.8038,0.8038,0.8038,0.8038,0.8038,0.8038,0.8038,0.8038,0.8038,0.8038,0.8038,0.8038,0.8038,0.8038,0.8038,0.8038,0.8038,0.8038,0.8038,0.8038,0.8038,0.8038,0.8038,0.8038,0.8038,0.8038,0.8038,0.8038,0.8038,0.8038,0.8038,0.8038,0.8038,0.8031,0.7997,0.7997,0.7909,0.7858,-0.0,-0.0,-0.0,-0.0,-0.0,-0.0,-0.0,-0.0,-0.0,-0.0,-0.0,-0.0,-0.0,-0.0,-0.0,-0.0,-0.0,-0.0,-0.0,-0.0,-0.0,-0.0,-0.0,-0.0,-0.0,-0.0,-0.0,-0.0,-0.0,-0.0,-0.0,-0.0,-0.0,-0.0,-0.0,-0.0,-0.0,-0.0,-0.0,-0.0,-0.0,-0.0,-0.0,-0.0,-0.0,-0.0,-0.0,-0.0,-0.0,-0.0,-0.0,-0.0,-0.0,-0.0,-0.0,-0.0,-0.0,-0.0,-0.0,-0.0,-0.0,-0.0,-0.0,-0.0,-0.0,-0.0,-0.0,-0.0,-0.0,-0.0,-0.0,0.6247,0.7559,0.7949,0.8041,0.8038,0.8038,0.8038,0.8038,0.8038,0.8038,0.8038,0.8038,0.8038,0.8038,0.8038,0.8038,0.8038,0.8038,0.8038,0.8038,0.8038,0.8038,0.8038,0.8038,0.8038,0.8038,0.8038,0.8038,0.8038,0.8038,0.8038,0.8038,0.8038,0.8038,0.8038,0.8038,0.8038,0.8038,0.8038,0.8038,0.8031,0.8038,0.8038,0.798,-0.0,-0.0,-0.0,-0.0,-0.0,-0.0,-0.0,-0.0,-0.0,-0.0,-0.0,-0.0,-0.0,-0.0,-0.0,-0.0,-0.0,-0.0,-0.0,-0.0,-0.0,-0.0,-0.0,-0.0,-0.0,-0.0,-0.0,-0.0,-0.0,-0.0,-0.0,-0.0,-0.0,-0.0,-0.0,-0.0,-0.0,-0.0,-0.0,-0.0,-0.0,-0.0,-0.0,-0.0,-0.0,-0.0,-0.0,-0.0,-0.0,-0.0,-0.0,-0.0,-0.0,-0.0,-0.0,-0.0,-0.0,-0.0,-0.0,-0.0,-0.0,-0.0,-0.0,-0.0,-0.0,-0.0,-0.0,-0.0,-0.0,-0.0,-0.0,0.6039,0.7147,0.7949,0.8045,0.8038,0.8038,0.8038,0.8038,0.8038,0.8038,0.8038,0.8038,0.8038,0.8038,0.8038,0.8038,0.8038,0.8038,0.8038,0.8038,0.8038,0.8038,0.8038,0.8038,0.8038,0.8038,0.8038,0.8038,0.8038,0.8038,0.8038,0.8038,0.8038,0.8038,0.8038,0.8038,0.8038,0.8038,0.8038,0.8038,0.8038,0.8038,0.8038,0.8038,-0.0,-0.0,-0.0,-0.0,-0.0,-0.0,-0.0,-0.0,-0.0,-0.0,-0.0,-0.0,-0.0,-0.0,-0.0,-0.0,-0.0,-0.0,-0.0,-0.0,-0.0,-0.0,-0.0,-0.0,-0.0,-0.0,-0.0,-0.0,-0.0,-0.0,-0.0,-0.0,-0.0,-0.0,-0.0,-0.0,-0.0,-0.0,-0.0,-0.0,-0.0,-0.0,-0.0,-0.0,-0.0,-0.0,-0.0,-0.0,-0.0,-0.0,-0.0,-0.0,-0.0,-0.0,-0.0,-0.0,-0.0,-0.0,-0.0,-0.0,-0.0,-0.0,-0.0,-0.0,-0.0,-0.0,-0.0,-0.0,-0.0,-0.0,0.4849,0.6255,0.7463,0.7856,0.7949,0.8041,0.8038,0.8038,0.8038,0.8038,0.8038,0.8038,0.8038,0.8038,0.8038,0.8038,0.8038,0.8038,0.8038,0.8038,0.8038,0.8038,0.8038,0.8038,0.8038,0.8038,0.8038,0.8038,0.8038,0.8038,0.8038,0.8038,0.8038,0.8038,0.8038,0.8038,0.8038,0.8038,0.8038,0.8038,0.8038,0.8038,0.8038,0.8038,0.8038]},{"header":{"parameterUnit":"m.s-1","parameterCategory":1,"la1":31.0,"la2":29.5877,"lo1":-88.7671,"lo2":-86.6584,"dy":0.0162,"dx":0.0185,"nx":115,"ny":88,"refTime":"2023-07-15T06:00:00:Z","depth":0,"parameterNumber":3,"parameterNumberName":"V-component_of_WINDS"},"data":[0.0,0.0,0.0,0.0,0.0,0.0,0.0,0.0,0.0,0.0,0.0,0.0,0.0,0.0,0.0,0.0,0.0,0.0,0.0,0.0,0.0,0.0,0.0,0.0,0.0,0.0,0.0,0.0,0.0,0.0,0.0,0.0,0.0,0.0,0.0,0.0,0.0,0.0,0.0,0.0,0.0,0.0,0.0,0.0,0.0,0.0,0.0,0.0,0.0,0.0,0.0,0.0,0.0,0.0,0.0,0.0,0.0,0.0,0.0,0.0,0.0,0.0,0.0,0.0,0.0,0.0,0.0,0.0,0.0,0.0,0.0,0.0,0.0,0.0,0.0,0.0,0.0,0.0,0.0,0.0,0.0,0.0,0.0,0.0,0.0,0.0,0.0,0.0,0.0,0.0,0.0,0.0,0.0,0.0,0.0,0.0,0.0,0.0,0.0,0.0,0.0,0.0,0.0,0.0,0.0,0.0,0.0,0.0,0.0,0.0,0.0,0.0,0.0,0.0,0.0,0.0,0.0,0.0,0.0,0.0,0.0,0.0,0.0,0.0,0.0,0.0,0.0,0.0,0.0,0.0,0.0,0.0,0.0,0.0,0.0,0.0,0.0,0.0,0.0,0.0,0.0,0.0,0.0,0.0,0.0,0.0,0.0,0.0,0.0,0.0,0.0,0.0,0.0,0.0,0.0,0.0,0.0,0.0,0.0,0.0,0.0,0.0,0.0,0.0,0.0,0.0,0.0,0.0,0.0,0.0,0.0,0.0,0.0,0.0,0.0,0.0,0.0,0.0,0.0,0.0,0.0,0.0,0.0,0.0,0.0,0.0,0.0,0.0,0.0,0.0,0.0,0.0,0.0,0.0,0.0,0.0,0.0,0.0,0.0,0.0,0.0,0.0,0.0,0.0,0.0,0.0,0.0,0.0,0.0,0.0,0.0,0.0,0.0,0.0,0.0,0.0,0.0,0.0,0.0,0.0,0.0,0.0,0.0,0.0,0.0,0.0,0.0,0.0,0.0,0.0,0.0,0.0,0.0,0.0,0.0,0.0,0.0,0.0,0.0,0.0,0.0,0.0,0.0,0.0,0.0,0.0,0.0,0.0,0.0,0.0,0.0,0.0,0.0,0.0,0.0,0.0,0.0,0.0,0.0,0.0,0.0,0.0,0.0,0.0,0.0,0.0,0.0,0.0,0.0,0.0,0.0,0.0,0.0,0.0,0.0,0.0,0.0,0.0,0.0,0.0,0.0,0.0,0.0,0.0,0.0,0.0,0.0,0.0,0.0,0.0,0.0,0.0,0.0,0.0,0.0,0.0,0.0,0.0,0.0,0.0,0.0,0.0,0.0,0.0,0.0,0.0,0.0,0.0,0.0,0.0,0.0,0.0,0.0,0.0,0.0,0.0,0.0,0.0,0.0,0.0,0.0,0.0,0.0,0.0,0.0,0.0,0.0,0.0,0.0,0.0,0.0,0.0,0.0,0.0,0.0,0.0,0.0,0.0,0.0,0.0,0.0,0.0,0.0,0.0,0.0,0.0,0.0,0.0,0.0,0.0,0.0,0.0,0.0,0.0,0.0,0.0,0.0,0.0,0.0,0.0,0.0,0.0,0.0,0.0,0.0,0.0,0.0,0.0,0.0,0.0,0.0,0.0,0.0,0.0,0.0,0.0,0.0,0.0,0.0,0.0,0.0,0.0,0.0,0.0,0.0,0.0,0.0,0.0,0.0,0.0,0.0,0.0,0.0,0.0,0.0,0.0,0.0,0.0,0.0,0.0,0.0,0.0,0.0,0.0,0.0,0.0,0.0,0.0,0.0,0.0,0.0,0.0,0.0,0.0,0.0,0.0,0.0,0.0,0.0,0.0,0.0,0.0,0.0,0.0,0.0,0.0,0.0,0.0,0.0,0.0,0.0,0.0,0.0,0.0,0.0,0.0,0.0,0.0,0.0,0.0,0.0,0.0,0.0,0.0,0.0,0.0,0.0,0.0,0.0,0.0,0.0,0.0,0.0,0.0,0.0,0.0,0.0,0.0,0.0,0.0,0.0,0.0,0.0,0.0,0.0,0.0,0.0,0.0,0.0,0.0,0.0,0.0,0.0,0.0,0.0,0.0,0.0,0.0,0.0,0.0,0.0,0.0,0.0,0.0,0.0,0.0,0.0,0.0,0.0,0.0,0.0,0.0,0.0,0.0,0.0,0.0,0.0,0.0,0.0,0.0,0.0,0.0,0.0,0.0,0.0,0.0,0.0,0.0,0.0,0.0,0.0,0.0,0.0,0.0,0.0,0.0,0.0,0.0,0.0,0.0,0.0,0.0,0.0,0.0,0.0,0.0,0.0,0.0,0.0,0.0,0.0,0.0,0.0,0.0,0.0,0.0,0.0,0.0,0.0,0.0,0.0,0.0,0.0,0.0,0.0,0.0,0.0,0.0,0.0,0.0,0.0,0.0,0.0,0.0,0.0,0.0,0.0,0.0,0.0,0.0,0.0,0.0,0.0,0.0,0.0,0.0,0.0,0.0,0.0,0.0,0.0,0.0,0.0,0.0,0.0,0.0,0.0,0.0,0.0,0.0,0.0,0.0,0.0,0.0,0.0,0.0,0.0,0.0,0.0,0.0,0.0,0.0,0.0,0.0,0.0,0.0,0.0,0.0,0.0,0.0,0.0,0.0,0.0,0.0,0.0,0.0,0.0,0.0,0.0,0.0,0.0,0.0,0.0,0.0,0.0,0.0,0.0,0.0,0.0,0.0,0.0,0.0,0.0,0.0,0.0,0.0,0.0,0.0,0.0,0.0,0.0,0.0,0.0,0.0,0.0,0.0,0.0,0.0,0.0,0.0,0.0,0.0,0.0,0.0,0.0,0.0,0.0,0.0,0.0,0.0,0.0,0.0,0.0,0.0,0.0,0.0,0.0,0.0,0.0,0.0,0.0,0.0,0.0,0.0,0.0,0.0,0.0,0.0,0.0,0.0,0.0,0.0,0.0,0.0,0.0,0.0,0.0,0.0,0.0,0.0,0.0,0.0,0.0,0.0,0.0,0.0,0.0,0.0,0.0,0.0,0.0,0.0,0.0,0.0,0.0,0.0,0.0,0.0,0.0,0.0,0.0,0.0,0.0,0.0,0.0,0.0,0.0,0.0,0.0,0.0,0.0,0.0,0.0,0.0,0.0,0.0,0.0,0.0,0.0,0.0,0.0,0.0,0.0,0.0,0.0,0.0,0.0,0.0,0.0,0.0,0.0,0.0,0.0,0.0,0.0,0.0,0.0,0.0,0.0,0.0,0.0,0.0,0.0,0.0,0.0,0.0,0.0,0.0,0.0,0.0,0.0,0.0,0.0,0.0,0.0,0.0,0.0,0.0,0.0,0.0,0.0,0.0,0.0,0.0,0.0,0.0,0.0,0.0,0.0,0.0,0.0,0.0,0.0,0.0,0.0,0.0,0.0,0.0,0.0,0.0,0.0,0.0,0.0,0.0,0.0,0.0,0.0,0.0,0.0,0.0,0.0,0.0,0.0,0.0,0.0,0.0,0.0,0.0,0.0,0.0,0.0,0.0,0.0,0.0,0.0,0.0,0.0,0.0,0.0,0.0,0.0,0.0,0.0,0.0,0.0,0.0,0.0,0.0,0.0,0.0,0.0,0.0,0.0,0.0,0.0,0.0,0.0,0.0,0.0,0.0,0.0,0.0,0.0,0.0,0.0,0.0,0.0,0.0,0.0,0.0,0.0,0.0,0.0,0.0,0.0,0.0,0.0,0.0,0.0,0.0,0.0,0.0,0.0,0.0,0.0,0.0,0.0,0.0,0.0,0.0,0.0,0.0,0.0,0.0,0.0,0.0,0.0,0.0,0.0,0.0,0.0,0.0,0.0,0.0,0.0,0.0,0.0,0.0,0.0,0.0,0.0,0.0,0.0,0.0,0.0,0.0,0.0,0.0,0.0,0.0,0.0,0.0,0.0,0.0,0.0,0.0,0.0,0.0,0.0,0.0,0.0,0.0,0.0,0.0,0.0,0.0,0.0,0.0,0.0,0.0,0.0,0.0,0.0,0.0,0.0,0.0,0.0,0.0,0.0,0.0,0.0,0.0,0.0,0.0,0.0,0.0,0.0,0.0,0.0,0.0,0.0,0.0,0.0,0.0,0.0,0.0,0.0,0.0,0.0,0.0,0.0,0.0,0.0,0.0,0.0,0.0,0.0,0.0,0.0,0.0,0.0,0.0,0.0,0.0,0.0,0.0,0.0,0.0,0.0,0.0,0.0,0.0,0.0,0.0,0.0,0.0,-2.0265,0.0,0.0,0.0,0.0,0.0,0.0,0.0,0.0,0.0,0.0,0.0,0.0,0.0,0.0,0.0,0.0,0.0,0.0,0.0,0.0,0.0,0.0,0.0,0.0,0.0,0.0,0.0,0.0,0.0,0.0,0.0,0.0,0.0,0.0,0.0,0.0,0.0,0.0,0.0,0.0,0.0,0.0,0.0,0.0,0.0,0.0,0.0,0.0,0.0,0.0,0.0,0.0,0.0,0.0,0.0,0.0,0.0,0.0,0.0,0.0,0.0,0.0,0.0,0.0,0.0,0.0,0.0,0.0,0.0,0.0,0.0,0.0,0.0,0.0,0.0,0.0,0.0,0.0,0.0,0.0,0.0,0.0,0.0,0.0,0.0,0.0,0.0,0.0,0.0,0.0,0.0,0.0,0.0,0.0,0.0,0.0,0.0,0.0,0.0,0.0,0.0,0.0,0.0,0.0,0.0,0.0,0.0,0.0,0.0,0.0,-2.0292,-2.0292,-2.0292,-2.0292,-2.0323,0.0,0.0,0.0,0.0,0.0,0.0,0.0,0.0,0.0,0.0,0.0,0.0,0.0,0.0,0.0,0.0,0.0,0.0,0.0,0.0,0.0,0.0,0.0,0.0,0.0,0.0,0.0,0.0,0.0,0.0,0.0,0.0,0.0,0.0,0.0,0.0,0.0,0.0,0.0,0.0,0.0,0.0,0.0,0.0,0.0,0.0,0.0,0.0,0.0,0.0,0.0,0.0,0.0,0.0,0.0,0.0,0.0,0.0,0.0,0.0,0.0,0.0,0.0,0.0,0.0,0.0,0.0,0.0,0.0,0.0,0.0,0.0,0.0,0.0,0.0,0.0,0.0,0.0,0.0,0.0,0.0,0.0,0.0,0.0,0.0,0.0,0.0,0.0,0.0,0.0,0.0,0.0,0.0,0.0,0.0,0.0,0.0,0.0,0.0,0.0,0.0,0.0,0.0,0.0,0.0,0.0,0.0,0.0,0.0,0.0,0.0,0.0,-2.0608,-2.082,-2.1205,0.0,0.0,0.0,0.0,0.0,0.0,0.0,0.0,0.0,0.0,0.0,0.0,0.0,0.0,0.0,0.0,0.0,0.0,0.0,0.0,0.0,0.0,0.0,0.0,0.0,0.0,0.0,0.0,0.0,0.0,0.0,0.0,0.0,0.0,0.0,0.0,0.0,0.0,0.0,0.0,0.0,0.0,0.0,0.0,0.0,0.0,0.0,0.0,0.0,0.0,0.0,0.0,0.0,0.0,0.0,0.0,0.0,0.0,0.0,0.0,0.0,0.0,0.0,0.0,0.0,0.0,0.0,0.0,0.0,0.0,0.0,0.0,0.0,0.0,0.0,0.0,0.0,0.0,0.0,0.0,0.0,0.0,0.0,0.0,0.0,0.0,0.0,0.0,0.0,0.0,0.0,0.0,0.0,0.0,0.0,0.0,0.0,0.0,0.0,0.0,0.0,0.0,0.0,0.0,0.0,0.0,0.0,0.0,0.0,0.0,-2.0762,-2.1536,-2.1564,0.0,-2.3713,0.0,0.0,0.0,0.0,0.0,0.0,0.0,0.0,0.0,0.0,0.0,0.0,0.0,0.0,0.0,0.0,0.0,0.0,0.0,0.0,0.0,0.0,0.0,0.0,0.0,0.0,0.0,0.0,0.0,0.0,0.0,0.0,0.0,0.0,0.0,0.0,0.0,0.0,0.0,0.0,0.0,0.0,0.0,0.0,0.0,0.0,0.0,0.0,0.0,0.0,0.0,0.0,0.0,0.0,0.0,0.0,0.0,0.0,0.0,0.0,0.0,0.0,0.0,0.0,0.0,0.0,0.0,0.0,0.0,0.0,0.0,0.0,0.0,0.0,0.0,0.0,0.0,0.0,0.0,0.0,0.0,0.0,0.0,0.0,0.0,0.0,0.0,0.0,0.0,0.0,0.0,0.0,0.0,0.0,0.0,0.0,0.0,0.0,0.0,0.0,0.0,0.0,0.0,0.0,0.0,0.0,0.0,0.0,0.0,0.0,-2.0867,-2.1747,-2.1728,-2.2273,0.0,0.0,0.0,0.0,0.0,0.0,0.0,0.0,0.0,0.0,0.0,0.0,0.0,0.0,0.0,0.0,0.0,0.0,0.0,0.0,0.0,0.0,0.0,0.0,0.0,0.0,0.0,0.0,0.0,0.0,0.0,0.0,0.0,0.0,0.0,0.0,0.0,0.0,0.0,0.0,0.0,0.0,0.0,0.0,0.0,0.0,0.0,0.0,0.0,0.0,0.0,0.0,0.0,0.0,0.0,0.0,0.0,0.0,0.0,0.0,0.0,0.0,0.0,0.0,0.0,0.0,0.0,0.0,0.0,0.0,0.0,0.0,0.0,0.0,0.0,0.0,0.0,0.0,0.0,0.0,0.0,0.0,0.0,0.0,0.0,0.0,0.0,0.0,0.0,0.0,0.0,0.0,0.0,0.0,0.0,0.0,0.0,0.0,0.0,0.0,0.0,0.0,0.0,0.0,0.0,0.0,0.0,0.0,0.0,0.0,-2.1035,-2.1289,-2.209,-2.2129,-2.2422,-2.3086,0.0,0.0,0.0,0.0,0.0,0.0,0.0,0.0,0.0,0.0,0.0,0.0,0.0,0.0,0.0,0.0,0.0,0.0,0.0,0.0,0.0,0.0,0.0,0.0,0.0,0.0,0.0,0.0,0.0,0.0,0.0,0.0,0.0,0.0,0.0,0.0,0.0,0.0,0.0,0.0,0.0,0.0,0.0,0.0,0.0,0.0,0.0,0.0,0.0,0.0,0.0,0.0,0.0,0.0,0.0,0.0,0.0,0.0,0.0,0.0,0.0,0.0,0.0,0.0,0.0,0.0,0.0,0.0,0.0,0.0,0.0,0.0,0.0,0.0,0.0,0.0,0.0,0.0,0.0,0.0,0.0,0.0,0.0,0.0,0.0,0.0,0.0,0.0,0.0,0.0,0.0,0.0,0.0,0.0,0.0,0.0,0.0,0.0,0.0,0.0,0.0,0.0,0.0,0.0,0.0,0.0,0.0,0.0,-2.293,-2.2246,-2.2227,-2.2988,-2.3105,-2.3125,0.0,0.0,0.0,0.0,0.0,0.0,0.0,0.0,0.0,0.0,0.0,0.0,0.0,0.0,0.0,0.0,0.0,0.0,0.0,0.0,0.0,0.0,0.0,0.0,0.0,0.0,0.0,0.0,0.0,0.0,0.0,0.0,0.0,0.0,0.0,0.0,0.0,0.0,0.0,0.0,0.0,0.0,0.0,0.0,0.0,0.0,0.0,0.0,0.0,0.0,0.0,0.0,0.0,0.0,0.0,0.0,0.0,0.0,0.0,0.0,0.0,0.0,0.0,0.0,0.0,0.0,0.0,0.0,0.0,0.0,0.0,0.0,0.0,0.0,0.0,0.0,0.0,0.0,0.0,0.0,0.0,0.0,0.0,0.0,0.0,0.0,0.0,0.0,0.0,0.0,0.0,0.0,0.0,0.0,0.0,0.0,0.0,0.0,0.0,0.0,0.0,0.0,0.0,0.0,0.0,0.0,0.0,0.0,0.0,-2.1523,-2.1758,-2.2305,-2.3105,-2.2637,-2.2598,0.0,0.0,0.0,0.0,0.0,0.0,0.0,0.0,0.0,0.0,0.0,0.0,0.0,0.0,0.0,0.0,0.0,0.0,0.0,0.0,0.0,0.0,0.0,0.0,0.0,0.0,0.0,0.0,0.0,0.0,0.0,0.0,0.0,0.0,0.0,0.0,0.0,0.0,0.0,0.0,0.0,0.0,0.0,0.0,0.0,0.0,0.0,0.0,0.0,0.0,0.0,0.0,0.0,0.0,0.0,0.0,0.0,0.0,0.0,0.0,0.0,0.0,0.0,0.0,0.0,0.0,0.0,0.0,0.0,0.0,0.0,0.0,0.0,0.0,0.0,0.0,0.0,0.0,0.0,0.0,0.0,0.0,0.0,0.0,0.0,0.0,0.0,0.0,0.0,0.0,0.0,0.0,0.0,0.0,0.0,0.0,0.0,0.0,0.0,0.0,0.0,0.0,0.0,0.0,0.0,0.0,0.0,0.0,0.0,-2.1426,0.0,-2.2852,-2.3144,-2.2617,-2.2285,0.0,0.0,0.0,0.0,0.0,0.0,0.0,0.0,0.0,0.0,0.0,0.0,0.0,0.0,0.0,0.0,0.0,0.0,0.0,0.0,0.0,0.0,0.0,0.0,0.0,0.0,0.0,0.0,0.0,0.0,0.0,0.0,0.0,0.0,0.0,0.0,0.0,0.0,0.0,0.0,0.0,0.0,0.0,0.0,0.0,0.0,0.0,0.0,0.0,0.0,0.0,0.0,0.0,0.0,0.0,0.0,0.0,0.0,0.0,0.0,0.0,0.0,0.0,0.0,0.0,0.0,0.0,0.0,0.0,0.0,0.0,0.0,0.0,0.0,0.0,0.0,0.0,0.0,0.0,0.0,0.0,0.0,0.0,0.0,0.0,0.0,0.0,0.0,0.0,0.0,0.0,0.0,0.0,0.0,0.0,0.0,0.0,0.0,0.0,0.0,0.0,0.0,0.0,0.0,0.0,0.0,0.0,0.0,-2.1484,-2.3105,-2.3887,-2.3906,-2.3242,-2.3125,-2.2344,0.0,0.0,0.0,0.0,0.0,0.0,0.0,0.0,0.0,0.0,0.0,0.0,0.0,0.0,0.0,0.0,0.0,0.0,0.0,0.0,0.0,0.0,0.0,0.0,0.0,0.0,0.0,0.0,0.0,0.0,0.0,0.0,0.0,0.0,0.0,0.0,0.0,0.0,0.0,0.0,0.0,0.0,0.0,0.0,0.0,0.0,0.0,0.0,0.0,0.0,0.0,0.0,0.0,0.0,0.0,0.0,0.0,0.0,0.0,0.0,0.0,0.0,0.0,0.0,0.0,0.0,0.0,0.0,0.0,0.0,0.0,0.0,0.0,0.0,0.0,0.0,0.0,0.0,0.0,0.0,0.0,0.0,0.0,0.0,0.0,0.0,0.0,0.0,0.0,0.0,0.0,0.0,0.0,0.0,0.0,0.0,0.0,0.0,0.0,0.0,0.0,0.0,0.0,0.0,0.0,0.0,0.0,0.0,0.0,-2.2324,-2.3086,-2.3672,-2.3984,-2.3477,-2.3184,0.0,0.0,0.0,0.0,0.0,0.0,0.0,0.0,0.0,0.0,0.0,0.0,0.0,0.0,0.0,0.0,0.0,0.0,0.0,0.0,0.0,0.0,0.0,0.0,0.0,0.0,0.0,0.0,0.0,0.0,0.0,0.0,0.0,0.0,0.0,0.0,0.0,0.0,0.0,0.0,0.0,0.0,0.0,0.0,0.0,0.0,0.0,0.0,0.0,0.0,0.0,0.0,0.0,0.0,0.0,0.0,0.0,0.0,0.0,0.0,0.0,0.0,0.0,0.0,0.0,0.0,0.0,0.0,0.0,0.0,0.0,0.0,0.0,0.0,0.0,0.0,0.0,0.0,0.0,0.0,0.0,0.0,0.0,0.0,0.0,0.0,0.0,0.0,0.0,0.0,0.0,0.0,0.0,0.0,0.0,0.0,0.0,0.0,0.0,0.0,0.0,0.0,0.0,0.0,0.0,0.0,0.0,0.0,0.0,-2.291,-2.3652,-2.418,-2.4375,-2.3906,-2.373,-2.3906,0.0,0.0,0.0,0.0,0.0,0.0,0.0,0.0,0.0,0.0,0.0,0.0,0.0,0.0,0.0,0.0,0.0,0.0,0.0,0.0,0.0,0.0,0.0,0.0,0.0,0.0,0.0,0.0,0.0,0.0,0.0,0.0,0.0,0.0,0.0,0.0,0.0,0.0,0.0,0.0,0.0,0.0,0.0,0.0,0.0,0.0,0.0,0.0,0.0,0.0,0.0,0.0,0.0,0.0,0.0,0.0,0.0,0.0,0.0,0.0,0.0,0.0,0.0,0.0,0.0,0.0,0.0,0.0,0.0,0.0,0.0,0.0,0.0,0.0,0.0,0.0,0.0,0.0,0.0,0.0,0.0,0.0,0.0,0.0,0.0,0.0,0.0,0.0,0.0,0.0,0.0,0.0,0.0,0.0,0.0,0.0,0.0,0.0,0.0,0.0,0.0,0.0,0.0,0.0,0.0,0.0,0.0,0.0,-2.4492,-2.5273,-2.5293,-2.4512,-2.4473,-2.4102,0.0,0.0,0.0,0.0,0.0,0.0,0.0,0.0,0.0,0.0,0.0,0.0,0.0,0.0,0.0,0.0,0.0,0.0,0.0,0.0,0.0,0.0,0.0,0.0,0.0,0.0,0.0,0.0,0.0,0.0,0.0,0.0,0.0,0.0,0.0,0.0,0.0,0.0,0.0,0.0,0.0,0.0,0.0,0.0,0.0,0.0,0.0,0.0,0.0,0.0,0.0,0.0,0.0,0.0,0.0,0.0,0.0,0.0,0.0,0.0,0.0,0.0,0.0,0.0,0.0,0.0,0.0,0.0,0.0,0.0,0.0,0.0,0.0,0.0,0.0,0.0,0.0,0.0,0.0,0.0,0.0,0.0,0.0,0.0,0.0,0.0,0.0,0.0,0.0,0.0,0.0,0.0,0.0,0.0,0.0,0.0,0.0,0.0,0.0,0.0,0.0,0.0,0.0,0.0,0.0,0.0,0.0,0.0,0.0,-2.5371,-2.5586,-2.5586,-2.5371,-2.5371,-2.5254,0.0,0.0,0.0,0.0,0.0,0.0,0.0,0.0,0.0,0.0,0.0,0.0,0.0,0.0,0.0,0.0,0.0,0.0,0.0,0.0,0.0,0.0,0.0,0.0,0.0,0.0,0.0,0.0,0.0,0.0,0.0,0.0,0.0,0.0,0.0,0.0,0.0,0.0,0.0,0.0,0.0,0.0,0.0,0.0,0.0,0.0,0.0,0.0,0.0,0.0,0.0,0.0,0.0,0.0,0.0,0.0,0.0,0.0,0.0,0.0,0.0,0.0,0.0,0.0,0.0,0.0,0.0,0.0,0.0,0.0,0.0,0.0,0.0,0.0,0.0,0.0,0.0,0.0,0.0,0.0,0.0,0.0,0.0,0.0,0.0,0.0,0.0,0.0,0.0,0.0,0.0,0.0,0.0,0.0,0.0,0.0,0.0,0.0,0.0,0.0,0.0,0.0,0.0,0.0,0.0,0.0,0.0,0.0,-2.5703,-2.5703,-2.5703,-2.5703,-2.5703,-2.5703,-2.5703,0.0,0.0,0.0,0.0,0.0,0.0,0.0,0.0,0.0,0.0,0.0,0.0,0.0,0.0,0.0,0.0,0.0,0.0,0.0,0.0,0.0,0.0,0.0,0.0,0.0,0.0,0.0,0.0,0.0,0.0,0.0,0.0,0.0,0.0,0.0,0.0,0.0,0.0,0.0,0.0,0.0,0.0,0.0,0.0,0.0,0.0,0.0,0.0,0.0,0.0,0.0,0.0,0.0,0.0,0.0,0.0,0.0,0.0,0.0,0.0,0.0,0.0,0.0,0.0,0.0,0.0,0.0,0.0,0.0,0.0,0.0,0.0,0.0,0.0,0.0,0.0,0.0,0.0,0.0,0.0,0.0,0.0,0.0,0.0,0.0,0.0,0.0,0.0,0.0,0.0,0.0,0.0,0.0,0.0,0.0,0.0,0.0,0.0,0.0,0.0,0.0,0.0,0.0,0.0,0.0,0.0,0.0,0.0,-2.5703,-2.5703,-2.5703,-2.5703,-2.5703,-2.5703,-2.5703,0.0,0.0,0.0,0.0,0.0,0.0,0.0,0.0,0.0,0.0,0.0,0.0,0.0,0.0,0.0,0.0,0.0,0.0,0.0,0.0,0.0,0.0,0.0,0.0,0.0,0.0,0.0,0.0,0.0,0.0,0.0,0.0,0.0,0.0,0.0,0.0,0.0,0.0,0.0,0.0,0.0,0.0,0.0,0.0,0.0,0.0,0.0,0.0,0.0,0.0,0.0,0.0,0.0,0.0,0.0,0.0,0.0,0.0,0.0,0.0,0.0,0.0,0.0,0.0,0.0,0.0,0.0,0.0,0.0,0.0,0.0,0.0,0.0,0.0,0.0,0.0,0.0,0.0,0.0,0.0,0.0,0.0,0.0,0.0,0.0,0.0,0.0,0.0,0.0,0.0,0.0,0.0,0.0,0.0,0.0,0.0,0.0,0.0,0.0,0.0,0.0,0.0,0.0,0.0,0.0,0.0,0.0,0.0,-2.5703,-2.5703,-2.5703,-2.5703,-2.5703,-2.5703,-2.5703,0.0,0.0,0.0,0.0,0.0,0.0,0.0,0.0,0.0,0.0,0.0,0.0,0.0,0.0,0.0,0.0,0.0,0.0,0.0,0.0,0.0,0.0,0.0,0.0,0.0,0.0,0.0,0.0,0.0,0.0,0.0,0.0,0.0,0.0,0.0,0.0,0.0,0.0,0.0,0.0,0.0,0.0,0.0,0.0,0.0,0.0,0.0,0.0,-2.5313,0.0,0.0,0.0,0.0,0.0,0.0,0.0,0.0,0.0,0.0,0.0,0.0,0.0,0.0,0.0,0.0,0.0,0.0,0.0,0.0,0.0,0.0,0.0,0.0,0.0,0.0,0.0,0.0,0.0,0.0,0.0,0.0,0.0,0.0,0.0,0.0,0.0,0.0,0.0,0.0,0.0,0.0,0.0,0.0,0.0,0.0,0.0,0.0,0.0,0.0,0.0,0.0,0.0,0.0,0.0,0.0,0.0,0.0,0.0,-2.5703,-2.5703,-2.5703,-2.5703,-2.5703,-2.5703,-2.5703,0.0,0.0,0.0,0.0,0.0,0.0,0.0,0.0,0.0,0.0,0.0,0.0,0.0,0.0,0.0,0.0,0.0,0.0,0.0,0.0,0.0,0.0,0.0,0.0,0.0,0.0,0.0,0.0,0.0,0.0,0.0,0.0,0.0,0.0,0.0,0.0,0.0,0.0,0.0,0.0,0.0,0.0,0.0,0.0,0.0,0.0,0.0,0.0,0.0,0.0,0.0,0.0,0.0,0.0,0.0,0.0,0.0,0.0,0.0,0.0,0.0,0.0,0.0,0.0,0.0,0.0,0.0,0.0,0.0,0.0,0.0,0.0,0.0,0.0,0.0,0.0,0.0,0.0,0.0,0.0,0.0,0.0,0.0,0.0,0.0,0.0,0.0,0.0,0.0,0.0,0.0,0.0,0.0,0.0,0.0,0.0,0.0,0.0,0.0,0.0,0.0,0.0,0.0,0.0,0.0,0.0,0.0,-2.5703,-2.5703,-2.5703,-2.5703,-2.5703,-2.5703,-2.5703,-2.5703,-2.5703,0.0,0.0,0.0,0.0,0.0,0.0,0.0,0.0,0.0,0.0,0.0,0.0,0.0,0.0,0.0,0.0,0.0,0.0,0.0,0.0,0.0,0.0,0.0,0.0,0.0,0.0,0.0,0.0,0.0,0.0,0.0,0.0,0.0,0.0,0.0,0.0,0.0,0.0,-2.1891,-2.3214,0.0,0.0,0.0,0.0,0.0,0.0,0.0,0.0,-2.5274,0.0,0.0,0.0,0.0,0.0,0.0,0.0,0.0,0.0,0.0,0.0,0.0,0.0,0.0,0.0,0.0,0.0,0.0,0.0,0.0,0.0,0.0,0.0,0.0,0.0,0.0,0.0,0.0,0.0,0.0,0.0,0.0,0.0,0.0,0.0,0.0,0.0,0.0,0.0,0.0,0.0,0.0,0.0,0.0,0.0,0.0,0.0,0.0,0.0,0.0,0.0,0.0,0.0,0.0,0.0,0.0,-2.5703,-2.5703,-2.5703,-2.5703,-2.5703,-2.5703,-2.5703,-2.5703,-2.5703,-2.5703,0.0,0.0,0.0,0.0,0.0,0.0,0.0,0.0,0.0,0.0,0.0,0.0,0.0,0.0,0.0,0.0,0.0,0.0,0.0,0.0,0.0,0.0,0.0,0.0,0.0,0.0,0.0,0.0,0.0,0.0,0.0,0.0,0.0,0.0,0.0,0.0,0.0,0.0,0.0,-2.3552,-2.4418,0.0,0.0,0.0,0.0,0.0,0.0,0.0,0.0,-2.5034,0.0,0.0,0.0,0.0,0.0,0.0,0.0,0.0,0.0,0.0,0.0,0.0,0.0,0.0,0.0,0.0,0.0,0.0,0.0,0.0,0.0,0.0,0.0,0.0,0.0,0.0,0.0,0.0,0.0,0.0,0.0,0.0,0.0,0.0,0.0,0.0,0.0,0.0,0.0,0.0,0.0,0.0,0.0,0.0,0.0,0.0,0.0,0.0,0.0,0.0,0.0,0.0,0.0,0.0,0.0,-2.5703,-2.5703,-2.5703,-2.5703,-2.5703,-2.5703,-2.5703,-2.5703,-2.5703,0.0,0.0,0.0,0.0,0.0,0.0,0.0,0.0,0.0,0.0,0.0,0.0,0.0,0.0,0.0,0.0,0.0,0.0,0.0,0.0,0.0,0.0,0.0,0.0,0.0,0.0,0.0,0.0,0.0,0.0,0.0,0.0,0.0,0.0,0.0,0.0,0.0,0.0,0.0,0.0,-2.388,-2.4399,-2.5226,0.0,0.0,0.0,0.0,0.0,0.0,-2.5214,-2.5088,0.0,0.0,0.0,0.0,0.0,0.0,0.0,0.0,0.0,0.0,0.0,0.0,0.0,0.0,0.0,0.0,0.0,0.0,0.0,0.0,0.0,0.0,0.0,0.0,0.0,0.0,0.0,0.0,0.0,0.0,0.0,0.0,0.0,0.0,0.0,0.0,0.0,0.0,0.0,0.0,0.0,0.0,0.0,0.0,0.0,0.0,0.0,0.0,0.0,0.0,0.0,0.0,0.0,0.0,0.0,-2.5703,-2.5703,-2.5703,-2.5703,-2.5703,-2.5703,-2.5703,-2.5703,-2.5781,0.0,0.0,0.0,0.0,0.0,0.0,0.0,0.0,0.0,0.0,0.0,0.0,0.0,0.0,0.0,0.0,0.0,0.0,0.0,0.0,0.0,0.0,0.0,0.0,0.0,0.0,0.0,0.0,0.0,0.0,0.0,0.0,0.0,0.0,0.0,0.0,0.0,0.0,0.0,0.0,0.0,-2.4582,-2.5187,-2.5313,0.0,0.0,0.0,0.0,-2.5241,-2.5233,0.0,0.0,0.0,0.0,0.0,0.0,0.0,0.0,0.0,0.0,0.0,0.0,0.0,0.0,0.0,0.0,0.0,0.0,0.0,0.0,0.0,0.0,0.0,0.0,0.0,0.0,0.0,0.0,0.0,0.0,0.0,0.0,0.0,0.0,0.0,0.0,0.0,0.0,0.0,0.0,0.0,0.0,0.0,0.0,0.0,0.0,0.0,0.0,0.0,0.0,0.0,0.0,0.0,0.0,0.0,0.0,-2.5703,-2.5703,-2.5703,-2.5703,-2.5703,-2.5703,-2.5703,-2.5703,-2.6074,0.0,0.0,0.0,0.0,0.0,0.0,0.0,0.0,0.0,0.0,0.0,0.0,0.0,0.0,0.0,0.0,0.0,0.0,0.0,0.0,0.0,0.0,0.0,0.0,0.0,0.0,0.0,0.0,0.0,0.0,0.0,0.0,0.0,0.0,0.0,0.0,0.0,0.0,0.0,0.0,0.0,-2.5207,-2.5293,-2.5313,-2.5313,0.0,0.0,-2.522,-2.5061,-2.5013,0.0,0.0,0.0,0.0,0.0,0.0,0.0,0.0,0.0,0.0,0.0,0.0,0.0,0.0,0.0,0.0,0.0,0.0,0.0,0.0,0.0,0.0,0.0,0.0,0.0,0.0,0.0,0.0,0.0,0.0,0.0,0.0,0.0,0.0,0.0,0.0,0.0,0.0,0.0,0.0,0.0,0.0,0.0,0.0,0.0,0.0,0.0,0.0,0.0,0.0,0.0,0.0,0.0,0.0,0.0,-2.5703,-2.5723,-2.6172,-2.6426,-2.6445,-2.6914,-2.7168,-2.7168,-2.7168,-2.7344,0.0,0.0,0.0,0.0,0.0,0.0,0.0,0.0,0.0,0.0,0.0,0.0,0.0,0.0,0.0,0.0,0.0,0.0,0.0,0.0,0.0,0.0,0.0,0.0,0.0,0.0,0.0,0.0,0.0,0.0,0.0,0.0,0.0,0.0,0.0,0.0,0.0,0.0,0.0,0.0,0.0,0.0,-2.5313,-2.5313,0.0,0.0,0.0,-2.5273,-2.5191,0.0,0.0,0.0,0.0,0.0,0.0,0.0,0.0,0.0,0.0,0.0,0.0,0.0,0.0,0.0,0.0,0.0,0.0,0.0,0.0,0.0,0.0,0.0,0.0,0.0,0.0,0.0,0.0,0.0,0.0,0.0,0.0,0.0,0.0,0.0,0.0,0.0,0.0,0.0,0.0,0.0,0.0,0.0,0.0,0.0,0.0,0.0,0.0,0.0,0.0,0.0,0.0,0.0,0.0,0.0,0.0,0.0,-2.6348,-2.6992,-2.7324,-2.7344,-2.7949,-2.8281,-2.8281,-2.8281,0.0,0.0,0.0,0.0,0.0,0.0,0.0,0.0,0.0,0.0,0.0,0.0,0.0,0.0,0.0,0.0,0.0,0.0,0.0,0.0,0.0,0.0,0.0,0.0,0.0,0.0,0.0,-2.5313,0.0,0.0,0.0,0.0,0.0,0.0,0.0,0.0,0.0,0.0,0.0,0.0,0.0,0.0,-2.5313,-2.5313,-2.5313,-2.5313,0.0,0.0,-2.5293,-2.5226,-2.5215,-2.5141,0.0,0.0,0.0,0.0,0.0,0.0,0.0,0.0,0.0,0.0,0.0,0.0,0.0,0.0,0.0,0.0,0.0,0.0,0.0,0.0,0.0,0.0,0.0,0.0,0.0,0.0,0.0,0.0,0.0,0.0,0.0,0.0,0.0,0.0,0.0,0.0,0.0,0.0,0.0,0.0,0.0,0.0,0.0,0.0,0.0,0.0,0.0,0.0,0.0,0.0,0.0,0.0,0.0,0.0,0.0,-2.8125,-2.8184,-2.8223,-2.8203,-2.8262,-2.8281,-2.8281,-2.8301,-2.8711,0.0,0.0,0.0,0.0,0.0,0.0,0.0,0.0,0.0,0.0,0.0,0.0,0.0,0.0,0.0,0.0,0.0,0.0,0.0,0.0,0.0,0.0,0.0,0.0,0.0,0.0,0.0,0.0,0.0,0.0,0.0,0.0,0.0,0.0,0.0,0.0,0.0,0.0,0.0,0.0,0.0,-2.5313,-2.5313,-2.5313,-2.5313,0.0,0.0,-2.5226,-2.5034,-2.5007,-2.4892,-2.4607,0.0,0.0,0.0,0.0,0.0,0.0,0.0,0.0,0.0,0.0,0.0,0.0,0.0,0.0,0.0,0.0,0.0,0.0,0.0,0.0,0.0,0.0,0.0,0.0,0.0,0.0,0.0,0.0,0.0,0.0,0.0,0.0,0.0,0.0,0.0,0.0,0.0,0.0,0.0,0.0,0.0,0.0,0.0,0.0,0.0,0.0,0.0,0.0,0.0,0.0,0.0,0.0,0.0,-2.8281,-2.8301,-2.8828,-2.9101,-2.9121,-2.9629,-2.9902,-2.9902,-2.9922,-3.0059,0.0,0.0,0.0,0.0,0.0,0.0,0.0,0.0,0.0,0.0,0.0,0.0,0.0,0.0,0.0,0.0,0.0,0.0,0.0,0.0,0.0,0.0,0.0,0.0,0.0,0.0,0.0,0.0,-2.5313,-2.5313,-2.5313,0.0,0.0,0.0,0.0,0.0,0.0,0.0,0.0,0.0,0.0,-2.5313,-2.5313,-2.5313,0.0,0.0,-2.5313,-2.5233,-2.5031,-2.5005,-2.4943,-2.4731,-2.4594,0.0,0.0,0.0,0.0,0.0,0.0,0.0,0.0,0.0,0.0,0.0,0.0,0.0,0.0,0.0,0.0,0.0,0.0,0.0,0.0,0.0,0.0,0.0,0.0,0.0,0.0,0.0,0.0,0.0,0.0,0.0,0.0,0.0,0.0,0.0,0.0,0.0,0.0,0.0,0.0,0.0,0.0,0.0,0.0,0.0,0.0,0.0,0.0,0.0,0.0,0.0,0.0,-2.9062,-2.9062,-2.9668,-3.0,-2.998,-3.0586,-3.0918,-3.0918,-3.0918,-3.0918,0.0,0.0,0.0,0.0,0.0,0.0,0.0,0.0,0.0,0.0,0.0,0.0,0.0,0.0,0.0,0.0,0.0,0.0,0.0,0.0,0.0,0.0,0.0,0.0,0.0,0.0,0.0,0.0,-2.5313,-2.5313,-2.5313,0.0,0.0,0.0,0.0,0.0,0.0,0.0,0.0,0.0,0.0,-2.5313,-2.5303,-2.5234,-2.5205,-2.5226,-2.5184,-2.5087,-2.496,-2.4955,-2.4968,-2.4814,0.0,0.0,0.0,0.0,0.0,0.0,0.0,0.0,0.0,0.0,0.0,0.0,0.0,0.0,0.0,0.0,0.0,0.0,0.0,0.0,0.0,0.0,0.0,0.0,0.0,0.0,0.0,0.0,0.0,0.0,-2.9609,0.0,0.0,0.0,0.0,0.0,0.0,0.0,0.0,0.0,0.0,0.0,0.0,0.0,0.0,0.0,0.0,0.0,0.0,0.0,0.0,0.0,0.0,-3.082,-3.084,-3.084,-3.0879,-3.0879,-3.0898,-3.0957,-3.0957,-3.0937,-3.0918,-3.0937,0.0,0.0,0.0,0.0,0.0,0.0,0.0,0.0,0.0,0.0,0.0,0.0,0.0,0.0,0.0,0.0,0.0,0.0,0.0,0.0,0.0,0.0,0.0,0.0,0.0,0.0,-2.5313,-2.5313,-2.5313,0.0,0.0,0.0,0.0,0.0,0.0,0.0,0.0,0.0,0.0,-2.5313,-2.5313,-2.5303,-2.5141,-2.5031,-2.5013,-2.4917,-2.4818,-2.4823,-2.4917,-2.4949,0.0,0.0,0.0,0.0,0.0,0.0,0.0,0.0,0.0,0.0,0.0,0.0,0.0,0.0,0.0,0.0,0.0,0.0,0.0,0.0,0.0,0.0,0.0,0.0,0.0,0.0,0.0,-3.1699,-3.1699,0.0,0.0,0.0,0.0,0.0,0.0,0.0,0.0,0.0,0.0,0.0,-3.3437,-3.4004,0.0,0.0,0.0,0.0,0.0,0.0,0.0,0.0,0.0,0.0,0.0,0.0,-3.0918,-3.0937,-3.1465,-3.1777,-3.1777,-3.2285,-3.2578,-3.2559,-3.2559,-3.2305,-3.1777,0.0,0.0,0.0,0.0,0.0,0.0,0.0,0.0,0.0,0.0,0.0,0.0,0.0,0.0,0.0,0.0,0.0,0.0,0.0,0.0,0.0,0.0,0.0,0.0,0.0,-2.5313,0.0,0.0,0.0,0.0,0.0,0.0,0.0,0.0,0.0,0.0,0.0,-2.5313,-2.5313,-2.5313,-2.5313,-2.5313,-2.5234,-2.5206,0.0,0.0,0.0,0.0,0.0,0.0,0.0,0.0,0.0,0.0,0.0,0.0,0.0,0.0,-2.419,-2.419,-2.419,-2.419,-2.419,0.0,0.0,0.0,0.0,0.0,0.0,0.0,0.0,0.0,0.0,0.0,0.0,0.0,0.0,-3.3379,0.0,-3.3379,0.0,0.0,0.0,0.0,0.0,0.0,0.0,0.0,-3.4746,-3.4844,-3.4336,-3.4883,-3.4863,0.0,-3.4883,-3.4863,0.0,0.0,0.0,0.0,0.0,0.0,0.0,0.0,-3.1758,-3.1777,-3.2324,-3.2617,-3.2637,-3.3125,-3.3379,-3.3379,-3.3379,-3.3164,-3.2637,-3.2617,-3.2363,0.0,0.0,0.0,0.0,0.0,0.0,0.0,0.0,0.0,0.0,0.0,0.0,0.0,0.0,0.0,0.0,0.0,0.0,0.0,0.0,0.0,0.0,0.0,-2.6197,0.0,0.0,0.0,0.0,0.0,0.0,0.0,0.0,0.0,-2.536,-2.5313,-2.5313,-2.5313,-2.5313,-2.5409,-2.5707,0.0,0.0,0.0,0.0,0.0,0.0,0.0,-2.5653,-2.562,-2.5574,-2.5437,-2.5091,-2.4681,-2.4357,-2.4228,0.0,0.0,-2.4209,-2.419,-2.419,-2.419,-2.419,-2.419,-2.419,-2.419,-2.419,0.0,0.0,0.0,0.0,0.0,0.0,0.0,0.0,-3.3613,-3.3672,0.0,-3.3672,0.0,0.0,0.0,0.0,0.0,-3.4434,0.0,0.0,-3.5644,-3.6035,-3.6035,-3.6074,-3.6094,-3.6074,-3.6094,-3.6074,-3.5976,-3.5195,0.0,0.0,0.0,0.0,0.0,0.0,-3.3379,-3.3359,-3.3418,-3.3437,-3.3437,-3.3476,-3.3496,-3.3516,-3.3516,-3.3496,-3.3437,-3.3437,-3.3437,-3.3359,-3.2637,0.0,0.0,0.0,0.0,0.0,0.0,0.0,0.0,0.0,0.0,0.0,0.0,0.0,0.0,0.0,0.0,0.0,0.0,0.0,0.0,-2.739,0.0,0.0,0.0,0.0,0.0,0.0,0.0,0.0,0.0,0.0,-2.5659,-2.5418,-2.538,-2.5409,0.0,0.0,0.0,0.0,-2.6649,-2.7468,-2.7427,-2.7305,-2.7286,-2.7227,-2.7182,-2.7217,0.0,0.0,-2.617,-2.5351,-2.4692,-2.4284,-2.4375,-2.4445,-2.4247,-2.4245,-2.4245,-2.419,-2.4245,-2.4245,-2.419,-2.419,-2.419,-3.8242,0.0,0.0,0.0,0.0,-3.7109,-3.7109,-3.7109,-3.7109,-3.7109,-3.7109,-3.7109,0.0,0.0,0.0,0.0,0.0,0.0,-3.623,-3.5703,-3.6504,-3.6934,-3.6953,-3.7559,-3.7851,-3.7851,-3.7871,-3.7539,-3.6934,-3.668,-3.625,-3.5625,0.0,0.0,0.0,0.0,-3.3379,-3.3418,-3.4004,-3.4336,-3.4336,-3.4941,-3.5254,-3.5234,-3.5254,-3.4961,-3.4355,-3.4316,-3.4043,-3.3437,-3.3164,0.0,0.0,0.0,0.0,0.0,0.0,0.0,0.0,0.0,0.0,0.0,0.0,0.0,0.0,0.0,0.0,0.0,0.0,0.0,-2.7525,-2.7755,-2.7898,0.0,0.0,0.0,0.0,0.0,0.0,0.0,0.0,0.0,-2.7217,-2.7159,-2.7159,0.0,0.0,-2.7246,-2.7499,-2.7467,-2.7528,-2.7769,-2.7754,0.0,-2.7727,-2.7606,-2.7527,-2.7682,-2.7638,-2.7287,-2.6376,-2.5892,-2.5393,-2.4572,-2.4461,-2.4445,-2.4265,-2.4705,-2.4833,-2.4392,-2.4649,-2.4852,-2.4337,-2.419,-2.419,-4.1562,-4.0547,-3.9902,-3.9629,-3.9648,-3.9629,-3.9648,-3.9629,-3.9648,-3.9453,-3.9121,-3.9101,-3.8926,-3.8613,-3.8613,0.0,0.0,0.0,-3.7539,-3.7051,-3.7578,-3.7812,-3.7851,-3.8359,-3.8613,-3.8613,-3.8613,-3.834,-3.7793,-3.7461,-3.7031,-3.6504,0.0,0.0,-3.5195,-3.4687,-3.4414,-3.4453,-3.4961,-3.5215,-3.5234,-3.5742,-3.6016,-3.6016,-3.6016,-3.5742,-3.5234,-3.5215,-3.4961,-3.4453,-3.4101,-3.3906,0.0,0.0,0.0,0.0,0.0,0.0,0.0,0.0,0.0,0.0,0.0,-2.7988,0.0,0.0,0.0,0.0,-2.8179,-2.8506,-2.8852,-2.889,0.0,0.0,0.0,0.0,0.0,0.0,0.0,-2.8887,-2.8898,-2.889,-2.8871,-2.889,-2.864,-2.7986,-2.789,-2.8007,-2.8327,0.0,-2.8494,-2.8825,-2.8906,-2.8879,-2.8902,-2.8696,-2.8586,-2.8715,-2.8286,-2.7813,-2.7286,-2.6496,-2.5654,-2.5039,-2.4597,-2.4339,-2.4228,-2.485,-2.5164,-2.4392,-2.4575,-2.4722,-2.4263,-2.419,-2.419,-4.3965,-4.3769,-4.2246,-4.1543,-4.1406,-4.1387,-4.1387,-4.1406,-4.1406,-4.0957,-4.0215,-4.0195,-3.9766,-3.9004,-3.9004,0.0,-3.8789,-3.8809,-3.875,-3.8613,-3.8672,-3.8711,-3.8691,-3.8769,-3.8809,-3.8809,-3.8809,-3.8769,-3.8672,-3.791,-3.7461,-3.7383,-3.6601,-3.6133,-3.6016,-3.5996,-3.6016,-3.5996,-3.5996,-3.6016,-3.5996,-3.6016,-3.6016,-3.6016,-3.6016,-3.5996,-3.6016,-3.5996,-3.6016,-3.5976,-3.5234,-3.4805,-3.4766,0.0,0.0,0.0,0.0,0.0,0.0,0.0,0.0,0.0,0.0,0.0,0.0,0.0,0.0,0.0,-2.8967,0.0,-3.0525,-3.0602,0.0,0.0,0.0,-3.059,-3.059,-3.059,-3.0602,-3.0602,0.0,0.0,-3.0506,-3.0436,-2.9821,-2.8313,-2.8102,-2.8382,-2.9096,-2.922,-2.9506,-3.0206,-3.0359,-3.0379,-3.0225,-3.0075,-2.9904,-2.9904,-2.9247,-2.8673,-2.843,-2.7132,-2.5943,-2.5504,-2.4819,-2.4266,-2.4247,-2.4835,-2.5092,-2.4337,-2.4281,-2.4337,-2.4226,-2.419,-2.419,-4.6289,-4.5664,-4.5254,-4.4336,-4.3125,-4.3105,-4.3105,-4.3105,-4.3125,-4.2988,-4.2793,-4.2793,-4.2695,-4.248,-4.248,-4.1797,-4.0586,-4.0586,-3.9863,-3.8691,-3.9277,-3.959,-3.9609,-4.0273,-4.0586,-4.0566,-4.0566,-4.0254,-3.9609,-3.9375,-3.8945,-3.8301,-3.8086,-3.7324,-3.6055,-3.6016,-3.6016,-3.6016,-3.6016,-3.6016,-3.6016,-3.6016,-3.6016,-3.6016,-3.6016,-3.6016,-3.6016,-3.6016,-3.6016,-3.5996,-3.5801,-3.5684,-3.5684,-3.4863,0.0,0.0,0.0,0.0,0.0,0.0,0.0,0.0,0.0,-3.0914,-3.0814,0.0,-3.0398,0.0,-3.1891,-3.2076,-3.2285,-3.23,0.0,0.0,-3.2319,-3.2295,-3.2307,-3.2307,-3.2307,-3.2314,-3.1768,-3.1383,-3.1391,-3.0833,-3.0263,-2.9871,-2.9813,-2.989,-3.0063,-3.0083,-3.016,-3.0359,-3.0436,-3.0398,-3.0417,-3.0355,-3.0318,-3.0311,-3.0081,-2.9743,-2.9072,-2.8109,-2.7097,-2.6257,-2.5385,-2.4775,-2.4497,-2.4612,-2.4598,-2.4339,-2.4667,-2.4925,-2.4337,-2.419,-2.419,-4.7676,-4.6875,-4.6875,-4.6094,-4.4863,-4.4844,-4.4863,-4.4863,-4.4844,-4.4648,-4.4238,-4.3887,-4.3711,-4.3711,-4.3711,-4.3203,-4.2344,-4.2305,-4.1777,-4.0898,-4.0957,-4.123,-4.1582,-4.168,-4.1933,-4.2305,-4.1914,-4.1484,-4.0976,-4.0273,-3.9668,-3.918,-3.8809,-3.8105,-3.7207,-3.7168,-3.7148,-3.7168,-3.7168,-3.7168,-3.7168,-3.7168,-3.6973,-3.6582,-3.6582,-3.6387,-3.6016,-3.6016,-3.6016,-3.6016,-3.6016,-3.6016,-3.5996,-3.5527,-3.5098,0.0,0.0,0.0,0.0,0.0,0.0,0.0,0.0,0.0,0.0,0.0,-3.1975,-3.2833,-3.2891,-3.2904,-3.2909,-3.2904,-3.2891,-3.2891,-3.2891,-3.2897,-3.2904,-3.2897,-3.2904,-3.2891,-3.2494,-3.2225,-3.2218,-3.1814,-3.1525,-3.1525,-3.1506,-3.1237,-3.0552,-3.0398,-3.0533,-3.0905,-3.0975,-3.0975,-3.0975,-3.0648,-3.0398,-3.0398,-3.0398,-3.0194,-2.9602,-2.8854,-2.8033,-2.7237,-2.6405,-2.5634,-2.5039,-2.4894,-2.4783,-2.4394,-2.4538,-2.4649,-2.4281,-2.419,-2.419,-4.8574,-4.7773,-4.7773,-4.7266,-4.6465,-4.6465,-4.6406,-4.6289,-4.6289,-4.5879,-4.5117,-4.4375,-4.4043,-4.4043,-4.4043,-4.3984,-4.3867,-4.3867,-4.3808,-4.3652,-4.293,-4.2969,-4.3652,-4.293,-4.2969,-4.3652,-4.293,-4.2519,-4.2344,-4.0918,-4.0156,-4.0039,-3.9316,-3.8926,-3.8945,-3.8926,-3.8828,-3.8613,-3.8613,-3.8613,-3.8613,-3.8613,-3.8242,-3.7519,-3.748,-3.7129,-3.6367,-3.6328,-3.6328,-3.6328,-3.6348,-3.6328,-3.6328,-3.6328,-3.5996,0.0,-3.584,0.0,0.0,0.0,0.0,0.0,0.0,0.0,0.0,-3.3282,-3.325,-3.3083,-3.316,-3.3237,-3.3237,-3.3237,-3.3231,-3.3229,-3.3231,-3.3231,-3.3248,-3.3231,-3.3237,-3.3237,-3.3127,-3.307,-3.3064,-3.2987,-3.2891,-3.2795,-3.2756,-3.2295,-3.1083,-3.0833,-3.109,-3.177,-3.1847,-3.1821,-3.1609,-3.1052,-3.0552,-3.0424,-3.0343,-3.0254,-2.998,-2.926,-2.8582,-2.8144,-2.7418,-2.66,-2.5741,-2.5518,-2.5203,-2.4558,-2.4355,-2.4263,-2.4208,-2.419,-2.419,-4.9453,-4.8652,-4.8652,-4.8164,-4.7344,-4.7344,-4.6953,-4.6289,-4.6289,-4.6211,-4.6055,-4.5879,-4.5801,-4.582,-4.5801,-4.541,-4.4766,-4.4746,-4.4355,-4.3711,-4.3535,-4.3535,-4.3691,-4.3535,-4.3555,-4.3672,-4.3535,-4.3086,-4.2383,-4.209,-4.1601,-4.0976,-4.0781,-4.0703,-4.0723,0.0,0.0,0.0,-3.8613,-3.8613,-3.8613,-3.8613,-3.8516,-3.8359,-3.8359,0.0,-3.8125,-3.8105,-3.8125,-3.8105,-3.8105,0.0,0.0,0.0,0.0,0.0,0.0,0.0,0.0,0.0,0.0,0.0,-3.7298,-3.6323,-3.4302,-3.4661,-3.4737,-3.4045,-3.4603,-3.5007,-3.5007,-3.5026,-3.4993,-3.5012,-3.4993,-3.5012,-3.5012,-3.4974,-3.5007,-3.5007,-3.437,-3.3947,-3.393,-3.3353,-3.2949,-3.3006,-3.291,-3.2776,-3.2487,-3.2391,-3.248,-3.2641,-3.2667,-3.2443,-3.1782,-3.1564,-3.1053,-3.0379,-3.0075,-3.0018,-2.9791,-2.9117,-2.8515,-2.8365,-2.7706,-2.7095,-2.6674,-2.6098,-2.5579,-2.5222,-2.465,-2.419,-2.419,-2.419,-2.419,-5.0312,0.0,-4.9082,-4.8633,0.0,-4.7773,-4.7363,-4.6914,-4.6484,-4.6289,-4.6289,-4.6289,-4.6289,-4.6289,-4.6289,-4.6055,-4.5644,-4.5644,-4.541,-4.498,-4.4531,-4.457,-4.498,-4.4551,-4.457,-4.4941,-4.4551,-4.4101,-4.3672,-4.3262,-4.2637,-4.1797,-4.1797,-4.1601,-4.1211,-4.1191,-4.0762,-3.9883,-3.9902,-3.9883,-3.9883,-3.9883,-3.9687,-3.9258,-3.9238,0.0,0.0,0.0,0.0,0.0,0.0,0.0,0.0,0.0,0.0,-3.8613,-3.8535,-3.8496,-3.8516,-3.8482,-3.8458,-3.8481,-3.8356,-3.7694,-3.6232,-3.6507,-3.6372,-3.5545,-3.5834,-3.5916,-3.5532,-3.5507,-3.5507,-3.5507,-3.5507,-3.5507,-3.5507,-3.5507,-3.5507,-3.5468,-3.5128,-3.4839,-3.4834,-3.4507,-3.4199,-3.418,-3.418,-3.416,-3.4083,-3.341,-3.3006,-3.3455,-3.3551,-3.3417,-3.2968,-3.2141,-3.1558,-3.0931,-3.0496,-3.0188,-3.0052,-2.9694,-2.9341,-2.9213,-2.884,-2.8417,-2.7747,-2.702,-2.6277,-2.5634,-2.4912,-2.434,-2.4228,-2.419,-2.419,-5.125,-5.0566,-4.9707,-4.9277,-4.9082,-4.8359,-4.7969,-4.7754,0.0,0.0,0.0,-4.6289,-4.6289,-4.6289,-4.6289,-4.6289,-4.6289,-4.6289,-4.6289,-4.6269,-4.5547,-4.5625,-4.625,-4.5566,-4.5605,-4.623,-4.5566,-4.5156,-4.498,-4.4277,-4.3476,-4.2715,-4.2637,-4.2207,-4.1465,-4.1406,-4.1406,-4.1406,-4.1269,-4.1191,-4.1191,-4.1191,-4.0859,-4.0137,-4.0137,-3.9785,-3.9101,-3.9062,-3.9062,-3.9062,-3.9062,-3.9043,-3.9062,-3.9062,-3.9043,-3.9062,-3.9062,-3.9062,-3.9062,-3.9062,-3.9049,-3.9042,-3.8923,-3.8631,-3.8104,-3.8046,-3.7738,-3.7046,-3.6949,-3.6661,-3.6007,-3.5949,-3.593,-3.593,-3.5815,-3.5718,-3.5718,-3.5565,-3.5507,-3.5507,-3.5468,-3.5488,-3.5468,-3.543,-3.5507,-3.5488,-3.5353,-3.5507,-3.5334,-3.4295,-3.3724,-3.4288,-3.4436,-3.4391,-3.4026,-3.3141,-3.2071,-3.1578,-3.0983,-3.0522,-3.0324,-3.0273,-3.0182,-2.9863,-2.9954,-2.952,-2.8789,-2.7932,-2.7035,-2.604,-2.5224,-2.4559,-2.4284,-2.419,-2.419,-5.2441,-5.2266,-5.1426,-5.0664,-5.0,-4.9883,-4.9414,-4.8594,-4.7012,-4.6308,-4.6289,-4.6289,-4.6289,-4.6289,-4.6289,-4.6289,-4.6289,-4.6289,-4.6289,-4.6289,-4.6172,-4.6191,-4.6289,-4.6172,-4.6191,-4.6289,-4.6172,-4.5742,-4.5058,-4.4883,-4.4375,-4.3613,-4.3516,-4.3086,-4.2305,-4.2226,-4.2246,-4.2207,-4.1562,-4.1191,-4.1191,-4.1191,-4.1152,-4.1016,-4.1016,-4.0976,-4.082,-4.082,-4.082,-4.082,-4.084,-4.084,-4.082,-4.0801,-4.084,-4.084,-4.084,-4.082,-4.082,-4.082,-4.0781,-4.0695,-4.0635,-3.9965,-3.8411,-3.8219,-3.8108,-3.7993,-3.7873,-3.7791,-3.7646,-3.7579,-3.7541,-3.753,-3.6944,-3.6526,-3.654,-3.5982,-3.5603,-3.5641,-3.5507,-3.5545,-3.5584,-3.5565,-3.5565,-3.5507,-3.5507,-3.5507,-3.5468,-3.5301,-3.5185,-3.5282,-3.5301,-3.4988,-3.443,-3.4064,-3.316,-3.1594,-3.1327,-3.0877,-3.0133,-2.9969,-2.9915,-2.9782,-2.9832,-2.9655,-2.9308,-2.8577,-2.7662,-2.6689,-2.5909,-2.5131,-2.4539,-2.4373,-2.4281,-5.2695,-5.2539,-5.1289,-5.0781,-5.082,-5.0391,-4.9961,-4.9492,-4.8262,-4.7441,-4.7012,-4.7012,-4.6758,-4.6308,-4.6289,-4.6289,-4.6289,-4.6289,-4.6289,-4.6289,-4.6289,-4.6289,-4.6289,-4.6289,-4.6289,-4.6289,-4.6289,-4.6094,-4.5723,-4.5703,-4.5254,-4.4414,-4.3945,-4.3496,-4.3125,-4.3105,-4.3086,-4.3086,-4.1855,-4.1641,-4.2519,-4.168,-4.1406,-4.1816,-4.1445,-4.1191,-4.1191,-4.1191,-4.1191,-4.1191,-4.1191,-4.1191,-4.1191,-4.1191,-4.1191,-4.1191,-4.1191,-4.1191,-4.1191,-4.1191,-4.1172,-4.1113,-4.1105,-4.0785,-3.9954,-3.9681,-3.938,-3.8911,-3.8757,-3.8522,-3.8075,-3.8003,-3.7988,-3.8007,-3.7623,-3.7411,-3.7387,-3.7112,-3.6862,-3.6853,-3.6853,-3.668,-3.6199,-3.6147,-3.5949,-3.5622,-3.5507,-3.5507,-3.5507,-3.5507,-3.5507,-3.5507,-3.5488,-3.5353,-3.4949,-3.4468,-3.3846,-3.2938,-3.21,-3.1421,-3.0787,-3.0448,-3.0123,-3.0066,-3.0085,-3.0056,-2.9912,-2.9134,-2.8341,-2.7773,-2.6859,-2.6078,-2.5627,-2.5493,-2.5199,-5.2871,-5.2558,-5.1094,-5.082,-5.1348,-5.0723,-5.0469,-5.041,-4.9746,-4.8984,-4.8203,-4.7812,-4.7129,-4.6348,-4.6289,-4.6289,-4.6289,-4.6289,-4.6289,-4.6289,-4.6289,-4.6289,-4.6289,-4.6289,-4.6289,-4.6289,-4.6289,-4.6289,-4.6289,-4.6289,-4.5957,-4.5293,-4.4609,-4.4199,-4.4004,-4.3984,-4.4004,-4.3887,-4.2519,-4.2383,-4.3574,-4.2422,-4.207,-4.2578,-4.2109,-4.1777,-4.1758,-4.1758,-4.1777,-4.1758,-4.1758,-4.168,-4.1484,-4.1465,-4.1465,-4.1465,-4.1465,-4.1465,-4.1445,-4.1289,-4.1191,-4.1191,-4.1191,-4.1203,-4.1187,-4.0913,-4.0463,-3.9841,-3.9642,-3.9296,-3.8757,-3.8604,-3.855,-3.8558,-3.8362,-3.8296,-3.8277,-3.8132,-3.7993,-3.7988,-3.7993,-3.7704,-3.7147,-3.6815,-3.6353,-3.568,-3.5507,-3.5507,-3.5507,-3.5507,-3.5507,-3.5507,-3.5507,-3.5488,-3.5468,-3.4968,-3.4449,-3.4276,-3.3179,-3.225,-3.1751,-3.1071,-3.0609,-3.047,-3.0367,-3.0316,-3.0239,-2.9631,-2.8878,-2.8346,-2.7569,-2.6965,-2.6544,-2.6465,-2.6245,-5.3398,-5.2617,-5.1641,-5.1328,-5.1387,-5.1308,-5.125,-5.125,-5.1172,-5.0723,-4.9766,-4.8301,-4.7148,-4.6367,-4.6308,-4.6289,-4.6289,-4.6289,-4.6289,-4.6289,-4.6289,-4.6289,-4.6289,-4.6289,-4.6289,-4.6289,-4.6289,-4.6289,-4.6289,-4.6289,-4.623,-4.6191,-4.6074,-4.5625,-4.498,-4.4863,-4.4883,-4.4863,-4.3945,-4.3535,-4.3672,-4.3555,-4.3516,-4.3574,-4.3496,-4.3476,-4.3359,-4.3476,-4.3457,-4.3457,-4.3418,-4.3086,-4.2383,-4.2285,-4.2285,-4.2285,-4.2305,-4.2285,-4.2246,-4.1601,-4.1269,-4.1191,-4.1289,-4.1289,-4.1269,-4.0998,-4.0791,-4.067,-4.0543,-4.0258,-4.0273,-4.0181,-4.0085,-4.0008,-3.9546,-3.9181,-3.9108,-3.8469,-3.7988,-3.7988,-3.8189,-3.7982,-3.7858,-3.7276,-3.6469,-3.5757,-3.5661,-3.5584,-3.5507,-3.5507,-3.5507,-3.5507,-3.5507,-3.5507,-3.5488,-3.5468,-3.5026,-3.441,-3.4103,-3.3314,-3.2333,-3.1737,-3.1391,-3.0763,-3.0398,-3.0321,-3.0145,-2.9751,-2.928,-2.8686,-2.809,-2.7561,-2.6891,-2.6783,-2.6677,-5.3027,-5.2617,-5.1758,-5.1387,-5.1387,-5.1387,-5.1387,-5.1387,-5.1387,-5.0957,-5.0195,-4.9433,-4.8379,-4.707,-4.6543,-4.6289,-4.6289,-4.6289,-4.6289,-4.6289,-4.6289,-4.6289,-4.6289,-4.6289,-4.6289,-4.6289,-4.6289,-4.6289,-4.6289,-4.6289,-4.6289,-4.6289,-4.6289,-4.6113,-4.5781,-4.5762,-4.5781,-4.5742,-4.543,-4.5234,-4.5117,-4.4219,-4.3965,-4.4355,-4.3965,-4.3711,-4.3711,-4.3711,-4.3711,-4.3711,-4.3711,-4.3555,-4.3183,-4.3183,-4.3183,-4.3164,-4.3164,-4.3183,-4.3144,-4.2851,-4.2676,-4.2676,-4.2656,-4.2676,-4.2676,-4.2476,-4.2343,-4.2198,-4.1235,-4.0489,-4.0508,-4.0489,-4.0489,-4.045,-4.0181,-4.0008,-4.0008,-3.97,-3.9488,-3.9469,-3.9473,-3.9262,-3.8777,-3.8007,-3.7161,-3.643,-3.6219,-3.6103,-3.5641,-3.5507,-3.5507,-3.5507,-3.5507,-3.5507,-3.5507,-3.5507,-3.5315,-3.4988,-3.4507,-3.3757,-3.3314,-3.2179,-3.1545,-3.1186,-3.0821,-3.0494,-3.0302,-3.0041,-2.9674,-2.9129,-2.9044,-2.8801,-2.8484,-2.8428,-2.8446,-5.2695,-5.2598,-5.1992,-5.1758,-5.1738,-5.1484,-5.1387,-5.1387,-5.1387,-5.1074,-5.0547,-5.0312,-4.9531,-4.8301,-4.7402,-4.7012,-4.6992,-4.6758,-4.6797,-4.6953,-4.6777,-4.6641,-4.666,-4.666,-4.6523,-4.6328,-4.6289,-4.6289,-4.6289,-4.6289,-4.6289,-4.6289,-4.6289,-4.6289,-4.6289,-4.6289,-4.6289,-4.6289,-4.6289,-4.6289,-4.6113,-4.5058,-4.4707,-4.5234,-4.4746,-4.4414,-4.4414,-4.4414,-4.4414,-4.4433,-4.4414,-4.4316,-4.4082,-4.4043,-4.4062,-4.4062,-4.4062,-4.4062,-4.4043,-4.3828,-4.3711,-4.3711,-4.3711,-4.3711,-4.3672,-4.3524,-4.34,-4.325,-4.2047,-4.12,-4.087,-4.0639,-4.0508,-4.0489,-4.0489,-4.0489,-4.0469,-4.0489,-4.0431,-4.0489,-4.0335,-4.02,-3.9411,-3.8719,-3.8027,-3.7276,-3.7065,-3.6757,-3.6045,-3.5853,-3.5801,-3.5551,-3.5507,-3.5507,-3.5507,-3.5507,-3.5507,-3.5411,-3.4911,-3.4545,-3.4295,-3.3006,-3.2153,-3.2115,-3.1429,-3.0994,-3.0898,-3.0611,-3.0136,-2.9946,-2.9794,-2.9657,-2.9417,-2.9639,-2.9639,-5.2695,-5.2695,-5.2656,-5.2578,-5.2578,-5.1758,-5.1387,-5.1387,-5.1387,-5.1348,-5.1191,-5.0566,-5.0156,-4.9961,-4.9141,-4.875,-4.8633,-4.7891,-4.7949,-4.8496,-4.7871,-4.7539,-4.7539,-4.7519,-4.7109,-4.6445,-4.6328,-4.6289,-4.6289,-4.6289,-4.6289,-4.6289,-4.6289,-4.6289,-4.6289,-4.6289,-4.6289,-4.6289,-4.6289,-4.6289,-4.6289,-4.6191,-4.6094,-4.6152,-4.6152,-4.6055,-4.6094,-4.6152,-4.6133,-4.6152,-4.6074,-4.5762,-4.5058,-4.4941,-4.4941,-4.4941,-4.4941,-4.4941,-4.4844,-4.4277,-4.3848,-4.3789,-4.3926,-4.3769,-4.3926,-4.3777,-4.3652,-4.347,-4.3184,-4.2601,-4.1886,-4.112,-4.0585,-4.0489,-4.0489,-4.0489,-4.0489,-4.0489,-4.0489,-4.0489,-4.0489,-4.02,-3.9469,-3.9277,-3.8834,-3.8219,-3.795,-3.7623,-3.6906,-3.6675,-3.6372,-3.5815,-3.5584,-3.5512,-3.5507,-3.5507,-3.5507,-3.5449,-3.5295,-3.5122,-3.4584,-3.402,-3.3513,-3.3082,-3.2615,-3.2179,-3.1744,-3.1251,-3.07,-3.0307,-2.9937,-2.978,-2.988,-2.9765,-2.9782,-5.2695,-5.2695,-5.2695,-5.2695,-5.2617,-5.1758,-5.1387,-5.1387,-5.1387,-5.1387,-5.1348,-5.1094,-5.0957,-5.0957,-5.0644,-4.9902,-4.8926,-4.8555,-4.8594,-4.8867,-4.8574,-4.8437,-4.8379,-4.7891,-4.748,-4.7109,-4.6562,-4.6289,-4.6289,-4.6289,-4.6289,-4.6289,-4.6289,-4.6289,-4.6289,-4.6289,-4.6289,-4.6289,-4.6289,-4.6289,-4.6289,-4.6289,-4.6289,-4.6289,-4.6289,-4.6289,-4.6289,-4.6289,-4.6289,-4.6289,-4.6289,-4.6152,-4.5879,-4.582,-4.582,-4.582,-4.584,-4.584,-4.5801,-4.5547,-4.5371,-4.5351,-4.5371,-4.5293,-4.5312,-4.5148,-4.5002,-4.4858,-4.4259,-4.3701,-4.3256,-4.2162,-4.1085,-4.0604,-4.0508,-4.0527,-4.0489,-4.0489,-4.0489,-4.0489,-4.0489,-4.035,-4.0123,-4.0046,-3.9738,-3.9008,-3.8815,-3.843,-3.7791,-3.7526,-3.7219,-3.6521,-3.6238,-3.6103,-3.5526,-3.5507,-3.5507,-3.5507,-3.543,-3.5372,-3.5026,-3.4468,-3.3943,-3.3795,-3.3526,-3.2974,-3.2385,-3.1565,-3.104,-3.0447,-3.0066,-3.0037,-3.0142,-3.0007,-3.0037,-5.3535,-5.3535,-5.3535,-5.3359,-5.3027,-5.2187,-5.166,-5.1426,-5.1387,-5.1387,-5.1387,-5.1387,-5.1387,-5.1387,-5.1387,-5.084,-4.9746,-4.9453,-4.9453,-4.9668,-4.9433,-4.9316,-4.9219,-4.8711,-4.8301,-4.793,-4.7129,-4.6719,-4.668,-4.6426,-4.6308,-4.6289,-4.6289,-4.6289,-4.6289,-4.6289,-4.6289,-4.6289,-4.6289,-4.6289,-4.6289,-4.6289,-4.6289,-4.6289,-4.6289,-4.6289,-4.6289,-4.6289,-4.6289,-4.6289,-4.6289,-4.6289,-4.6289,-4.6289,-4.6289,-4.6289,-4.6289,-4.6289,-4.6289,-4.6289,-4.6289,-4.6289,-4.6289,-4.6289,-4.6269,-4.6045,-4.5925,-4.5719,-4.5257,-4.4662,-4.4162,-4.3258,-4.2258,-4.1485,-4.112,-4.0931,-4.0893,-4.0681,-4.0527,-4.0489,-4.0489,-4.0489,-4.0489,-4.0489,-4.0219,-3.9738,-3.9681,-3.9335,-3.8642,-3.8392,-3.8104,-3.7296,-3.6834,-3.6488,-3.6007,-3.5795,-3.5565,-3.5507,-3.5507,-3.5507,-3.5411,-3.4853,-3.4584,-3.4461,-3.4134,-3.3576,-3.2846,-3.2013,-3.1282,-3.0629,-3.033,-3.0228,-3.0254,-3.0209,-3.0182,-5.5195,-5.5078,-5.5234,-5.4492,-5.3672,-5.2812,-5.2109,-5.1465,-5.1387,-5.1387,-5.1387,-5.1387,-5.1387,-5.1406,-5.1504,-5.1406,-5.1191,-5.0625,-5.0625,-5.1074,-5.0508,-5.0195,-5.0176,-5.0,-4.9473,-4.8769,-4.8008,-4.7617,-4.7558,-4.6855,-4.6426,-4.6367,-4.6348,-4.6289,-4.6289,-4.6289,-4.6289,-4.6289,-4.6289,-4.6289,-4.6289,-4.6289,-4.6289,-4.6289,-4.6289,-4.6289,-4.6289,-4.6289,-4.6289,-4.6289,-4.6289,-4.6289,-4.6289,-4.6289,-4.6289,-4.6289,-4.6289,-4.6289,-4.6289,-4.6289,-4.6289,-4.6289,-4.6289,-4.6289,-4.6269,-4.6069,-4.5906,-4.5857,-4.5642,-4.522,-4.4547,-4.4278,-4.3797,-4.3137,-4.2236,-4.1816,-4.1662,-4.1046,-4.0527,-4.0566,-4.0566,-4.0508,-4.0489,-4.0489,-4.0412,-4.0373,-4.0335,-4.0104,-3.9435,-3.9296,-3.8916,-3.8136,-3.7574,-3.718,-3.6622,-3.6098,-3.5776,-3.5512,-3.5507,-3.5507,-3.5507,-3.5161,-3.5122,-3.5051,-3.5032,-3.4455,-3.3397,-3.2564,-3.1744,-3.116,-3.0828,-3.0605,-3.0567,-3.0548,-3.0221,-5.4961,-5.4336,-5.375,-5.3359,-5.2988,-5.2168,-5.1621,-5.1426,-5.1387,-5.1387,-5.1387,-5.1387,-5.1387,-5.1543,-5.1992,-5.2285,-5.2266,-5.1992,-5.1738,-5.1406,-5.1113,-5.0996,-5.0898,-5.0449,-4.9746,-4.8984,-4.8633,-4.8496,-4.834,-4.7617,-4.7207,-4.7109,-4.6582,-4.6308,-4.6328,-4.6289,-4.6289,-4.6289,-4.6289,-4.6289,-4.6289,-4.6289,-4.6289,-4.6289,-4.6289,-4.6289,-4.6289,-4.6289,-4.6289,-4.6289,-4.6289,-4.6289,-4.6289,-4.6289,-4.6289,-4.6289,-4.6289,-4.6289,-4.6289,-4.6289,-4.6289,-4.6289,-4.6289,-4.6289,-4.6269,-4.6069,-4.5917,-4.588,-4.5719,-4.5432,-4.5259,-4.5201,-4.4603,-4.3256,-4.2854,-4.2662,-4.247,-4.1873,-4.1485,-4.1328,-4.087,-4.0546,-4.0489,-4.0489,-4.0489,-4.0489,-4.0489,-4.0315,-4.0181,-4.0027,-3.9796,-3.9016,-3.8512,-3.7911,-3.7257,-3.6622,-3.6142,-3.5762,-3.5622,-3.5507,-3.5507,-3.5507,-3.5507,-3.5449,-3.5449,-3.4988,-3.3949,-3.3122,-3.2314,-3.191,-3.1725,-3.1469,-3.1194,-3.0874,-3.0513,-5.5273,-5.4433,-5.3887,-5.3262,-5.2676,-5.209,-5.168,-5.1426,-5.1387,-5.1387,-5.1445,-5.1758,-5.1699,-5.1641,-5.2305,-5.248,-5.2285,-5.2539,-5.2226,-5.1504,-5.1387,-5.1387,-5.1348,-5.0918,-5.041,-4.9863,-4.9531,-4.9394,-4.9336,-4.8555,-4.8086,-4.793,-4.7226,-4.6797,-4.6738,-4.6465,-4.6289,-4.6289,-4.6289,-4.6289,-4.6289,-4.6289,-4.6289,-4.6289,-4.6289,-4.6289,-4.6289,-4.6289,-4.6289,-4.6289,-4.6289,-4.6289,-4.6289,-4.6289,-4.6289,-4.6289,-4.6289,-4.6289,-4.6289,-4.6289,-4.6289,-4.6289,-4.6289,-4.6289,-4.6269,-4.6097,-4.5985,-4.5931,-4.5796,-4.568,-4.5661,-4.5605,-4.5086,-4.4182,-4.3739,-4.3278,-4.2761,-4.2143,-4.1604,-4.1254,-4.0793,-4.0546,-4.0489,-4.0489,-4.0489,-4.0489,-4.0489,-4.0489,-4.0489,-4.0469,-4.0123,-3.9723,-3.9277,-3.8604,-3.7873,-3.7199,-3.6546,-3.6122,-3.5757,-3.5603,-3.5507,-3.5507,-3.5488,-3.5301,-3.5243,-3.482,-3.391,-3.3506,-3.291,-3.2756,-3.259,-3.2263,-3.1884,-3.123,-3.0849,-5.6035,-5.5332,-5.5195,-5.418,-5.291,-5.2695,-5.2226,-5.1582,-5.1406,-5.1387,-5.1562,-5.207,-5.2148,-5.1797,-5.2539,-5.2558,-5.1855,-5.2519,-5.2441,-5.1758,-5.1465,-5.1387,-5.1367,-5.1289,-5.1172,-5.1074,-5.0547,-5.0293,-5.0215,-4.9394,-4.8965,-4.8867,-4.8144,-4.7598,-4.7402,-4.6758,-4.6426,-4.6308,-4.6289,-4.6289,-4.6289,-4.6289,-4.6289,-4.6289,-4.6289,-4.6289,-4.6289,-4.6289,-4.6289,-4.6289,-4.6289,-4.6289,-4.6289,-4.6289,-4.6289,-4.6289,-4.6289,-4.6289,-4.6289,-4.6289,-4.6289,-4.6289,-4.6289,-4.6289,-4.6269,-4.6172,-4.6084,-4.6067,-4.5889,-4.5789,-4.5755,-4.5699,-4.5545,-4.547,-4.4778,-4.3816,-4.2379,-4.2184,-4.1989,-4.1274,-4.0758,-4.0642,-4.0758,-4.0681,-4.0623,-4.0489,-4.0489,-4.0489,-4.0489,-4.0489,-4.0489,-4.02,-3.9815,-3.9315,-3.8584,-3.8142,-3.7488,-3.693,-3.6449,-3.6084,-3.5661,-3.5526,-3.5507,-3.5282,-3.5089,-3.4589,-3.4301,-3.4064,-3.3814,-3.3641,-3.3371,-3.299,-3.2541,-3.201,-3.1402,-5.5508,-5.5234,-5.4609,-5.4082,-5.3574,-5.3008,-5.2578,-5.2266,-5.166,-5.1387,-5.1484,-5.1641,-5.2031,-5.2422,-5.3203,-5.3496,-5.3242,-5.3437,-5.3203,-5.2344,-5.166,-5.1426,-5.1387,-5.1387,-5.1387,-5.1348,-5.1152,-5.1094,-5.1016,-5.0234,-4.9863,-4.9824,-4.9004,-4.8223,-4.7637,-4.7383,-4.6894,-4.6387,-4.6289,-4.6289,-4.6289,-4.6289,-4.6289,-4.6289,-4.6289,-4.6289,-4.6289,-4.6289,-4.6289,-4.6289,-4.6289,-4.6289,-4.6289,-4.6289,-4.6289,-4.6289,-4.6289,-4.6289,-4.6289,-4.6289,-4.6289,-4.6289,-4.6289,-4.6289,-4.6289,-4.6172,-4.6113,-4.6074,-4.5963,-4.5867,-4.5803,-4.5757,-4.5699,-4.5586,-4.5297,-4.4951,-4.4432,-4.4008,-4.3508,-4.3294,-4.2678,-4.2085,-4.1623,-4.1354,-4.1162,-4.0719,-4.0527,-4.0489,-4.0489,-4.0489,-4.0489,-4.0489,-4.02,-3.9819,-3.9377,-3.8988,-3.8469,-3.7873,-3.7334,-3.6834,-3.6199,-3.5603,-3.5545,-3.5416,-3.5339,-3.4974,-3.507,-3.5045,-3.4814,-3.443,-3.4186,-3.3832,-3.3582,-3.314,-3.234,-5.5644,-5.5254,-5.4746,-5.4336,-5.3926,-5.3047,-5.2695,-5.2539,-5.1777,-5.1387,-5.1465,-5.1797,-5.2012,-5.2246,-5.3047,-5.3203,-5.2988,-5.3301,-5.2949,-5.2246,-5.2012,-5.1777,-5.1504,-5.1387,-5.1387,-5.1387,-5.1387,-5.1387,-5.1308,-5.0898,-5.0742,-5.0547,-4.9863,-4.9199,-4.8769,-4.7871,-4.7402,-4.6875,-4.6523,-4.6289,-4.6289,-4.6289,-4.6289,-4.6289,-4.6289,-4.6289,-4.6289,-4.6289,-4.6289,-4.6289,-4.6289,-4.6289,-4.6289,-4.6289,-4.6289,-4.6289,-4.6289,-4.6289,-4.6289,-4.6289,-4.6289,-4.6289,-4.6289,-4.6289,-4.6289,-4.6211,-4.6191,-4.6172,-4.6055,-4.5949,-4.5854,-4.5777,-4.568,-4.5605,-4.5586,-4.5451,-4.5143,-4.4509,-4.4143,-4.3816,-4.3393,-4.297,-4.2374,-4.2066,-4.1604,-4.1123,-4.07,-4.0585,-4.0489,-4.0489,-4.0489,-4.0489,-4.0489,-4.0162,-3.9854,-3.9469,-3.92,-3.8642,-3.82,-3.768,-3.6873,-3.6065,-3.5776,-3.5718,-3.5603,-3.5507,-3.5507,-3.5507,-3.5334,-3.5007,-3.4853,-3.4718,-3.4468,-3.4064,-3.3276,-5.6133,-5.5449,-5.5449,-5.498,-5.4258,-5.3379,-5.3164,-5.2851,-5.2051,-5.1699,-5.1875,-5.2344,-5.2246,-5.1719,-5.2656,-5.2363,-5.1738,-5.2558,-5.2187,-5.1914,-5.1933,-5.2012,-5.1465,-5.1621,-5.1562,-5.1445,-5.1387,-5.1387,-5.1367,-5.1328,-5.1348,-5.1133,-5.0586,-5.0273,-4.9687,-4.8555,-4.7793,-4.7363,-4.666,-4.6328,-4.6289,-4.6289,-4.6289,-4.6289,-4.6289,-4.6289,-4.6289,-4.6289,-4.6289,-4.6289,-4.6289,-4.6289,-4.6289,-4.6289,-4.6289,-4.6289,-4.6289,-4.6289,-4.6289,-4.6289,-4.6289,-4.6289,-4.6289,-4.6289,-4.6289,-4.6269,-4.6269,-4.6269,-4.6191,-4.6065,-4.5902,-4.5723,-4.5637,-4.5586,-4.5586,-4.522,-4.4664,-4.4414,-4.4126,-4.3496,-4.3434,-4.3374,-4.3028,-4.2585,-4.2008,-4.1527,-4.1104,-4.0854,-4.0642,-4.0489,-4.0489,-4.0489,-4.0489,-4.0489,-4.02,-3.9912,-3.9681,-3.9373,-3.8988,-3.8469,-3.7661,-3.6911,-3.6334,-3.6007,-3.5776,-3.5603,-3.5507,-3.5507,-3.5507,-3.5449,-3.5199,-3.5295,-3.5334,-3.4814,-3.4141,-5.6504,-5.6328,-5.6308,-5.6211,-5.5918,-5.5117,-5.4726,-5.457,-5.3066,-5.2676,-5.3027,-5.2226,-5.2363,-5.3281,-5.2773,-5.2558,-5.2285,-5.248,-5.2226,-5.1504,-5.1523,-5.1621,-5.1621,-5.2129,-5.2012,-5.1582,-5.1387,-5.1387,-5.1387,-5.1387,-5.1387,-5.1328,-5.1172,-5.084,-5.0137,-4.918,-4.8242,-4.7598,-4.6758,-4.6328,-4.6289,-4.6289,-4.6289,-4.6289,-4.6289,-4.6289,-4.6289,-4.6289,-4.6289,-4.6289,-4.6289,-4.6289,-4.6289,-4.6289,-4.6289,-4.6289,-4.6289,-4.6289,-4.6289,-4.6289,-4.6289,-4.6289,-4.6289,-4.6289,-4.6289,-4.6289,-4.6289,-4.6289,-4.6284,-4.6154,-4.5926,-4.5728,-4.5622,-4.5605,-4.5586,-4.5509,-4.5336,-4.5278,-4.5124,-4.5009,-4.4913,-4.4778,-4.4143,-4.3874,-4.3124,-4.2143,-4.1566,-4.12,-4.0912,-4.0642,-4.0566,-4.0604,-4.0489,-4.0489,-4.0412,-4.0181,-4.0065,-3.9931,-3.9642,-3.9392,-3.8584,-3.7719,-3.7142,-3.6488,-3.5897,-3.5762,-3.5757,-3.5507,-3.5507,-3.5507,-3.5507,-3.5507,-3.543,-3.5141,-3.5007,-5.6621,-5.6621,-5.6621,-5.6621,-5.6465,-5.5683,-5.5293,-5.4941,-5.3457,-5.2949,-5.3027,-5.1953,-5.1953,-5.2734,-5.2305,-5.207,-5.209,-5.2109,-5.2344,-5.248,-5.2695,-5.2891,-5.3125,-5.3086,-5.2715,-5.1621,-5.1387,-5.1387,-5.1387,-5.1387,-5.1387,-5.1387,-5.1387,-5.1191,-5.0586,-4.9531,-4.8711,-4.8066,-4.6933,-4.6289,-4.6289,-4.6289,-4.6289,-4.6289,-4.6289,-4.6289,-4.6289,-4.6289,-4.6289,-4.6289,-4.6289,-4.6289,-4.6289,-4.6289,-4.6289,-4.6289,-4.6289,-4.6289,-4.6289,-4.6289,-4.6289,-4.6289,-4.6289,-4.6289,-4.6289,-4.6289,-4.6289,-4.6289,-4.6284,-4.6193,-4.5935,-4.5796,-4.5699,-4.5605,-4.5586,-4.5586,-4.5586,-4.5586,-4.5586,-4.5586,-4.549,-4.5316,-4.5028,-4.4662,-4.4201,-4.3162,-4.2547,-4.2143,-4.1505,-4.1235,-4.0835,-4.0739,-4.0566,-4.0489,-4.0489,-4.0431,-4.0412,-4.0315,-4.02,-4.0065,-3.97,-3.8796,-3.7911,-3.7296,-3.6699,-3.6276,-3.6199,-3.5872,-3.5622,-3.5526,-3.5526,-3.5507,-3.5449,-3.5315,-3.5238,-5.6621,-5.6621,-5.6621,-5.6621,-5.6484,-5.584,-5.5547,-5.5293,-5.3808,-5.3359,-5.2891,-5.207,-5.1816,-5.168,-5.1543,-5.1426,-5.1426,-5.1543,-5.2109,-5.3262,-5.334,-5.3808,-5.4238,-5.3789,-5.2969,-5.168,-5.1465,-5.1406,-5.1387,-5.1387,-5.1387,-5.1387,-5.1387,-5.1328,-5.0996,-4.9785,-4.8848,-4.8555,-4.7148,-4.6289,-4.6289,-4.6289,-4.6289,-4.6289,-4.6289,-4.6289,-4.6289,-4.6289,-4.6289,-4.6289,-4.6289,-4.6289,-4.6289,-4.6289,-4.6289,-4.6289,-4.6289,-4.6289,-4.6289,-4.6289,-4.6289,-4.6289,-4.6289,-4.6289,-4.6289,-4.6289,-4.6289,-4.6289,-4.6256,-4.6117,-4.5924,-4.577,-4.5697,-4.5624,-4.5586,-4.5586,-4.5586,-4.5586,-4.5586,-4.5586,-4.5586,-4.547,-4.5316,-4.5028,-4.4662,-4.4239,-4.3643,-4.3008,-4.2371,-4.187,-4.1562,-4.1181,-4.1062,-4.0642,-4.0566,-4.0489,-4.0489,-4.0489,-4.0489,-4.045,-4.0392,-3.9796,-3.8892,-3.82,-3.7642,-3.718,-3.6853,-3.6699,-3.6372,-3.5858,-3.5699,-3.5853,-3.5738,-3.5545,-3.543,-5.6621,-5.6621,-5.6621,-5.6621,-5.6582,-5.6426,-5.6348,-5.6211,-5.5195,-5.4863,-5.4531,-5.3203,-5.2402,-5.2226,-5.166,-5.1426,-5.1387,-5.1562,-5.209,-5.3027,-5.3242,-5.373,-5.4336,-5.3848,-5.2949,-5.2383,-5.1875,-5.1504,-5.1406,-5.1387,-5.1387,-5.1387,-5.1387,-5.1387,-5.0957,-4.9844,-4.8945,-4.8808,-4.7402,-4.6504,-4.6562,-4.6465,-4.6348,-4.6328,-4.6289,-4.6289,-4.6289,-4.6289,-4.6289,-4.6289,-4.6289,-4.6289,-4.6289,-4.6289,-4.6289,-4.6289,-4.6289,-4.6289,-4.6289,-4.6289,-4.6289,-4.6289,-4.6289,-4.6289,-4.6289,-4.6289,-4.6289,-4.625,-4.6124,-4.5962,-4.5913,-4.5789,-4.5637,-4.5586,-4.5586,-4.5586,-4.5586,-4.5586,-4.5586,-4.5586,-4.5586,-4.5586,-4.5432,-4.5297,-4.5047,-4.4739,-4.4374,-4.3739,-4.3085,-4.2736,-4.2467,-4.2063,-4.1659,-4.1139,-4.0662,-4.0546,-4.0489,-4.0489,-4.0489,-4.0489,-4.045,-4.0466,-3.9912,-3.9142,-3.8469,-3.793,-3.768,-3.7507,-3.7007,-3.643,-3.6315,-3.6257,-3.5853,-3.5507,-3.5507,-5.6621,-5.6621,-5.6621,-5.6621,-5.6621,-5.6621,-5.6621,-5.6465,-5.5683,-5.5039,-5.4355,-5.3281,-5.2422,-5.2031,-5.1641,-5.1387,-5.1465,-5.1953,-5.2558,-5.3262,-5.3828,-5.4512,-5.5098,-5.4394,-5.3789,-5.3262,-5.2519,-5.1738,-5.1445,-5.1387,-5.1387,-5.1387,-5.1387,-5.1387,-5.1016,-4.9785,-4.9316,-4.9023,-4.7949,-4.7207,-4.748,-4.7226,-4.6797,-4.6406,-4.6308,-4.6289,-4.6289,-4.6289,-4.6289,-4.6289,-4.6289,-4.6289,-4.6289,-4.6289,-4.6289,-4.6289,-4.6289,-4.6289,-4.6289,-4.6289,-4.6289,-4.6289,-4.6289,-4.6289,-4.6289,-4.6289,-4.6289,-4.6269,-4.623,-4.6053,-4.593,-4.5819,-4.5712,-4.5605,-4.5586,-4.5586,-4.5586,-4.5586,-4.5586,-4.5586,-4.5586,-4.5586,-4.5586,-4.5451,-4.5355,-4.5182,-4.497,-4.447,-4.3799,-4.3605,-4.3374,-4.2316,-4.1758,-4.1139,-4.0662,-4.0546,-4.0489,-4.0489,-4.0489,-4.0489,-4.0489,-4.0469,-4.0408,-3.9969,-3.9354,-3.87,-3.845,-3.8238,-3.7603,-3.7007,-3.6776,-3.6469,-3.5853,-3.5507,-3.5507,-5.6621,-5.6621,-5.6621,-5.6621,-5.6621,-5.6621,-5.6621,-5.6465,-5.5898,-5.5,-5.3984,-5.3262,-5.2402,-5.1621,-5.1426,-5.1406,-5.1504,-5.2285,-5.3105,-5.3926,-5.4746,-5.5703,-5.6113,-5.5527,-5.4492,-5.373,-5.2676,-5.209,-5.1523,-5.1387,-5.1387,-5.1387,-5.1387,-5.1387,-5.1055,-5.0,-4.9863,-4.9473,-4.8789,-4.832,-4.8535,-4.8047,-4.7305,-4.6582,-4.6406,-4.6289,-4.6289,-4.6289,-4.6289,-4.6289,-4.6289,-4.6289,-4.6289,-4.6289,-4.6289,-4.6289,-4.6289,-4.6289,-4.6289,-4.6289,-4.6289,-4.6289,-4.6289,-4.6289,-4.6289,-4.6289,-4.6289,-4.6289,-4.625,-4.6133,-4.593,-4.587,-4.5774,-4.5661,-4.5586,-4.5586,-4.5586,-4.5586,-4.5586,-4.5586,-4.5586,-4.5586,-4.5586,-4.5586,-4.5451,-4.5451,-4.5259,-4.5201,-4.4643,-4.4586,-4.4085,-4.259,-4.1649,-4.1027,-4.0658,-4.0527,-4.0489,-4.0489,-4.0489,-4.0489,-4.0489,-4.0489,-4.0392,-4.0315,-4.0062,-3.9469,-3.9238,-3.9008,-3.8623,-3.8084,-3.7353,-3.6738,-3.6257,-3.5738,-3.5507,-5.6621,-5.6621,-5.6621,-5.6621,-5.6621,-5.6621,-5.6601,-5.6523,-5.6348,-5.5488,-5.3887,-5.3769,-5.2832,-5.1738,-5.1465,-5.1426,-5.1719,-5.2422,-5.3262,-5.4062,-5.4902,-5.5644,-5.6152,-5.4863,-5.4297,-5.3691,-5.2402,-5.1621,-5.1406,-5.1387,-5.1387,-5.1387,-5.1387,-5.1387,-5.1269,-5.0351,-5.0137,-5.0039,-4.9277,-4.8828,-4.875,-4.8105,-4.7637,-4.7168,-4.6699,-4.6289,-4.6289,-4.6289,-4.6289,-4.6289,-4.6289,-4.6289,-4.6289,-4.6289,-4.6289,-4.6289,-4.6289,-4.6289,-4.6289,-4.6289,-4.6289,-4.6289,-4.6289,-4.6289,-4.6289,-4.6289,-4.6289,-4.6289,-4.623,-4.6094,-4.5937,-4.5859,-4.5758,-4.568,-4.5586,-4.5586,-4.5586,-4.5586,-4.5586,-4.5586,-4.5586,-4.5586,-4.5586,-4.5586,-4.5586,-4.5586,-4.5566,-4.547,-4.5297,-4.5066,-4.4759,-4.3282,-4.2264,-4.1643,-4.1373,-4.1162,-4.0893,-4.0777,-4.07,-4.0642,-4.0489,-4.0489,-4.0489,-4.0392,-4.0219,-4.0181,-3.9969,-3.9758,-3.9623,-3.9046,-3.82,-3.745,-3.6757,-3.6257,-3.5853,-5.6152,-5.6601,-5.6621,-5.6621,-5.6621,-5.6621,-5.6308,-5.5918,-5.584,-5.4902,-5.3496,-5.3262,-5.2558,-5.168,-5.1855,-5.2148,-5.2344,-5.3008,-5.3574,-5.4043,-5.4785,-5.5234,-5.5078,-5.4805,-5.4433,-5.3203,-5.2539,-5.1933,-5.1601,-5.1387,-5.1387,-5.1387,-5.1387,-5.1387,-5.1348,-5.0605,-5.0586,-5.0644,-5.0449,-4.9824,-4.9062,-4.8476,-4.7851,-4.6933,-4.6523,-4.6348,-4.6289,-4.6289,-4.6289,-4.6289,-4.6289,-4.6289,-4.6289,-4.6289,-4.6289,-4.6289,-4.6289,-4.6289,-4.6289,-4.6289,-4.6289,-4.6289,-4.6289,-4.6289,-4.6289,-4.6289,-4.6289,-4.6289,-4.625,-4.6133,-4.5957,-4.5879,-4.5765,-4.5661,-4.5586,-4.5586,-4.5586,-4.5586,-4.5586,-4.5586,-4.5586,-4.5586,-4.5586,-4.5586,-4.5586,-4.5586,-4.5586,-4.5547,-4.5259,-4.4876,-4.4549,-4.4011,-4.3165,-4.2489,-4.2393,-4.2239,-4.1797,-4.1604,-4.1393,-4.12,-4.0623,-4.0489,-4.0585,-4.0546,-4.0392,-4.0412,-4.0489,-4.0315,-4.0008,-3.9508,-3.8988,-3.8257,-3.7584,-3.7373,-3.7103,-5.5703,-5.6289,-5.6504,-5.6621,-5.6582,-5.6367,-5.6055,-5.5664,-5.543,-5.4473,-5.3203,-5.2637,-5.209,-5.1953,-5.2363,-5.2617,-5.2734,-5.3613,-5.375,-5.4043,-5.4414,-5.4551,-5.4355,-5.4394,-5.3848,-5.2676,-5.2324,-5.1914,-5.1562,-5.1387,-5.1387,-5.1387,-5.1387,-5.1387,-5.125,-5.0937,-5.084,-5.1211,-5.125,-5.0527,-4.9512,-4.8984,-4.8027,-4.709,-4.6445,-4.6289,-4.6289,-4.6289,-4.6289,-4.6289,-4.6289,-4.6289,-4.6289,-4.6289,-4.6289,-4.6289,-4.6289,-4.6289,-4.6289,-4.6289,-4.6289,-4.6289,-4.6289,-4.6289,-4.6289,-4.6289,-4.6289,-4.6289,-4.6289,-4.6152,-4.5976,-4.5898,-4.5777,-4.568,-4.5586,-4.5586,-4.5586,-4.5586,-4.5586,-4.5586,-4.5586,-4.5586,-4.5586,-4.5586,-4.5586,-4.5586,-4.5586,-4.5586,-4.5336,-4.4934,-4.4626,-4.4318,-4.3932,-4.3239,-4.2951,-4.2854,-4.2566,-4.2431,-4.222,-4.1797,-4.1258,-4.0912,-4.0873,-4.0777,-4.0566,-4.0489,-4.0489,-4.0431,-4.0335,-3.9912,-3.9469,-3.8988,-3.8527,-3.8315,-3.8219,-5.5332,-5.5449,-5.623,-5.6543,-5.6504,-5.5723,-5.5801,-5.5957,-5.5469,-5.4609,-5.3398,-5.2363,-5.1973,-5.2422,-5.2578,-5.2734,-5.2793,-5.3613,-5.3437,-5.334,-5.3594,-5.3867,-5.3652,-5.3262,-5.293,-5.2519,-5.2051,-5.1621,-5.1426,-5.1387,-5.1387,-5.1387,-5.1387,-5.1387,-5.1367,-5.123,-5.1152,-5.1387,-5.1387,-5.0898,-4.9922,-4.9219,-4.834,-4.7441,-4.6699,-4.6289,-4.6289,-4.6387,-4.6465,-4.6484,-4.6641,-4.668,-4.6777,-4.6738,-4.6758,-4.6758,-4.6738,-4.6699,-4.6562,-4.6387,-4.6289,-4.6289,-4.6289,-4.6289,-4.6289,-4.6289,-4.6289,-4.6289,-4.6289,-4.6172,-4.5996,-4.5872,-4.5803,-4.568,-4.5586,-4.5586,-4.5586,-4.5586,-4.5586,-4.5586,-4.5586,-4.5586,-4.5586,-4.5586,-4.5586,-4.5586,-4.5586,-4.5586,-4.5586,-4.5297,-4.4972,-4.4684,-4.447,-4.3968,-4.3335,-4.322,-4.3393,-4.3278,-4.3028,-4.2508,-4.1931,-4.1643,-4.1239,-4.0912,-4.0719,-4.0604,-4.0489,-4.045,-4.0392,-4.0277,-3.9969,-3.9546,-3.9219,-3.8969,-3.8988,-5.4336,-5.5273,-5.5098,-5.5312,-5.5742,-5.4883,-5.4394,-5.418,-5.3848,-5.3223,-5.2461,-5.1738,-5.1875,-5.25,-5.2734,-5.3027,-5.3379,-5.3164,-5.2988,-5.2891,-5.3047,-5.2871,-5.2598,-5.2578,-5.2461,-5.1992,-5.1523,-5.1387,-5.1406,-5.1387,-5.1387,-5.1387,-5.1387,-5.1387,-5.1387,-5.1387,-5.1387,-5.1387,-5.1269,-5.0801,-4.9551,-4.9101,-4.8242,-4.6836,-4.6621,-4.6308,-4.6367,-4.6855,-4.7012,-4.7226,-4.7578,-4.7695,-4.7715,-4.7734,-4.7734,-4.7754,-4.7734,-4.7519,-4.6992,-4.666,-4.6308,-4.6289,-4.6289,-4.6289,-4.6289,-4.6289,-4.6289,-4.6289,-4.6289,-4.6172,-4.5957,-4.5881,-4.5815,-4.568,-4.5586,-4.5586,-4.5586,-4.5586,-4.5586,-4.5586,-4.5586,-4.5586,-4.5586,-4.5586,-4.5586,-4.5586,-4.5586,-4.5586,-4.5586,-4.5586,-4.5278,-4.5124,-4.4932,-4.493,-4.4355,-4.4316,-4.4355,-4.4105,-4.3835,-4.3316,-4.272,-4.195,-4.1546,-4.1181,-4.095,-4.0893,-4.0777,-4.0566,-4.045,-4.0373,-4.0315,-4.0177,-3.9873,-3.9604,-3.9662,-5.3418,-5.4414,-5.3867,-5.4433,-5.5449,-5.4473,-5.3965,-5.3848,-5.3691,-5.2988,-5.2129,-5.1758,-5.1875,-5.2519,-5.2715,-5.293,-5.3223,-5.2988,-5.2598,-5.2383,-5.2207,-5.1914,-5.1797,-5.1816,-5.1953,-5.1465,-5.1387,-5.1387,-5.1387,-5.1387,-5.1387,-5.1387,-5.1387,-5.1387,-5.1387,-5.1387,-5.1387,-5.1387,-5.1269,-5.0762,-4.9492,-4.9277,-4.8769,-4.7461,-4.7285,-4.7266,-4.7383,-4.7734,-4.793,-4.8125,-4.8418,-4.8769,-4.8848,-4.8887,-4.8887,-4.8906,-4.8848,-4.8613,-4.793,-4.6973,-4.6348,-4.6289,-4.6289,-4.6289,-4.6289,-4.6289,-4.6289,-4.6289,-4.6289,-4.6191,-4.5937,-4.5881,-4.5808,-4.5661,-4.5586,-4.5586,-4.5586,-4.5586,-4.5586,-4.5586,-4.5586,-4.5586,-4.5586,-4.5586,-4.5586,-4.5586,-4.5586,-4.5586,-4.5586,-4.5586,-4.5547,-4.5451,-4.5413,-4.547,-4.5509,-4.5201,-4.4913,-4.4893,-4.4605,-4.4201,-4.3566,-4.2777,-4.2258,-4.2124,-4.1835,-4.1393,-4.1296,-4.1373,-4.0989,-4.0508,-4.0431,-4.0369,-4.0315,-4.0065,-4.02,-5.2715,-5.2754,-5.2754,-5.416,-5.6015,-5.4687,-5.4726,-5.5469,-5.5058,-5.4277,-5.3242,-5.2051,-5.1875,-5.2519,-5.2598,-5.2676,-5.2812,-5.2676,-5.2266,-5.1738,-5.168,-5.1484,-5.1465,-5.1523,-5.1621,-5.1445,-5.1387,-5.1387,-5.1387,-5.1387,-5.1387,-5.1543,-5.1641,-5.1504,-5.1426,-5.1387,-5.1387,-5.1387,-5.1387,-5.084,-5.0234,-4.9961,-4.9355,-4.8672,-4.8398,-4.832,-4.8398,-4.8672,-4.8848,-4.8945,-4.9141,-4.9336,-4.9316,-4.9277,-4.9238,-4.9219,-4.9141,-4.9004,-4.873,-4.7207,-4.6543,-4.6328,-4.6289,-4.6289,-4.6289,-4.6289,-4.6289,-4.6289,-4.6289,-4.6172,-4.6016,-4.5891,-4.5761,-4.5661,-4.5605,-4.5586,-4.5586,-4.5586,-4.5586,-4.5586,-4.5586,-4.5586,-4.5586,-4.5586,-4.5586,-4.5586,-4.5586,-4.5586,-4.5586,-4.5586,-4.5586,-4.5586,-4.5586,-4.5586,-4.5586,-4.5586,-4.547,-4.5509,-4.5316,-4.4855,-4.447,-4.3893,-4.347,-4.3162,-4.2701,-4.22,-4.2239,-4.2354,-4.1739,-4.1104,-4.0604,-4.0469,-4.0489,-4.0527,-4.0585,-5.2168,-5.2656,-5.209,-5.3008,-5.457,-5.3652,-5.3516,-5.3887,-5.3652,-5.3105,-5.2324,-5.1543,-5.1875,-5.2344,-5.2187,-5.2148,-5.2539,-5.1953,-5.1504,-5.1445,-5.1387,-5.1406,-5.1387,-5.1387,-5.1387,-5.1387,-5.1387,-5.1387,-5.1387,-5.1387,-5.1816,-5.207,-5.1973,-5.1933,-5.1562,-5.1387,-5.1387,-5.1387,-5.1328,-5.1016,-5.0312,-5.0176,-4.9844,-4.9043,-4.9023,-4.9062,-4.9121,-4.9492,-4.9726,-4.9824,-5.0019,-5.0351,-5.0371,-5.0391,-5.043,-5.0488,-5.0469,-4.9961,-4.9082,-4.7754,-4.6894,-4.6562,-4.6308,-4.6308,-4.6289,-4.6289,-4.6289,-4.6289,-4.6289,-4.6152,-4.5957,-4.5918,-4.5806,-4.5642,-4.5586,-4.5586,-4.5586,-4.5586,-4.5586,-4.5586,-4.5586,-4.5586,-4.5586,-4.5586,-4.5586,-4.5586,-4.5586,-4.5586,-4.5586,-4.5586,-4.5586,-4.5586,-4.5586,-4.5586,-4.5586,-4.5586,-4.5586,-4.5547,-4.5547,-4.5393,-4.5047,-4.4701,-4.4374,-4.3912,-4.347,-4.3066,-4.3028,-4.2874,-4.2297,-4.1739,-4.1296,-4.0719,-4.0489,-4.0623,-4.0796,-5.1719,-5.2168,-5.166,-5.2031,-5.2969,-5.2812,-5.2832,-5.3027,-5.2832,-5.2344,-5.1914,-5.1601,-5.166,-5.1933,-5.1777,-5.1601,-5.2187,-5.1719,-5.1406,-5.1387,-5.1387,-5.1387,-5.1387,-5.1387,-5.1387,-5.1387,-5.1387,-5.1387,-5.1387,-5.1387,-5.1641,-5.1992,-5.2266,-5.1836,-5.1504,-5.1387,-5.1387,-5.1387,-5.1348,-5.1211,-5.0801,-5.0605,-5.043,-5.0019,-4.9863,-4.9863,-4.9941,-5.0215,-5.0605,-5.0762,-5.1016,-5.1387,-5.1387,-5.1387,-5.1387,-5.1387,-5.1269,-5.0625,-4.9551,-4.8574,-4.7715,-4.6933,-4.6543,-4.6308,-4.6289,-4.6289,-4.6289,-4.6289,-4.6289,-4.6133,-4.5957,-4.591,-4.5825,-4.5661,-4.5586,-4.5586,-4.5586,-4.5586,-4.5586,-4.5586,-4.5586,-4.5586,-4.5586,-4.5586,-4.5586,-4.5586,-4.5586,-4.5586,-4.5586,-4.5586,-4.5586,-4.5586,-4.5586,-4.5586,-4.5586,-4.5586,-4.5586,-4.5586,-4.5586,-4.5586,-4.549,-4.5124,-4.4893,-4.472,-4.4451,-4.4143,-4.372,-4.3355,-4.3008,-4.2566,-4.2066,-4.1431,-4.0681,-4.0758,-4.1066,-5.1406,-5.1387,-5.1387,-5.1426,-5.1562,-5.2285,-5.3066,-5.3789,-5.3047,-5.2656,-5.2539,-5.1641,-5.1504,-5.1445,-5.1387,-5.1445,-5.1543,-5.1426,-5.1406,-5.1387,-5.1387,-5.1387,-5.1387,-5.1387,-5.1387,-5.1387,-5.1426,-5.1484,-5.1465,-5.1914,-5.1953,-5.168,-5.1894,-5.168,-5.1523,-5.1387,-5.1387,-5.1387,-5.1367,-5.1308,-5.1133,-5.1211,-5.1094,-5.0918,-5.0937,-5.0957,-5.1016,-5.1152,-5.123,-5.1308,-5.1367,-5.1387,-5.1387,-5.1387,-5.1387,-5.1387,-5.1387,-5.0859,-5.0098,-4.918,-4.834,-4.7402,-4.6699,-4.6426,-4.6289,-4.6289,-4.6289,-4.6289,-4.6289,-4.6113,-4.5952,-4.589,-4.5813,-4.5719,-4.5605,-4.5586,-4.5586,-4.5586,-4.5586,-4.5586,-4.5586,-4.5586,-4.5586,-4.5586,-4.5586,-4.5586,-4.5586,-4.5586,-4.5586,-4.5586,-4.5586,-4.5586,-4.5586,-4.5586,-4.5586,-4.5586,-4.5586,-4.5586,-4.5586,-4.5586,-4.5528,-4.5509,-4.5316,-4.522,-4.5432,-4.5201,-4.4605,-4.422,-4.397,-4.347,-4.2931,-4.2085,-4.1335,-4.1239,-4.145,-5.1387,-5.1387,-5.1387,-5.1387,-5.1426,-5.166,-5.2285,-5.2949,-5.2773,-5.2402,-5.1758,-5.1504,-5.1387,-5.1387,-5.1387,-5.1387,-5.1387,-5.1387,-5.1387,-5.1387,-5.1387,-5.1387,-5.1387,-5.1387,-5.1387,-5.1387,-5.1465,-5.166,-5.2305,-5.2715,-5.2637,-5.2461,-5.207,-5.1855,-5.1543,-5.1387,-5.1387,-5.1387,-5.1387,-5.1387,-5.1387,-5.1387,-5.1387,-5.1387,-5.1387,-5.1387,-5.1387,-5.1387,-5.1387,-5.1387,-5.1387,-5.1387,-5.1387,-5.1387,-5.1387,-5.1387,-5.1308,-5.1035,-5.0234,-4.9394,-4.8555,-4.7715,-4.6816,-4.6406,-4.6289,-4.6289,-4.6289,-4.6289,-4.6289,-4.6152,-4.5988,-4.5872,-4.5796,-4.568,-4.5586,-4.5586,-4.5586,-4.5586,-4.5586,-4.5586,-4.5586,-4.5586,-4.5586,-4.5586,-4.5586,-4.5586,-4.5586,-4.5586,-4.5586,-4.5586,-4.5586,-4.5586,-4.5586,-4.5586,-4.5586,-4.5586,-4.5586,-4.5586,-4.5586,-4.5586,-4.5566,-4.5566,-4.5586,-4.5586,-4.5586,-4.5528,-4.5336,-4.4989,-4.4662,-4.4335,-4.3797,-4.2854,-4.2104,-4.2008,-4.2104,-5.1387,-5.1387,-5.1387,-5.1387,-5.1387,-5.1387,-5.1738,-5.2148,-5.2187,-5.1855,-5.1426,-5.1387,-5.1387,-5.1387,-5.1387,-5.1387,-5.1387,-5.1387,-5.1387,-5.1387,-5.1387,-5.1387,-5.1387,-5.1387,-5.1387,-5.1387,-5.1445,-5.1601,-5.2324,-5.2578,-5.2519,-5.2148,-5.2187,-5.1894,-5.1543,-5.1387,-5.1387,-5.1387,-5.1387,-5.1387,-5.1387,-5.1387,-5.1387,-5.1387,-5.1387,-5.1387,-5.1387,-5.1387,-5.1387,-5.1387,-5.1387,-5.1387,-5.1387,-5.1387,-5.1387,-5.1387,-5.1367,-5.1191,-5.0644,-4.9531,-4.8769,-4.7969,-4.6992,-4.6426,-4.6289,-4.6289,-4.6289,-4.6289,-4.6269,-4.6222,-4.6053,-4.5873,-4.5757,-4.5624,-4.5605,-4.5586,-4.5586,-4.5586,-4.5586,-4.5586,-4.5586,-4.5586,-4.5586,-4.5586,-4.5586,-4.5586,-4.5586,-4.5586,-4.5586,-4.5586,-4.5586,-4.5586,-4.5586,-4.5586,-4.5586,-4.5586,-4.5586,-4.5586,-4.5586,-4.5586,-4.5586,-4.5586,-4.5586,-4.5586,-4.5586,-4.5528,-4.549,-4.5509,-4.5278,-4.4932,-4.4643,-4.4028,-4.3297,-4.2816,-4.3008,-5.1269,-5.1387,-5.1387,-5.1387,-5.1387,-5.1387,-5.1426,-5.1387,-5.1484,-5.1406,-5.1387,-5.1387,-5.1387,-5.1387,-5.1387,-5.1387,-5.1387,-5.1387,-5.1387,-5.1387,-5.1387,-5.1387,-5.1387,-5.1387,-5.1387,-5.1387,-5.1465,-5.1601,-5.1601,-5.1973,-5.2129,-5.1484,-5.1484,-5.1445,-5.1426,-5.1387,-5.1387,-5.1387,-5.1387,-5.1387,-5.1387,-5.1387,-5.1387,-5.1387,-5.1387,-5.1387,-5.1387,-5.1387,-5.1387,-5.1387,-5.1387,-5.1387,-5.1387,-5.1387,-5.1387,-5.1387,-5.1387,-5.1348,-5.082,-4.9785,-4.9101,-4.8281,-4.7344,-4.6582,-4.6289,-4.6289,-4.6289,-4.6289,-4.6289,-4.6172,-4.5994,-4.5896,-4.5796,-4.568,-4.5586,-4.5586,-4.5586,-4.5586,-4.5586,-4.5586,-4.5586,-4.5586,-4.5586,-4.5586,-4.5586,-4.5586,-4.5586,-4.5586,-4.5586,-4.5586,-4.5586,-4.5586,-4.5586,-4.5586,-4.5586,-4.5586,-4.5586,-4.5586,-4.5586,-4.5586,-4.5586,-4.5586,-4.5586,-4.5586,-4.5586,-4.5586,-4.5566,-4.5566,-4.5566,-4.5451,-4.5201,-4.5086,-4.4586,-4.3874,-4.3682,-5.0254,-5.1387,-5.1387,-5.1387,-5.1387,-5.1387,-5.1387,-5.1387,-5.1387,-5.1348,-5.1387,-5.1367,-5.1348,-5.1308,-5.1367,-5.1387,-5.1387,-5.1387,-5.1387,-5.1387,-5.1387,-5.1387,-5.1387,-5.1387,-5.1387,-5.1387,-5.1484,-5.168,-5.1992,-5.2187,-5.2285,-5.2226,-5.1875,-5.1523,-5.1406,-5.1426,-5.1523,-5.1406,-5.1387,-5.1387,-5.1387,-5.1387,-5.1387,-5.1387,-5.1387,-5.1387,-5.1387,-5.1387,-5.1387,-5.1387,-5.1387,-5.1387,-5.1387,-5.1387,-5.1387,-5.1387,-5.1387,-5.1387,-5.0996,-5.0019,-4.918,-4.8437,-4.7539,-4.6738,-4.6289,-4.6289,-4.6289,-4.6289,-4.625,-4.6113,-4.5998,-4.5916,-4.5834,-4.5719,-4.5586,-4.5586,-4.5586,-4.5586,-4.5586,-4.5586,-4.5586,-4.5586,-4.5586,-4.5586,-4.5586,-4.5586,-4.5586,-4.5586,-4.5586,-4.5586,-4.5586,-4.5586,-4.5586,-4.5586,-4.5586,-4.5586,-4.5586,-4.5586,-4.5586,-4.5586,-4.5586,-4.5586,-4.5586,-4.5586,-4.5586,-4.5586,-4.5586,-4.5586,-4.5586,-4.5586,-4.5547,-4.5355,-4.5355,-4.4855,-4.4566,-4.9668,-5.0859,-5.125,-5.1387,-5.1387,-5.1387,-5.1191,-5.0918,-5.0859,-5.0625,-5.0488,-5.0976,-5.123,-5.1074,-5.1211,-5.1387,-5.1387,-5.1387,-5.1387,-5.1387,-5.1387,-5.1387,-5.1387,-5.1387,-5.1387,-5.1387,-5.1406,-5.168,-5.2129,-5.209,-5.2012,-5.2148,-5.1777,-5.1738,-5.1562,-5.166,-5.1699,-5.1426,-5.1406,-5.1387,-5.1387,-5.1387,-5.1387,-5.1387,-5.1387,-5.1387,-5.1387,-5.1387,-5.1387,-5.1387,-5.1387,-5.1387,-5.1387,-5.1387,-5.1387,-5.1387,-5.1387,-5.1387,-5.1016,-5.0293,-4.9277,-4.8555,-4.7793,-4.7012,-4.6328,-4.6289,-4.6289,-4.6289,-4.6289,-4.6191,-4.5996,-4.5905,-4.5786,-4.5661,-4.5605,-4.5586,-4.5586,-4.5586,-4.5586,-4.5586,-4.5586,-4.5586,-4.5586,-4.5586,-4.5586,-4.5586,-4.5586,-4.5586,-4.5586,-4.5586,-4.5586,-4.5586,-4.5586,-4.5586,-4.5586,-4.5586,-4.5586,-4.5586,-4.5586,-4.5586,-4.5586,-4.5586,-4.5586,-4.5586,-4.5586,-4.5586,-4.5586,-4.5586,-4.5586,-4.5586,-4.5586,-4.5547,-4.5586,-4.5586,-4.5259,-4.9101,-5.0098,-5.1016,-5.1387,-5.1367,-5.1269,-5.0859,-5.0293,-5.0078,-4.9551,-4.9101,-5.0527,-5.0703,-5.0683,-5.1016,-5.125,-5.1387,-5.1387,-5.1387,-5.1387,-5.1387,-5.1387,-5.1387,-5.1387,-5.1387,-5.1387,-5.1406,-5.1406,-5.1543,-5.1562,-5.1621,-5.1601,-5.1836,-5.2148,-5.1855,-5.1933,-5.2031,-5.1562,-5.1387,-5.1387,-5.1387,-5.1387,-5.1387,-5.1387,-5.1387,-5.1387,-5.1387,-5.1387,-5.1387,-5.1387,-5.1387,-5.1387,-5.1387,-5.1387,-5.1387,-5.1387,-5.1387,-5.1387,-5.1191,-5.0586,-4.9726,-4.8926,-4.8086,-4.7305,-4.6601,-4.6328,-4.6328,-4.6328,-4.6328,-4.623,-4.6035,-4.5874,-4.5773,-4.5661,-4.5624,-4.5586,-4.5586,-4.5586,-4.5586,-4.5586,-4.5586,-4.5586,-4.5586,-4.5586,-4.5586,-4.5586,-4.5586,-4.5586,-4.5586,-4.5586,-4.5586,-4.5586,-4.5586,-4.5586,-4.5586,-4.5586,-4.5586,-4.5586,-4.5586,-4.5586,-4.5586,-4.5586,-4.5586,-4.5586,-4.5586,-4.5586,-4.5586,-4.5586,-4.5586,-4.5586,-4.5586,-4.5586,-4.5586,-4.5586,-4.5586,-4.7715,-4.9258,-5.0762,-5.1387,-5.1289,-5.0723,-5.0351,-5.0098,-4.9394,-4.8652,-4.8496,-4.9551,-5.0293,-5.0234,-5.1035,-5.1367,-5.1387,-5.1387,-5.1387,-5.1387,-5.1387,-5.1387,-5.1387,-5.1387,-5.1387,-5.1387,-5.1387,-5.1387,-5.1387,-5.1387,-5.1406,-5.1445,-5.1504,-5.1641,-5.1562,-5.1699,-5.1777,-5.1445,-5.1387,-5.1387,-5.1387,-5.1387,-5.1387,-5.1387,-5.1387,-5.1387,-5.1387,-5.1387,-5.1387,-5.1387,-5.1387,-5.1387,-5.1387,-5.1387,-5.1387,-5.1387,-5.1387,-5.1387,-5.1152,-5.0742,-5.0,-4.8965,-4.8144,-4.7344,-4.6777,-4.6426,-4.6445,-4.6465,-4.6426,-4.6308,-4.6133,-4.5963,-4.5822,-4.5717,-4.5661,-4.5605,-4.5586,-4.5586,-4.5586,-4.5586,-4.5586,-4.5586,-4.5586,-4.5586,-4.5586,-4.5586,-4.5586,-4.5586,-4.5586,-4.5586,-4.5586,-4.5586,-4.5586,-4.5586,-4.5586,-4.5586,-4.5586,-4.5586,-4.5586,-4.5586,-4.5586,-4.5586,-4.5586,-4.5586,-4.5586,-4.5586,-4.5586,-4.5586,-4.5586,-4.5586,-4.5586,-4.5586,-4.5586,-4.5586,-4.5586]}]]